[[{"header":{"parameterUnit":"m.s-1","parameterCategory":1,"la1":30.6,"la2":28.766,"lo1":-90.7593,"lo2":-88.6598,"dy":0.0162,"dx":0.0183,"nx":116,"ny":114,"refTime":"2023-08-28T06:00:00:Z","depth":0,"parameterNumber":2,"parameterNumberName":"U-component_of_WINDS"},"data":[0.0,0.0,0.0,0.0,0.0,0.0,0.0,0.0,0.0,0.0,0.0,0.0,0.0,0.0,0.0,0.0,0.0,0.0,0.0,0.0,0.0,0.0,0.0,0.0,0.0,0.0,0.0,0.0,0.0,0.0,0.0,0.0,0.0,0.0,0.0,0.0,0.0,0.0,0.0,0.0,0.0,0.0,0.0,0.0,0.0,0.0,0.0,0.0,0.0,0.0,0.0,0.0,0.0,0.0,0.0,0.0,0.0,0.0,0.0,0.0,0.0,0.0,0.0,0.0,0.0,0.0,0.0,0.0,0.0,0.0,0.0,0.0,0.0,0.0,0.0,0.0,0.0,0.0,0.0,0.0,0.0,0.0,0.0,0.0,0.0,0.0,0.0,0.0,0.0,0.0,0.0,0.0,0.0,0.0,0.0,0.0,0.0,0.0,0.0,0.0,0.0,0.0,0.0,0.0,0.0,0.0,0.0,0.0,0.0,0.0,0.0,0.0,0.0,0.0,0.0,0.0,0.0,0.0,0.0,0.0,0.0,0.0,0.0,0.0,0.0,0.0,0.0,0.0,0.0,0.0,0.0,0.0,0.0,0.0,0.0,0.0,0.0,0.0,0.0,0.0,0.0,0.0,0.0,0.0,0.0,0.0,0.0,0.0,0.0,0.0,0.0,0.0,0.0,0.0,0.0,0.0,0.0,0.0,0.0,0.0,0.0,0.0,0.0,0.0,0.0,0.0,0.0,0.0,0.0,0.0,0.0,0.0,0.0,0.0,0.0,0.0,0.0,0.0,0.0,0.0,0.0,0.0,0.0,0.0,0.0,0.0,0.0,0.0,0.0,0.0,0.0,0.0,0.0,0.0,0.0,0.0,0.0,0.0,0.0,0.0,0.0,0.0,0.0,0.0,0.0,0.0,0.0,0.0,0.0,0.0,0.0,0.0,0.0,0.0,0.0,0.0,0.0,0.0,0.0,0.0,0.0,0.0,0.0,0.0,0.0,0.0,0.0,0.0,0.0,0.0,0.0,0.0,0.0,0.0,0.0,0.0,0.0,0.0,0.0,0.0,0.0,0.0,0.0,0.0,0.0,0.0,0.0,0.0,0.0,0.0,0.0,0.0,0.0,0.0,0.0,0.0,0.0,0.0,0.0,0.0,0.0,0.0,0.0,0.0,0.0,0.0,0.0,0.0,0.0,0.0,0.0,0.0,0.0,0.0,0.0,0.0,0.0,0.0,0.0,0.0,0.0,0.0,0.0,0.0,0.0,0.0,0.0,0.0,0.0,0.0,0.0,0.0,0.0,0.0,0.0,0.0,0.0,0.0,0.0,0.0,0.0,0.0,0.0,0.0,0.0,0.0,0.0,0.0,0.0,0.0,0.0,0.0,0.0,0.0,0.0,0.0,0.0,0.0,0.0,0.0,0.0,0.0,0.0,0.0,0.0,0.0,0.0,0.0,0.0,0.0,0.0,0.0,0.0,0.0,0.0,0.0,0.0,0.0,0.0,0.0,0.0,0.0,0.0,0.0,0.0,0.0,0.0,0.0,0.0,0.0,0.0,0.0,0.0,0.0,0.0,0.0,0.0,0.0,0.0,0.0,0.0,0.0,0.0,0.0,0.0,0.0,0.0,0.0,0.0,0.0,0.0,0.0,0.0,0.0,0.0,0.0,0.0,0.0,0.0,0.0,0.0,0.0,0.0,0.0,0.0,0.0,0.0,0.0,0.0,0.0,0.0,0.0,0.0,0.0,0.0,0.0,0.0,0.0,0.0,0.0,0.0,0.0,0.0,0.0,0.0,0.0,0.0,0.0,0.0,0.0,0.0,0.0,0.0,0.0,0.0,0.0,0.0,0.0,0.0,0.0,0.0,0.0,0.0,0.0,0.0,0.0,0.0,0.0,0.0,0.0,0.0,0.0,0.0,0.0,0.0,0.0,0.0,0.0,0.0,0.0,0.0,0.0,0.0,0.0,0.0,0.0,0.0,0.0,0.0,0.0,0.0,0.0,0.0,0.0,0.0,0.0,0.0,0.0,0.0,0.0,0.0,0.0,0.0,0.0,0.0,0.0,0.0,0.0,0.0,0.0,0.0,0.0,0.0,0.0,0.0,0.0,0.0,0.0,0.0,0.0,0.0,0.0,0.0,0.0,0.0,0.0,0.0,0.0,0.0,0.0,0.0,0.0,0.0,0.0,0.0,0.0,0.0,0.0,0.0,0.0,0.0,0.0,0.0,0.0,0.0,0.0,0.0,0.0,0.0,0.0,0.0,0.0,0.0,0.0,0.0,0.0,0.0,0.0,0.0,0.0,0.0,0.0,0.0,0.0,0.0,0.0,0.0,0.0,0.0,0.0,0.0,0.0,0.0,0.0,0.0,0.0,0.0,0.0,0.0,0.0,0.0,0.0,0.0,0.0,0.0,0.0,0.0,0.0,0.0,0.0,0.0,0.0,0.0,0.0,0.0,0.0,0.0,0.0,0.0,0.0,0.0,0.0,0.0,0.0,0.0,0.0,0.0,0.0,0.0,0.0,0.0,0.0,0.0,0.0,0.0,0.0,0.0,0.0,0.0,0.0,0.0,0.0,0.0,0.0,0.0,0.0,0.0,0.0,0.0,0.0,0.0,0.0,0.0,0.0,0.0,0.0,0.0,0.0,0.0,0.0,0.0,0.0,0.0,0.0,0.0,0.0,0.0,0.0,0.0,0.0,0.0,0.0,0.0,0.0,0.0,0.0,0.0,0.0,0.0,0.0,0.0,0.0,0.0,0.0,0.0,0.0,0.0,0.0,0.0,0.0,0.0,0.0,0.0,0.0,0.0,0.0,0.0,0.0,0.0,0.0,0.0,0.0,0.0,0.0,0.0,0.0,0.0,0.0,0.0,0.0,0.0,0.0,0.0,0.0,0.0,0.0,0.0,0.0,0.0,0.0,0.0,0.0,0.0,0.0,0.0,0.0,0.0,0.0,0.0,0.0,0.0,0.0,0.0,0.0,0.0,0.0,0.0,0.0,0.0,0.0,0.0,0.0,0.0,0.0,0.0,0.0,0.0,0.0,0.0,0.0,0.0,0.0,0.0,0.0,0.0,0.0,0.0,0.0,0.0,0.0,0.0,0.0,0.0,0.0,0.0,0.0,0.0,0.0,0.0,0.0,0.0,0.0,0.0,0.0,0.0,0.0,0.0,0.0,0.0,0.0,0.0,0.0,0.0,0.0,0.0,0.0,0.0,0.0,0.0,0.0,0.0,0.0,0.0,0.0,0.0,0.0,0.0,0.0,0.0,0.0,0.0,0.0,0.0,0.0,0.0,0.0,0.0,0.0,0.0,0.0,0.0,0.0,0.0,0.0,0.0,0.0,0.0,0.0,0.0,0.0,0.0,0.0,0.0,0.0,0.0,0.0,0.0,0.0,0.0,0.0,0.0,0.0,0.0,0.0,0.0,0.0,0.0,0.0,0.0,0.0,0.0,0.0,0.0,0.0,0.0,0.0,0.0,0.0,0.0,0.0,0.0,0.0,0.0,0.0,0.0,0.0,0.0,0.0,0.0,0.0,0.0,0.0,0.0,0.0,0.0,0.0,0.0,0.0,0.0,0.0,0.0,0.0,0.0,0.0,0.0,0.0,0.0,0.0,0.0,0.0,0.0,0.0,0.0,0.0,0.0,0.0,0.0,0.0,0.0,0.0,0.0,0.0,0.0,0.0,0.0,0.0,0.0,0.0,0.0,0.0,0.0,0.0,0.0,0.0,0.0,0.0,0.0,0.0,0.0,0.0,0.0,0.0,0.0,0.0,0.0,0.0,0.0,0.0,0.0,0.0,0.0,0.0,0.0,0.0,0.0,0.0,0.0,0.0,0.0,0.0,0.0,0.0,0.0,0.0,0.0,0.0,0.0,0.0,0.0,0.0,0.0,0.0,0.0,0.0,0.0,0.0,0.0,0.0,0.0,0.0,0.0,0.0,0.0,0.0,0.0,0.0,0.0,0.0,0.0,0.0,0.0,0.0,0.0,0.0,0.0,0.0,0.0,0.0,0.0,0.0,0.0,0.0,0.0,0.0,0.0,0.0,0.0,0.0,0.0,0.0,0.0,0.0,0.0,0.0,0.0,0.0,0.0,0.0,0.0,0.0,0.0,0.0,0.0,0.0,0.0,0.0,0.0,0.0,0.0,0.0,0.0,0.0,0.0,0.0,0.0,0.0,0.0,0.0,0.0,0.0,0.0,0.0,0.0,0.0,0.0,0.0,0.0,0.0,0.0,0.0,0.0,0.0,0.0,0.0,0.0,0.0,0.0,0.0,0.0,0.0,0.0,0.0,0.0,0.0,0.0,0.0,0.0,0.0,0.0,0.0,0.0,0.0,0.0,0.0,0.0,0.0,0.0,0.0,0.0,0.0,0.0,0.0,0.0,0.0,0.0,0.0,0.0,0.0,0.0,0.0,0.0,0.0,0.0,0.0,0.0,0.0,0.0,0.0,0.0,0.0,0.0,0.0,0.0,0.0,0.0,0.0,0.0,0.0,0.0,0.0,0.0,0.0,0.0,0.0,0.0,0.0,0.0,0.0,0.0,0.0,0.0,0.0,0.0,0.0,0.0,0.0,0.0,0.0,0.0,0.0,0.0,0.0,0.0,0.0,0.0,0.0,0.0,0.0,0.0,0.0,0.0,0.0,0.0,0.0,0.0,0.0,0.0,0.0,0.0,0.0,0.0,0.0,0.0,0.0,0.0,0.0,0.0,0.0,0.0,0.0,0.0,0.0,0.0,0.0,0.0,0.0,0.0,0.0,0.0,0.0,0.0,0.0,0.0,0.0,0.0,0.0,0.0,0.0,0.0,0.0,0.0,0.0,0.0,0.0,0.0,0.0,0.0,0.0,0.0,0.0,0.0,0.0,0.0,0.0,0.0,0.0,0.0,0.0,0.0,0.0,0.0,0.0,0.0,0.0,0.0,0.0,0.0,0.0,0.0,0.0,0.0,0.0,0.0,0.0,0.0,0.0,0.0,0.0,0.0,0.0,0.0,0.0,0.0,0.0,0.0,0.0,0.0,0.0,0.0,0.0,0.0,0.0,0.0,0.0,0.0,0.0,0.0,0.0,0.0,0.0,0.0,0.0,0.0,0.0,0.0,0.0,0.0,0.0,0.0,0.0,0.0,0.0,0.0,0.0,0.0,0.0,0.0,0.0,0.0,0.0,0.0,0.0,0.0,0.0,0.0,0.0,0.0,0.0,0.0,0.0,0.0,0.0,0.0,0.0,0.0,0.0,0.0,0.0,0.0,0.0,0.0,0.0,0.0,0.0,0.0,0.0,0.0,0.0,0.0,0.0,0.0,0.0,0.0,0.0,0.0,0.0,0.0,0.0,0.0,0.0,0.0,0.0,0.0,0.0,0.0,0.0,0.0,0.0,0.0,0.0,0.0,0.0,0.0,0.0,0.0,0.0,0.0,0.0,0.0,0.0,0.0,0.0,0.0,0.0,0.0,0.0,0.0,0.0,0.0,0.0,0.0,0.0,0.0,0.0,0.0,0.0,0.0,0.0,0.0,0.0,0.0,0.0,0.0,0.0,0.0,0.0,0.0,0.0,0.0,0.0,0.0,0.0,0.0,0.0,0.0,0.0,0.0,0.0,0.0,0.0,0.0,0.0,0.0,0.0,0.0,0.0,0.0,0.0,0.0,0.0,0.0,0.0,0.0,0.0,0.0,0.0,0.0,0.0,0.0,0.0,0.0,0.0,0.0,0.0,0.0,0.0,0.0,0.0,0.0,0.0,0.0,0.0,0.0,0.0,0.0,0.0,0.0,0.0,0.0,0.0,0.0,0.0,0.0,0.0,0.0,0.0,0.0,0.0,0.0,0.0,0.0,0.0,0.0,0.0,0.0,0.0,0.0,0.0,0.0,0.0,0.0,0.0,0.0,0.0,0.0,0.0,0.0,0.0,0.0,0.0,0.0,0.0,0.0,0.0,0.0,0.0,0.0,0.0,0.0,0.0,0.0,0.0,0.0,0.0,0.0,0.0,0.0,0.0,0.0,0.0,0.0,0.0,0.0,0.0,0.0,0.0,0.0,0.0,0.0,0.0,0.0,0.0,0.0,0.0,0.0,0.0,0.0,0.0,0.0,0.0,4.7512,4.7512,0.0,0.0,0.0,0.0,0.0,0.0,0.0,0.0,0.0,0.0,0.0,0.0,0.0,0.0,0.0,0.0,0.0,0.0,0.0,0.0,0.0,0.0,0.0,0.0,0.0,0.0,0.0,0.0,0.0,0.0,0.0,0.0,0.0,0.0,0.0,0.0,0.0,0.0,4.2142,4.2357,4.2337,4.1487,4.1097,4.1108,0.0,0.0,0.0,0.0,0.0,0.0,0.0,0.0,0.0,0.0,0.0,0.0,0.0,0.0,0.0,0.0,0.0,0.0,0.0,0.0,0.0,0.0,0.0,0.0,0.0,0.0,0.0,0.0,0.0,0.0,0.0,0.0,0.0,0.0,0.0,0.0,0.0,0.0,0.0,0.0,0.0,0.0,0.0,0.0,0.0,0.0,0.0,0.0,0.0,0.0,0.0,0.0,0.0,0.0,0.0,0.0,0.0,0.0,0.0,0.0,0.0,0.0,0.0,0.0,0.0,0.0,0.0,0.0,0.0,0.0,4.8968,4.861,0.0,0.0,0.0,0.0,0.0,0.0,0.0,0.0,0.0,0.0,0.0,0.0,0.0,0.0,0.0,0.0,0.0,0.0,0.0,0.0,0.0,0.0,0.0,3.6645,3.678,3.6066,3.6135,3.6286,0.0,0.0,0.0,0.0,0.0,0.0,0.0,4.2412,4.2842,4.2845,4.3411,4.3707,4.3671,4.2958,4.2236,4.1557,4.1557,0.0,0.0,0.0,0.0,0.0,0.0,0.0,0.0,0.0,0.0,0.0,0.0,0.0,0.0,0.0,0.0,0.0,0.0,0.0,0.0,0.0,0.0,0.0,0.0,0.0,0.0,0.0,0.0,0.0,0.0,0.0,0.0,0.0,0.0,0.0,0.0,0.0,0.0,0.0,0.0,0.0,0.0,0.0,0.0,0.0,0.0,0.0,0.0,0.0,0.0,0.0,0.0,0.0,0.0,0.0,0.0,0.0,0.0,0.0,0.0,0.0,0.0,0.0,4.9753,5.0134,5.0153,5.0872,5.1202,5.1125,4.9687,4.9057,4.904,4.905,0.0,0.0,0.0,0.0,0.0,0.0,0.0,0.0,0.0,0.0,0.0,0.0,0.0,0.0,0.0,0.0,0.0,0.0,0.0,0.0,0.0,3.6091,3.613,3.6016,3.6696,3.7458,3.8216,0.0,0.0,0.0,0.0,0.0,4.3333,4.4211,4.466,4.466,4.4016,4.3693,4.3704,4.3587,4.3464,4.3349,4.3352,4.3352,4.3313,0.0,0.0,0.0,0.0,0.0,0.0,0.0,0.0,0.0,0.0,0.0,0.0,0.0,0.0,0.0,0.0,0.0,0.0,0.0,0.0,0.0,0.0,0.0,0.0,0.0,0.0,0.0,0.0,0.0,0.0,0.0,0.0,0.0,0.0,0.0,0.0,0.0,0.0,0.0,0.0,0.0,4.2015,4.2936,0.0,0.0,0.0,0.0,0.0,0.0,0.0,0.0,0.0,0.0,0.0,0.0,0.0,4.9853,5.0558,5.069,5.0752,5.0752,5.0933,5.1027,5.1027,5.1144,5.1202,5.1183,5.0969,0.0,5.0864,5.0867,0.0,0.0,0.0,0.0,0.0,0.0,0.0,0.0,0.0,0.0,0.0,0.0,0.0,0.0,0.0,0.0,0.0,0.0,0.0,0.0,0.0,3.7301,3.7809,3.6813,3.7985,3.8902,3.9253,4.0054,0.0,0.0,0.0,4.427,4.5148,4.5539,4.5734,4.5734,4.4855,4.4689,4.5149,4.4655,4.4686,4.5168,4.5168,4.4621,4.3665,4.3294,0.0,0.0,0.0,0.0,0.0,0.0,0.0,0.0,0.0,0.0,0.0,0.0,0.0,0.0,0.0,0.0,0.0,0.0,0.0,0.0,0.0,0.0,0.0,0.0,0.0,0.0,0.0,0.0,0.0,0.0,0.0,0.0,0.0,0.0,0.0,0.0,0.0,0.0,0.0,4.1474,4.2305,4.3095,4.4032,4.4916,0.0,0.0,0.0,0.0,0.0,0.0,0.0,0.0,0.0,5.036,5.0859,5.127,5.1621,5.2167,5.2468,5.2516,5.257,5.2608,5.2601,5.2601,5.2601,5.2601,5.2601,5.2601,5.2562,5.2133,5.2221,5.2679,0.0,0.0,0.0,0.0,5.2753,5.2765,0.0,0.0,0.0,0.0,0.0,0.0,0.0,0.0,0.0,0.0,0.0,0.0,3.6404,3.8277,3.9058,3.775,3.9019,3.9956,4.0112,4.1166,4.2435,4.3977,4.4875,4.5636,4.628,4.63,4.63,4.63,4.5656,4.5662,4.628,4.5648,4.5679,4.63,4.63,4.5578,4.4348,4.4133,4.4036,4.3938,0.0,0.0,0.0,0.0,0.0,0.0,0.0,0.0,0.0,0.0,0.0,0.0,0.0,0.0,0.0,0.0,0.0,0.0,0.0,0.0,0.0,0.0,0.0,0.0,0.0,0.0,0.0,0.0,0.0,0.0,0.0,0.0,0.0,0.0,0.0,0.0,0.0,4.1983,4.2885,4.3463,4.4534,4.5476,0.0,0.0,0.0,0.0,0.0,0.0,4.9997,5.084,5.1285,5.1235,5.2086,5.2531,5.2531,5.3182,5.3538,5.3601,5.3682,5.3702,5.3689,5.3689,5.3689,5.3689,5.3689,5.3941,5.4284,5.323,5.3194,5.3788,5.3847,5.3837,5.3808,5.3866,5.3875,5.3875,0.0,0.0,0.0,0.0,0.0,0.0,0.0,0.0,0.0,0.0,0.0,3.7282,3.7243,3.8082,3.8629,3.8548,3.9312,4.0151,4.0987,4.263,4.3977,4.4894,4.5773,4.6261,4.63,4.63,4.63,4.63,4.6261,4.6267,4.6295,4.6261,4.6256,4.63,4.63,4.6241,4.6124,4.5285,4.4933,4.4797,4.3079,0.0,0.0,0.0,0.0,0.0,0.0,0.0,0.0,0.0,0.0,0.0,0.0,0.0,0.0,0.0,0.0,0.0,0.0,0.0,0.0,0.0,0.0,0.0,0.0,0.0,0.0,0.0,0.0,0.0,0.0,0.0,0.0,0.0,0.0,0.0,0.0,0.0,0.0,4.4443,4.594,0.0,0.0,0.0,0.0,4.9513,4.9649,5.0035,5.0809,5.166,5.2124,5.2124,5.2975,5.342,5.342,5.3472,5.3538,5.3601,5.3682,5.3702,5.3689,5.3689,5.3689,5.3689,5.3689,5.464,5.6039,5.4342,5.3693,5.3794,5.3794,5.3797,5.3788,5.3798,5.3808,5.3798,0.0,0.0,0.0,0.0,0.0,0.0,0.0,0.0,3.6004,3.6004,3.6277,3.6687,3.7237,3.8548,3.937,3.937,4.1166,4.2435,4.2747,4.3879,4.4933,4.5792,4.6624,4.7069,4.7069,4.7116,4.6866,4.63,4.6866,4.7139,4.7146,4.7673,4.7907,4.7881,4.7373,4.7139,4.7081,4.6202,4.5831,4.5734,4.4543,4.3743,0.0,0.0,0.0,0.0,0.0,0.0,0.0,0.0,0.0,0.0,0.0,0.0,0.0,0.0,0.0,0.0,0.0,0.0,0.0,0.0,0.0,0.0,0.0,0.0,0.0,0.0,0.0,0.0,0.0,0.0,0.0,0.0,0.0,0.0,0.0,0.0,0.0,4.5293,4.6385,0.0,4.782,4.8705,4.9378,4.9687,5.019,5.0848,5.1679,5.2028,5.2453,5.3014,5.3884,5.4329,5.4329,5.4901,5.5203,5.5288,5.5874,5.6168,5.6233,5.6758,5.6971,5.6971,5.6971,5.7321,5.7865,5.7243,5.7036,5.708,5.7084,5.7075,5.7075,5.7075,5.7086,5.7078,0.0,0.0,0.0,0.0,0.0,0.0,0.0,0.0,3.6001,3.6004,3.6489,3.7074,3.7666,3.9231,4.0366,4.0659,4.2259,4.3391,4.3684,4.4524,4.5379,4.6238,4.7338,4.7942,4.7947,4.7975,4.7725,4.7139,4.7725,4.7998,4.8017,4.8545,4.8798,4.8779,4.8232,4.7842,4.7569,4.6983,4.6573,4.6222,4.5343,4.4641,4.4016,0.0,0.0,0.0,0.0,0.0,0.0,0.0,0.0,0.0,0.0,0.0,0.0,0.0,0.0,0.0,0.0,0.0,0.0,0.0,0.0,0.0,0.0,0.0,0.0,0.0,0.0,0.0,0.0,0.0,0.0,0.0,0.0,0.0,0.0,4.4863,4.5752,4.6534,4.7414,4.8149,4.8678,4.956,5.0229,5.0519,5.1041,5.1718,5.2589,5.2917,5.334,5.392,5.4771,5.5252,5.5269,5.6101,5.6559,5.6625,5.7489,5.7926,5.8026,5.8564,5.8797,5.8797,5.8797,5.8972,5.9244,5.9244,5.9445,5.9685,5.9094,5.8861,5.8861,5.8892,5.8904,5.8896,0.0,0.0,0.0,0.0,0.0,0.0,0.0,3.6554,3.6001,3.6049,3.7448,3.8502,3.8629,4.0112,4.1439,4.2318,4.2454,4.2845,4.3684,4.4582,4.5453,4.6279,4.7938,4.884,4.8837,4.8837,4.8837,4.8798,4.8837,4.8837,4.8837,4.8876,4.8876,4.8876,4.8857,4.8408,4.7686,4.7647,4.7159,4.63,4.5402,4.5012,4.4816,0.0,0.0,0.0,0.0,0.0,0.0,0.0,0.0,0.0,0.0,0.0,0.0,0.0,0.0,0.0,0.0,0.0,0.0,0.0,0.0,0.0,0.0,0.0,0.0,0.0,0.0,0.0,0.0,0.0,0.0,0.0,0.0,0.0,4.5838,4.6588,4.7426,4.8234,4.9084,4.9605,4.9644,5.043,5.1293,5.2144,5.2221,5.2627,5.3536,5.4349,5.481,5.4878,5.5711,5.6172,5.6238,5.7044,5.7431,5.7459,5.8331,5.8789,5.8838,5.8881,5.8875,5.8875,5.8875,5.936,6.0137,6.0137,6.065,6.124,5.9529,5.8875,5.8875,5.8965,5.899,5.8993,0.0,0.0,0.0,0.0,0.0,0.0,0.0,3.6567,3.6228,3.6863,3.7304,3.8046,3.9322,4.0441,4.1439,4.2318,4.3567,4.4387,4.4621,4.6,4.7474,4.8962,4.9499,4.9738,4.9742,4.9731,4.9423,4.8798,4.9423,4.9735,4.9755,5.0399,5.0692,5.0653,5.0028,4.9618,4.9364,4.874,4.833,4.7998,4.6534,4.5558,4.4953,0.0,0.0,0.0,0.0,0.0,0.0,0.0,0.0,0.0,0.0,0.0,0.0,0.0,0.0,0.0,0.0,0.0,0.0,0.0,0.0,0.0,0.0,0.0,0.0,0.0,0.0,0.0,0.0,0.0,0.0,0.0,4.6186,4.6746,4.6742,4.7449,4.8282,4.9073,4.9415,4.9856,5.0474,5.1335,5.1931,5.2182,5.2833,5.382,5.5238,5.5001,5.5349,5.6571,5.6861,5.6994,5.7063,5.7912,5.837,5.8435,5.9299,5.9721,5.9754,6.0395,6.0701,6.0701,6.0701,6.0817,6.105,6.105,6.1181,6.1357,6.0858,6.0715,6.076,6.0791,6.0791,6.0783,0.0,0.0,0.0,0.0,0.0,0.0,0.0,3.6563,3.6302,3.7194,3.7558,3.8276,3.9657,4.089,4.2006,4.2864,4.4192,4.5301,4.6,4.764,4.904,5.0059,5.045,5.063,5.0644,5.0649,5.0399,4.9891,5.077,5.1,5.0664,5.1542,5.1757,5.1386,5.0859,5.0434,5.0067,4.956,4.913,4.8701,4.7744,4.6823,4.5961,4.5277,4.4669,4.4099,4.3222,4.2875,4.2766,4.2266,0.0,0.0,0.0,0.0,0.0,0.0,0.0,0.0,0.0,0.0,0.0,0.0,0.0,0.0,0.0,0.0,0.0,0.0,0.0,0.0,0.0,0.0,0.0,0.0,4.7008,4.7687,4.8053,4.8519,4.9099,4.9909,5.0385,5.0863,5.1365,5.2227,5.2895,5.3259,5.4142,5.5072,5.6024,5.6308,5.673,5.7353,5.7741,5.7951,5.7978,5.8851,5.9468,5.9866,6.073,6.1332,6.1701,6.1871,6.1944,6.1924,6.1555,6.14,6.14,6.14,6.1428,6.144,0.0,0.0,0.0,0.0,6.1495,6.1495,0.0,0.0,0.0,0.0,0.0,0.0,0.0,3.6508,3.6345,3.7318,3.8069,3.8865,3.9836,4.1498,4.2864,4.3626,4.468,4.6,4.7684,4.9237,5.0134,5.024,5.099,5.1405,5.1394,5.1394,5.1394,5.1394,5.2175,5.2171,5.1416,5.2196,5.2138,5.1396,5.1396,5.1035,5.0399,5.0399,4.995,4.9228,4.913,4.8521,4.7474,4.5894,4.5241,4.5075,4.4103,4.3746,4.3721,4.363,0.0,0.0,0.0,0.0,0.0,0.0,0.0,0.0,0.0,0.0,0.0,0.0,0.0,0.0,0.0,0.0,0.0,0.0,0.0,0.0,0.0,0.0,0.0,0.0,4.781,4.8621,4.9373,4.9643,5.0028,5.074,5.1586,5.2124,5.222,5.308,5.3959,5.4742,5.5707,5.6323,5.647,5.7885,0.0,0.0,0.0,5.8988,5.9075,6.0036,6.0895,6.1613,6.2482,6.3259,6.3883,6.3172,6.2857,6.2798,6.2041,6.1691,6.1691,6.1691,6.1732,6.1776,6.1615,6.1654,6.1795,6.1776,6.1779,6.1771,0.0,0.0,0.0,0.0,0.0,0.0,0.0,3.6102,3.6567,3.8141,3.8443,3.9103,4.0678,4.2396,4.3528,4.3684,4.5726,4.7757,4.9484,4.9907,5.0401,5.1127,5.1316,5.1405,5.1394,5.1394,5.139,5.1401,5.1577,5.1572,5.14,5.1576,5.1562,5.1391,5.1396,5.1698,5.2195,5.2195,5.2097,5.1882,5.118,4.995,4.8443,4.742,4.7049,4.6854,4.5226,4.4643,4.454,4.3844,4.3455,4.3275,4.3322,4.3199,0.0,0.0,0.0,0.0,0.0,0.0,0.0,0.0,0.0,0.0,0.0,0.0,0.0,0.0,0.0,0.0,0.0,0.0,0.0,4.7945,4.8698,4.9296,4.9394,5.0587,5.1491,5.1645,5.1876,5.2299,5.2992,5.3914,5.4564,5.4781,5.6246,5.7459,5.8176,5.8575,5.9017,5.9491,5.9685,6.0108,6.0813,6.237,6.3278,6.3483,6.4299,0.0,6.3969,6.3828,6.375,6.3731,6.3575,6.3498,6.3498,6.3498,6.354,6.3527,6.2811,6.2966,6.3601,6.3539,6.3507,6.3507,0.0,0.0,0.0,0.0,0.0,0.0,0.0,3.6004,3.6629,3.8375,3.8544,3.9165,4.0912,4.2279,4.3235,4.3665,4.6421,4.8508,4.9393,5.0231,5.092,5.1375,5.1394,5.1405,5.1394,5.1394,5.141,5.1396,5.1845,5.203,5.2006,5.2441,5.2648,5.2648,5.2684,5.2947,5.3346,5.3346,5.3346,5.3268,5.239,5.1531,5.0516,4.8337,4.7513,4.7372,4.602,4.5553,4.5488,4.5044,4.4576,4.4151,4.418,4.386,4.3451,0.0,0.0,0.0,0.0,0.0,0.0,0.0,0.0,0.0,0.0,0.0,0.0,0.0,0.0,4.7127,4.7518,0.0,4.8552,4.9314,4.9815,5.0374,5.1183,5.2029,5.2395,5.2011,5.2743,5.3475,5.3954,5.5243,5.6048,5.6046,5.7734,5.875,5.87,6.0002,6.0541,6.0049,6.1291,6.1947,6.1943,6.3243,6.4132,6.4605,6.5013,6.5226,6.5246,6.4799,6.4605,6.4586,6.4178,6.4003,6.4003,6.3998,6.4273,6.4655,6.4227,6.4064,6.4087,6.402,6.4008,6.3995,0.0,0.0,0.0,0.0,0.0,0.0,0.0,3.6007,3.6629,3.8375,3.8544,3.9188,4.0912,4.1888,4.2884,4.4071,4.7016,4.8872,4.9048,5.0458,5.1316,5.1388,5.1394,5.1405,5.139,5.139,5.1406,5.1396,5.2094,5.2408,5.2375,5.3234,5.3657,5.3676,5.3908,5.4099,5.4244,5.4244,5.4244,5.4186,5.3307,5.2858,5.2351,4.92,4.8016,4.7883,4.7028,4.658,4.6422,4.6427,4.583,4.5045,4.5045,4.453,4.3926,4.3906,4.3893,0.0,0.0,0.0,0.0,0.0,0.0,0.0,0.0,4.47,4.5379,4.6053,4.6863,4.7651,4.8328,4.8786,4.9461,5.0758,5.1105,5.1703,5.3051,5.3532,5.3436,5.2608,5.3745,5.4805,5.5381,5.6592,5.74,5.7538,5.911,5.9817,5.9226,6.1399,6.2109,6.0876,6.2836,6.3666,6.3103,6.3977,6.4769,6.546,6.5615,6.5984,6.6489,6.577,6.546,6.5421,6.476,6.4488,6.4488,6.4478,6.4908,6.5557,6.5537,6.5136,6.4582,6.452,6.4492,6.4492,0.0,0.0,0.0,0.0,0.0,0.0,0.0,0.0,3.6635,3.8375,3.859,3.9234,4.0912,4.1888,4.3349,4.5718,4.7694,4.9126,4.9907,5.0801,5.1289,5.1317,5.1369,5.14,5.1401,5.1401,5.1391,5.1394,5.144,5.1447,5.1456,5.2336,5.2786,5.2863,5.3654,5.4431,5.5142,5.5142,5.5142,5.5083,5.4205,5.3385,5.2487,5.0551,4.9805,4.9694,4.8827,4.7976,4.7264,4.7276,4.6686,4.594,4.594,4.5881,4.5794,4.5735,4.5662,4.5614,4.5614,4.6125,4.667,4.667,4.7236,4.7796,0.0,4.7844,4.7955,4.8002,4.8732,4.9405,4.9451,5.067,5.1732,5.1911,5.2587,5.3165,5.3358,5.467,5.5306,5.4474,5.4477,5.5461,5.7834,5.7563,5.7561,5.8385,5.937,6.0237,6.0971,6.2024,6.2874,6.3456,6.3798,6.4294,6.4901,6.5755,6.6256,6.6353,6.713,6.7149,6.6508,6.6392,6.6353,6.6353,6.6256,6.6217,6.6217,6.6217,6.6305,6.645,6.6388,6.6344,6.6309,6.6252,6.6217,6.6217,0.0,0.0,0.0,0.0,0.0,0.0,0.0,0.0,0.0,3.8375,3.859,3.9234,4.0912,4.2337,4.3587,4.4653,4.6762,4.8404,4.9295,5.0107,5.0789,5.1323,5.1388,5.14,5.1396,5.1396,5.1386,5.1343,5.1317,5.1557,5.208,5.2467,5.3182,5.4164,5.4582,5.5235,5.6059,5.6059,5.6059,5.5981,5.5103,5.422,5.3318,5.2089,5.1274,5.0628,4.9276,4.8516,0.0,4.7576,4.7162,4.6765,4.626,4.6416,4.6784,4.6721,4.7042,4.7397,4.7365,4.7608,4.785,4.785,4.8106,4.8342,4.8361,4.8346,4.8485,4.8968,4.9776,5.0529,5.0957,5.2056,5.3078,5.3548,5.434,5.5074,5.5557,5.6618,5.7429,5.7641,5.7159,5.7062,5.7736,5.8391,5.9106,5.992,6.0898,6.184,6.2641,6.3596,6.405,6.3903,6.487,6.5332,6.5196,6.6031,6.6458,6.6508,6.6878,6.6858,6.6508,6.6508,6.6508,6.6508,6.6508,6.6508,6.6508,6.6508,6.6538,6.6586,6.6524,6.6538,6.6586,6.6524,6.6508,6.6508,0.0,0.0,0.0,0.0,0.0,0.0,0.0,0.0,0.0,0.0,3.8609,3.9234,4.0912,4.2435,4.3548,4.4016,4.5948,4.7727,4.9073,4.9685,5.0419,5.1323,5.1369,5.1375,5.1366,5.1366,5.1355,5.1291,5.131,5.1627,5.2255,5.2552,5.3462,5.4846,5.5153,5.5767,5.6563,5.6582,5.6582,5.6504,5.5626,5.4762,5.3894,5.3011,5.2096,5.1141,4.9939,4.9296,4.8966,4.8335,4.794,4.7621,4.7009,4.7193,4.7648,4.7602,4.8005,4.8454,4.8406,4.8585,4.8759,4.8759,4.8899,4.9038,4.9073,4.9042,4.9261,5.0143,5.0819,5.1438,5.2017,5.3075,5.3964,5.4297,5.5495,5.6559,5.7159,5.8143,5.8974,5.9418,5.9321,5.8992,5.841,5.9491,6.0574,6.135,6.2368,6.3255,6.4018,6.4779,6.5021,6.4605,6.5785,6.6151,6.5549,6.6131,6.6574,6.6858,6.6858,6.6975,6.7227,6.7227,6.7227,6.7227,6.7227,6.7072,6.6858,6.6858,6.6757,6.6572,6.6524,6.6524,6.6572,6.6524,6.6508,6.6508,0.0,0.0,0.0,0.0,0.0,0.0,0.0,0.0,0.0,0.0,0.0,0.0,0.0,4.1908,4.3118,4.4816,4.5728,4.7337,4.9892,5.0017,5.0385,5.1261,5.1303,5.1291,5.1297,5.1297,5.1291,5.1291,5.1289,5.13,5.1359,5.2279,5.313,5.3969,5.4899,5.5743,5.6509,5.6563,5.6558,5.643,5.5552,5.4713,5.3894,5.296,5.2064,5.1291,5.1232,5.0677,4.9955,4.9943,4.9332,4.8564,4.8613,4.8584,4.8554,4.8572,4.847,4.8396,4.8406,4.903,4.9668,4.9668,5.0248,5.0828,5.0828,5.0813,5.108,5.1931,5.2144,5.2163,5.2182,5.3594,5.4484,5.3672,5.5625,5.7271,5.729,5.8778,5.9551,5.872,6.0054,6.1021,6.0983,6.1021,6.1446,6.2391,6.3263,6.4095,6.4909,6.5095,6.5555,6.6316,6.6442,6.6489,6.647,6.6489,6.6916,6.7752,6.7752,6.8198,6.9014,6.9014,6.9014,6.9014,6.9014,6.8548,6.7752,6.7752,6.7266,6.6508,6.6508,6.6508,6.6508,6.6508,6.6508,6.6508,0.0,0.0,0.0,0.0,0.0,0.0,0.0,0.0,0.0,0.0,0.0,0.0,0.0,0.0,0.0,0.0,4.4875,4.6206,4.8234,4.8906,4.9593,5.0458,5.1018,5.1317,5.1369,5.1317,5.1291,5.1291,5.1289,5.13,5.13,5.1622,5.2539,5.391,5.4234,5.5157,5.6509,5.6514,5.6514,5.647,5.6177,5.5547,5.4697,5.3793,5.2922,5.209,0.0,5.1106,5.0772,5.0196,4.9789,4.9421,4.8808,4.9022,4.9681,5.079,5.105,5.099,5.0995,5.0807,5.0768,5.1281,5.1629,5.1962,5.2492,5.2627,5.2531,5.226,5.2647,5.3053,5.3053,5.4445,5.5683,5.5973,5.7714,5.9029,5.9029,5.9996,6.0596,6.0286,6.1273,6.1969,6.1969,6.1969,6.2569,6.4039,6.4425,6.4967,6.5819,6.595,6.6123,6.6376,6.6935,6.726,6.7296,6.7859,6.8322,6.8665,6.8665,6.882,6.9111,6.9111,6.9111,6.9111,6.9111,6.8937,6.8665,6.8665,6.849,6.8237,6.8237,6.8233,6.8244,6.8233,6.8233,6.8069,0.0,0.0,0.0,0.0,0.0,0.0,0.0,0.0,0.0,0.0,0.0,0.0,0.0,0.0,0.0,0.0,0.0,4.547,4.7805,4.8211,4.8723,4.96,5.0433,5.0881,5.0908,5.118,5.1317,5.1303,5.1296,5.1308,5.13,5.1303,5.2084,5.3481,5.3774,5.4697,5.6029,5.6035,5.6035,5.601,5.5697,5.5054,5.4261,5.3988,5.3136,0.0,5.1834,5.1537,5.1239,5.0986,5.088,5.0772,5.0178,5.0362,5.1011,5.2078,5.2349,5.2302,5.2302,5.192,5.1576,5.1794,5.2302,5.2775,5.2975,5.3285,5.342,5.3152,5.3558,5.3962,5.3962,5.5335,5.6553,5.6805,5.8565,5.9899,5.9899,6.0867,6.1563,6.1563,6.2336,6.2994,6.3304,6.3323,6.3787,6.4929,6.5277,6.5702,6.6264,6.6649,6.6842,6.6824,6.7636,6.81,6.8153,6.8715,6.9179,6.9539,6.9849,6.9985,6.9985,6.9985,6.9985,6.9985,6.9985,6.983,6.9554,6.9554,6.9395,6.9138,6.9138,6.9119,6.9094,6.9104,6.9104,6.8929,0.0,0.0,0.0,0.0,0.0,0.0,0.0,0.0,0.0,0.0,0.0,0.0,0.0,0.0,0.0,0.0,0.0,0.0,4.8391,4.7905,4.7873,4.869,4.9562,5.001,5.0014,5.0888,5.1317,5.13,5.1303,5.1303,5.13,5.1303,5.1811,5.2726,5.3481,5.4339,5.5198,5.5157,5.5151,5.512,5.4242,5.3442,5.2831,5.3494,5.2784,5.1526,5.2203,5.195,5.1444,5.2242,5.2491,5.2465,5.25,5.2488,5.2465,5.2408,5.2349,5.2316,5.2316,5.2293,5.2124,5.1397,5.2419,5.3362,5.2589,5.3033,5.3829,5.4568,5.4798,5.4871,5.4851,5.6225,5.7114,5.6341,5.8314,5.9977,6.0016,6.1408,6.2433,6.2472,6.3245,6.4077,6.4909,6.5044,6.5045,6.5063,6.5838,6.6303,6.6361,6.7154,6.7619,6.7658,6.8491,6.8992,6.9047,6.9123,6.9548,7.0374,7.119,7.1598,7.1598,7.1598,7.1598,7.1598,7.1598,7.1183,7.0475,7.0455,7.0003,6.9325,6.9325,6.9278,6.923,6.923,6.922,6.9228,0.0,0.0,0.0,0.0,0.0,0.0,0.0,0.0,0.0,0.0,0.0,0.0,0.0,0.0,0.0,0.0,0.0,0.0,4.5796,4.6891,4.76,4.7813,4.8677,4.9425,5.0056,5.0316,5.0732,5.1362,5.1317,5.1291,5.1303,5.1296,5.1798,5.2701,5.287,5.3786,5.5159,5.4501,5.4612,5.5119,5.4255,5.3787,5.354,5.3077,5.3042,5.3093,5.201,5.2269,5.3068,5.2638,5.2889,5.3261,5.2613,5.2865,5.3242,5.2589,5.2394,5.2363,5.2363,5.2376,5.2485,5.2925,5.3761,5.4591,5.5017,5.5238,5.5244,5.4873,5.5262,5.5689,5.5685,5.7095,5.841,5.8836,5.9977,6.1021,6.1679,6.2124,6.2646,6.3284,6.4135,6.4754,6.4967,6.5528,6.5876,6.5896,6.6089,6.6515,6.7153,6.7406,6.7832,6.8469,6.9302,6.9749,6.9828,7.0562,7.1042,7.1267,7.1481,7.1598,7.1598,7.1598,7.1633,7.1665,7.1614,7.1513,7.1369,7.1319,7.1183,7.0989,7.0989,7.1004,7.1038,7.0989,7.0989,7.1043,0.0,0.0,0.0,0.0,0.0,0.0,0.0,0.0,0.0,0.0,0.0,0.0,0.0,0.0,0.0,0.0,0.0,0.0,0.0,4.583,4.6534,4.6911,4.7768,4.8451,4.8957,4.9712,5.0323,5.0784,5.1135,5.131,5.1296,5.1308,5.1569,5.211,5.2453,5.3357,5.4573,5.3721,5.3852,0.0,0.0,5.2792,5.2733,5.2606,5.2881,5.3251,5.2591,5.3195,5.4261,5.3751,5.3895,5.4194,5.3708,5.3883,5.4174,5.3689,5.3533,5.3533,5.3533,5.3527,5.3521,5.3683,5.456,5.5436,5.5498,5.6104,5.6362,5.5476,5.5979,5.6557,5.6518,5.7657,5.8874,5.9726,6.0558,6.1389,6.224,6.2704,6.3284,6.4155,6.5006,6.5528,6.5528,6.5934,6.6205,6.6205,6.6553,6.6978,6.7481,6.8218,6.8837,6.9319,7.0152,7.0639,7.0719,7.1299,7.1605,7.1598,7.1598,7.1598,7.1598,7.1598,7.1614,7.1649,7.1614,7.1649,7.1699,7.1649,7.1645,7.1641,7.1641,7.168,7.1699,7.1649,7.1665,7.1699,0.0,0.0,0.0,0.0,0.0,0.0,0.0,0.0,0.0,0.0,0.0,0.0,0.0,0.0,0.0,0.0,0.0,0.0,0.0,0.0,4.5069,4.5813,4.669,4.721,4.7326,4.8919,4.9835,5.0014,5.0757,5.1206,5.13,5.13,5.1296,5.133,5.209,5.2922,5.3676,5.2874,5.2986,5.3598,5.2038,5.1362,5.1381,0.0,5.2436,5.2709,5.3569,5.4349,5.5009,5.5126,5.5165,5.5145,5.5048,5.5009,5.4951,5.4718,5.4737,5.4796,5.4699,5.477,5.4724,5.4026,5.5021,5.5971,5.5165,5.614,5.6977,5.6097,5.6636,5.7309,5.737,5.816,5.903,5.9843,6.0597,6.1408,6.2335,6.3167,6.4058,6.5044,6.5779,6.6205,6.6205,6.6185,6.6205,6.6205,6.6998,6.7559,6.7675,6.9226,7.0136,7.0191,7.0988,7.1416,7.1494,7.1551,7.1586,7.1598,7.1598,7.1598,7.1598,7.1598,7.1598,7.1614,7.1598,7.1649,7.1699,7.1699,7.1695,7.1685,7.1685,7.1675,7.1699,7.1699,7.1699,7.1699,0.0,0.0,0.0,0.0,0.0,0.0,0.0,0.0,0.0,0.0,3.8665,3.9328,0.0,0.0,0.0,0.0,0.0,0.0,0.0,0.0,0.0,4.4058,4.4884,4.5696,4.641,4.7424,4.8639,5.0075,5.0231,5.0641,5.131,5.131,5.131,5.131,5.1466,5.2019,5.276,5.1971,5.2083,5.274,5.1778,5.1362,5.133,5.1456,0.0,0.0,5.4237,5.4866,5.5104,5.5838,5.6078,5.5942,5.5223,5.5009,5.4718,5.3261,5.3358,5.3766,5.3048,5.3858,5.4879,5.4724,5.5404,5.6059,5.5904,5.607,5.6191,5.6016,5.6654,5.7447,5.8218,5.9087,5.992,6.0674,6.0925,6.1582,6.3146,6.3494,6.4211,6.5799,6.6127,6.6184,6.6123,6.6184,6.6184,6.6123,6.6996,6.781,6.8545,6.9555,7.0427,7.1123,7.1257,7.1375,7.1494,7.1514,7.155,7.1598,7.1598,7.1598,7.1598,7.1598,7.1633,7.1684,7.1614,7.1649,7.1699,7.1649,7.1614,7.1614,7.1614,7.1614,7.1614,7.1614,7.1614,7.1614,0.0,0.0,0.0,0.0,0.0,0.0,0.0,3.5991,3.6638,3.8375,3.857,3.9195,4.0912,4.1101,4.1097,0.0,0.0,0.0,0.0,0.0,0.0,0.0,4.4423,4.5092,4.5514,4.6826,4.7905,4.8743,0.0,4.9848,5.0667,5.0641,5.0874,5.1291,5.1291,5.1778,5.2538,5.1745,5.1862,5.2519,5.1694,5.133,5.1296,0.0,0.0,0.0,5.456,5.531,5.58,5.6181,5.6304,5.6239,5.5806,5.5689,5.5514,5.466,5.4718,5.4951,5.4543,5.5314,5.6257,5.6257,5.6524,5.6772,5.6776,5.6762,5.6575,5.6093,5.6673,5.7369,5.7794,5.8237,5.8953,6.0191,6.0403,6.1177,6.3301,6.363,6.4289,6.6011,6.6205,6.6165,6.6102,6.6123,6.6123,6.6102,6.6935,6.7866,6.8799,7.0118,7.101,7.1436,7.1416,7.1416,7.1494,7.1533,7.1568,7.1598,7.1598,7.1598,7.1598,7.1598,7.1614,7.1649,7.1614,7.1614,7.1649,7.1614,7.1598,7.1598,7.1598,7.1598,7.1598,7.1598,7.1614,7.1649,0.0,0.0,0.0,0.0,0.0,0.0,0.0,3.5991,3.6638,3.8375,3.8609,3.9234,4.0912,4.1101,4.1101,0.0,0.0,0.0,0.0,0.0,0.0,0.0,0.0,0.0,4.4618,0.0,0.0,4.7508,4.819,0.0,0.0,0.0,0.0,0.0,5.1239,5.1609,5.2012,5.1388,5.1486,0.0,0.0,5.1147,5.1308,0.0,0.0,0.0,0.0,5.5061,5.583,5.5785,5.587,5.603,5.6013,5.6155,5.6253,5.6078,5.6155,5.6291,5.6278,5.6873,5.7543,5.7703,5.7556,5.7408,5.7379,5.7224,5.6897,5.6133,5.6538,5.7116,5.7446,5.7406,5.7909,5.9766,5.9959,6.0751,6.3243,6.3651,6.4289,6.5972,6.6184,6.6144,6.6099,6.608,6.608,6.6077,6.7087,6.8137,6.9091,7.0622,7.1475,7.1494,7.1494,7.1514,7.1533,7.1569,7.1605,7.1598,7.1598,7.1598,7.1598,7.1598,7.1598,7.1598,7.1598,7.1598,7.1598,7.1598,7.1598,7.1598,7.1598,7.1598,7.1598,7.1598,7.1614,7.1684,0.0,0.0,0.0,0.0,0.0,0.0,0.0,3.5991,3.6638,3.8375,3.8593,3.9234,4.0912,4.1108,4.1108,0.0,0.0,0.0,0.0,0.0,0.0,0.0,0.0,0.0,0.0,0.0,0.0,4.7509,4.7587,0.0,0.0,0.0,0.0,0.0,0.0,5.0992,5.0316,5.0249,0.0,0.0,0.0,0.0,0.0,0.0,0.0,0.0,0.0,5.3282,5.4041,5.4027,5.4533,5.5116,5.5119,5.565,5.6136,5.5359,5.5689,5.6291,5.6232,5.6839,5.7644,5.8338,5.7937,5.7379,5.7325,5.6708,5.6109,5.6014,5.607,5.6611,5.8178,5.783,5.8102,6.048,6.0268,6.0693,6.3243,6.361,6.4228,6.5908,6.6102,6.6077,6.6001,6.6009,6.6009,6.6001,6.7666,6.9049,6.9943,7.0892,7.1435,7.1494,7.1494,7.1533,7.1589,7.1607,7.1605,7.1598,7.1598,7.1598,7.1598,7.1598,7.1598,7.1598,7.1598,7.1598,7.1598,7.1598,7.1598,7.1598,7.1598,7.1598,7.1598,7.1598,7.1598,7.1614,0.0,0.0,0.0,0.0,0.0,0.0,3.6696,3.6774,3.7399,3.9097,3.9312,3.978,4.0971,4.1104,4.1101,4.1108,0.0,0.0,0.0,0.0,0.0,0.0,0.0,0.0,0.0,0.0,4.4709,4.5936,4.5936,0.0,0.0,0.0,0.0,0.0,0.0,4.9919,5.0063,4.9529,0.0,0.0,0.0,0.0,0.0,0.0,0.0,0.0,0.0,0.0,5.3847,5.3816,5.4019,5.4283,5.4225,5.4815,5.5553,5.5728,5.6019,5.6408,5.6919,5.7649,5.8474,5.9246,5.8806,5.8153,5.8099,5.6998,5.6012,5.6012,5.6012,5.6379,5.7598,5.754,5.7967,6.0016,6.0074,6.0751,6.3303,6.3671,6.4289,6.5951,6.6123,6.6058,6.6009,6.6005,6.6217,6.6742,6.8055,6.9166,6.9999,7.0951,7.1475,7.1494,7.1533,7.1569,7.1607,7.1603,7.16,7.1598,7.1598,7.1598,7.1598,7.1598,7.1598,7.1598,7.1598,7.1598,7.1598,7.1598,7.1598,7.1598,7.1598,7.1598,7.1598,7.1598,7.1598,7.1598,0.0,0.0,0.0,0.0,0.0,3.6677,3.7555,3.7672,3.8199,3.9605,3.98,4.0132,4.0991,4.1101,4.1097,4.1104,4.1101,0.0,0.0,0.0,0.0,0.0,0.0,0.0,0.0,0.0,4.3785,4.491,4.4904,4.5676,0.0,0.0,4.8164,4.9313,0.0,0.0,0.0,0.0,0.0,0.0,0.0,0.0,0.0,0.0,0.0,0.0,0.0,0.0,0.0,0.0,0.0,5.3408,5.3343,5.3902,5.4737,5.534,5.5903,5.6486,5.7346,5.8168,5.9056,6.0131,5.954,5.8693,5.8639,5.7287,5.6012,5.6012,5.6012,5.6341,5.7499,5.7482,5.7965,5.9956,6.0072,6.0789,6.3342,6.369,6.4309,6.5951,6.6102,6.6036,6.5986,6.6001,6.6371,6.7251,6.8229,6.9123,6.9935,7.091,7.1455,7.1494,7.1571,7.1587,7.1605,7.16,7.1598,7.1598,7.1598,7.1598,7.1598,7.1598,7.1598,7.1598,7.1598,7.1598,7.1598,7.1598,7.1598,7.1598,7.1598,7.1598,7.1598,7.1598,7.1598,7.1598,0.0,0.0,0.0,0.0,0.0,0.0,3.8456,3.8593,3.8882,3.9683,3.98,4.0132,4.0991,4.1101,4.1094,4.1094,4.11,0.0,0.0,0.0,0.0,0.0,0.0,0.0,0.0,0.0,4.3222,4.4894,4.4902,4.5376,4.6323,4.7137,4.7507,4.7552,0.0,0.0,0.0,0.0,0.0,0.0,0.0,0.0,0.0,0.0,0.0,0.0,0.0,0.0,0.0,0.0,0.0,0.0,0.0,5.3009,5.3708,5.3708,5.4951,5.6473,5.7266,5.8139,5.9192,6.0868,5.9985,5.8693,5.8693,5.7304,5.6012,5.6012,5.6012,5.6551,5.8363,5.7942,5.8157,6.0747,6.0458,6.0789,6.3342,6.369,6.4269,6.5801,6.6013,6.5967,6.5923,6.5972,6.6371,6.7316,6.8207,6.9038,6.9868,7.0805,7.1375,7.1514,7.1571,7.1605,7.1598,7.1598,7.1598,7.1598,7.1598,7.1598,7.1598,7.1598,7.1598,7.1598,7.1598,7.1598,7.1598,7.1598,7.1598,7.1598,7.1598,7.1598,7.1598,7.1598,7.1598,7.1598,0.0,0.0,0.0,0.0,0.0,0.0,0.0,3.9429,3.9722,4.0581,4.0698,4.0795,4.1069,4.1094,4.1105,4.1094,4.11,0.0,0.0,0.0,0.0,0.0,0.0,0.0,0.0,0.0,4.2066,4.3187,4.3746,4.4473,4.5362,4.622,4.6928,4.7499,4.7211,4.7231,0.0,0.0,0.0,0.0,0.0,0.0,4.8358,0.0,0.0,0.0,0.0,0.0,0.0,0.0,0.0,0.0,0.0,0.0,0.0,5.2989,5.4058,5.5845,5.7851,5.8201,5.8381,6.0065,5.9177,5.7881,5.7818,5.6914,5.6065,5.6012,5.6012,5.6534,5.8312,5.8389,5.8816,6.0808,6.1389,6.2066,6.3438,6.4133,6.4885,6.5878,6.5986,6.5977,6.5897,6.6448,6.7196,6.8092,6.8984,6.988,7.0738,7.1115,7.1354,7.1435,7.1514,7.155,7.1598,7.1598,7.1598,7.1598,7.1598,7.1598,7.1598,7.1598,7.1598,7.1598,7.1598,7.1598,7.1598,7.1598,7.1598,7.1598,7.1598,7.1633,7.1665,7.1614,7.1633,7.1665,0.0,0.0,0.0,0.0,0.0,0.0,0.0,4.0073,4.0483,4.103,4.1104,4.1104,4.1104,4.1105,4.1091,4.11,4.1106,0.0,0.0,0.0,0.0,0.0,0.0,0.0,0.0,4.1109,4.1681,4.2894,4.3376,4.4214,4.5403,4.5947,4.6504,4.7016,4.6489,4.6548,0.0,0.0,0.0,0.0,0.0,0.0,4.756,0.0,0.0,0.0,0.0,0.0,0.0,0.0,0.0,0.0,0.0,0.0,0.0,0.0,5.3914,5.5417,5.734,5.7729,5.7923,5.9279,5.8547,5.7485,5.7412,5.6737,5.6082,5.6046,5.6012,5.6534,5.8308,5.862,5.9163,6.0846,6.1563,6.2298,6.3477,6.4115,6.4848,6.5923,6.6005,6.5977,6.5982,6.6733,6.7625,6.8516,6.9408,7.0281,7.1143,7.1269,7.1354,7.1416,7.1494,7.1568,7.1598,7.1598,7.1598,7.1598,7.1598,7.1598,7.1598,7.1598,7.1598,7.1598,7.1598,7.1598,0.0,7.1598,7.1598,7.1598,7.1598,7.1649,7.1699,7.1649,7.1665,7.1699,0.0,0.0,0.0,0.0,0.0,0.0,0.0,4.0581,4.1108,4.1108,4.1101,4.1094,4.1094,4.1091,4.1075,4.1017,0.0,0.0,0.0,0.0,0.0,0.0,0.0,0.0,4.1108,4.1097,4.1885,4.3514,4.3577,4.4429,4.6027,4.6142,4.6231,4.6284,4.6231,4.6231,0.0,0.0,0.0,0.0,0.0,0.0,0.0,0.0,0.0,0.0,0.0,0.0,0.0,0.0,0.0,0.0,0.0,0.0,0.0,0.0,0.0,0.0,0.0,5.6894,5.7709,5.8503,5.8062,5.7388,5.7331,5.6679,0.0,5.6098,5.6046,5.6568,5.8374,5.8654,5.9163,6.0902,6.1175,6.1776,6.3458,6.3787,6.4405,6.5928,6.6029,6.6005,6.608,6.6865,6.7753,6.8629,6.949,7.0339,7.1143,7.1269,7.1375,7.1494,7.1569,7.1586,7.1598,7.1598,7.1598,7.1598,7.1598,7.1598,7.1598,7.1598,7.1598,7.1598,7.1598,7.1598,7.1598,7.1598,7.1598,7.1598,7.1598,7.1649,7.1699,7.1699,7.1699,7.1699,0.0,0.0,0.0,0.0,0.0,0.0,0.0,0.0,0.0,0.0,4.1094,4.1109,4.11,4.1106,4.0822,0.0,0.0,0.0,0.0,0.0,0.0,0.0,0.0,0.0,4.11,4.1042,4.1245,4.1705,4.2986,4.3818,4.4234,4.5579,4.622,4.6211,4.6215,4.6203,0.0,0.0,0.0,0.0,0.0,0.0,0.0,0.0,0.0,0.0,4.8931,5.0168,0.0,0.0,0.0,0.0,0.0,0.0,0.0,0.0,5.4808,5.6039,5.6233,0.0,5.6816,5.767,5.7197,5.6495,0.0,5.6269,5.6082,5.6029,5.6046,5.6604,5.831,5.8618,5.916,6.0846,6.166,6.2453,6.3476,6.4687,6.5585,6.5997,6.6005,6.6001,6.6013,6.7402,6.8386,6.8621,6.9987,7.0942,7.1269,7.1354,7.1435,7.1569,7.1603,7.16,7.1598,7.1598,7.1598,7.1598,7.1598,7.1598,7.1598,7.1598,7.1598,7.1598,7.1598,7.1598,7.1598,7.1598,7.1598,7.1598,7.1598,7.1645,7.1704,7.1695,7.1695,7.1704,0.0,0.0,0.0,0.0,0.0,0.0,0.0,0.0,0.0,0.0,0.0,0.0,0.0,0.0,0.0,0.0,0.0,0.0,0.0,0.0,0.0,0.0,0.0,4.1056,4.1091,4.1025,4.1234,4.1699,4.2974,4.3806,4.4228,4.5573,4.6195,4.6206,4.6201,4.6203,0.0,0.0,0.0,0.0,4.6209,0.0,0.0,0.0,0.0,0.0,4.8768,4.994,0.0,5.1551,5.2378,5.2942,0.0,0.0,0.0,0.0,5.5255,5.6291,5.6291,5.6291,5.6408,5.6861,5.6581,5.6185,5.6164,5.6133,5.6082,5.6046,5.6046,5.6588,5.8291,5.86,5.9162,6.0828,6.1505,6.2221,6.3457,6.5016,6.6074,6.608,6.6055,6.6229,6.664,6.7872,6.8818,6.9185,7.0373,7.1154,7.1291,7.1313,7.1435,7.1551,7.1568,7.1584,7.1598,7.1598,7.1598,7.1598,7.1598,7.1598,7.1598,7.1598,7.1598,7.1598,7.1598,7.1598,7.1598,7.1598,7.1598,7.1598,7.1598,7.1626,7.1699,7.1695,7.1709,7.1685,0.0,0.0,0.0,0.0,0.0,0.0,0.0,0.0,0.0,0.0,0.0,0.0,0.0,0.0,0.0,0.0,0.0,0.0,0.0,0.0,0.0,0.0,4.1231,4.1231,4.1106,4.1025,4.1389,4.22,4.3143,4.3975,4.4715,4.5729,4.6209,4.6201,4.6343,4.6332,0.0,0.0,0.0,0.0,4.6203,0.0,0.0,0.0,0.0,0.0,0.0,0.0,0.0,5.1785,5.2806,5.3312,5.2697,0.0,0.0,0.0,0.0,0.0,5.6291,5.6291,5.6291,5.6232,5.6199,5.6185,5.613,5.6098,5.6098,5.6082,5.6046,5.6532,5.8269,5.86,5.9163,6.0828,6.1311,6.2008,6.3478,6.51,6.6123,6.6205,6.6144,6.6471,6.7423,6.8251,6.9038,6.9849,7.0672,7.1178,7.1291,7.1332,7.1375,7.1514,7.1494,7.1532,7.16,7.16,7.1598,7.1598,7.1598,7.1598,7.1598,7.1598,7.1598,7.1598,7.1598,7.1598,7.1598,7.1598,7.1598,7.1598,7.1598,7.1626,7.1699,7.1695,7.1709,7.1685,0.0,0.0,0.0,0.0,0.0,0.0,0.0,0.0,0.0,0.0,0.0,0.0,0.0,0.0,0.0,0.0,0.0,0.0,0.0,0.0,0.0,4.1071,4.176,4.1799,4.1117,4.1033,4.1091,4.1305,4.2838,4.3676,4.3838,4.5462,4.6203,4.6229,4.6967,4.6883,4.6196,0.0,0.0,0.0,4.6196,0.0,0.0,0.0,0.0,0.0,0.0,0.0,0.0,5.115,5.1541,5.1687,5.2297,0.0,0.0,0.0,0.0,0.0,5.6291,5.6291,5.6291,5.6291,5.6246,5.6204,5.618,5.6149,5.6082,5.6029,5.6046,5.6604,5.8293,5.86,5.916,6.0828,6.2336,6.3381,6.3652,6.51,6.6123,6.6205,6.6144,6.6471,6.7423,6.8272,6.9123,6.9938,7.0786,7.1291,7.1375,7.1375,7.1416,7.1514,7.1494,7.1533,7.1587,7.1587,7.1603,7.1598,7.1598,7.1598,7.1598,7.1598,7.1598,7.1598,7.1598,7.1598,7.1598,7.1598,7.1598,7.1598,7.1598,7.1626,7.1699,7.1695,7.1709,7.1685,0.0,0.0,0.0,0.0,0.0,0.0,0.0,0.0,0.0,0.0,0.0,0.0,0.0,0.0,0.0,0.0,0.0,0.0,0.0,0.0,4.0746,3.9734,4.1818,4.2409,4.113,4.102,4.102,4.111,4.2773,4.3611,4.3643,4.5391,4.6209,4.6222,4.661,4.6571,4.6196,4.6189,0.0,0.0,0.0,0.0,0.0,0.0,0.0,0.0,0.0,0.0,0.0,0.0,5.1541,5.2037,5.293,0.0,0.0,0.0,0.0,0.0,5.6291,5.6291,5.6291,5.6291,5.6246,5.6199,5.619,5.6145,5.6098,5.6065,5.6046,5.6571,5.8275,5.8602,5.9162,6.0828,6.2549,6.369,6.369,6.5121,6.6184,6.6205,6.6165,6.6706,6.8081,6.8564,6.9338,7.0614,7.1059,7.1313,7.1334,7.1354,7.1354,7.1395,7.1395,7.1455,7.1551,7.1514,7.1512,7.1598,7.1598,7.1598,7.1598,7.1598,7.1598,7.1598,7.1598,7.1598,7.1598,7.1598,7.1598,7.1598,7.1598,7.163,7.1709,7.1699,7.168,7.1626,0.0,0.0,0.0,0.0,0.0,0.0,0.0,0.0,0.0,0.0,0.0,0.0,0.0,0.0,0.0,0.0,0.0,0.0,0.0,0.0,4.15,3.891,4.1877,4.2818,4.111,4.1046,4.1052,4.1097,4.2792,4.3825,4.4247,4.5787,4.6391,4.6203,4.6415,4.6401,4.6189,4.6226,4.6201,0.0,0.0,0.0,0.0,0.0,0.0,0.0,0.0,0.0,0.0,0.0,0.0,0.0,0.0,0.0,0.0,5.6061,5.6309,5.6304,5.6304,5.6304,5.6291,5.6291,5.6259,5.6213,5.6199,5.6156,5.6114,5.6098,5.622,5.6803,5.8331,5.8931,5.9627,6.0886,6.2549,6.369,6.369,6.5141,6.6205,6.6205,6.6205,6.6804,6.8352,6.868,6.9415,7.0885,7.1175,7.1291,7.1291,7.1291,7.1291,7.1291,7.1291,7.1375,7.1494,7.1416,7.1475,7.1598,7.16,7.16,7.1598,7.1598,7.1598,7.1598,7.1598,7.1598,7.1598,7.1598,7.1598,7.1598,7.1598,7.1633,7.1684,7.1699,7.1649,7.1598,0.0,0.0,0.0,0.0,0.0,0.0,0.0,0.0,0.0,0.0,0.0,0.0,0.0,0.0,0.0,0.0,0.0,0.0,0.0,0.0,4.2349,3.9721,4.2181,4.2792,4.1052,4.1056,4.1106,4.1095,4.2841,4.4493,4.602,4.6976,4.6963,4.6242,4.705,4.6957,4.6206,4.6279,4.627,4.6203,0.0,0.0,0.0,0.0,0.0,0.0,0.0,0.0,0.0,0.0,0.0,0.0,0.0,0.0,5.5258,5.6133,5.6345,5.6302,5.6302,5.6297,5.6291,5.6291,5.6291,5.6278,5.6213,5.6199,5.617,5.6114,5.6737,5.7572,5.8518,5.9971,6.1037,6.1079,6.2549,6.369,6.369,6.5141,6.6205,6.6205,6.6205,6.6572,6.7501,6.8332,6.9164,7.0034,7.0827,7.1291,7.1291,7.1291,7.1291,7.1291,7.1291,7.1375,7.1494,7.1416,7.1475,7.1598,7.1586,7.1586,7.1598,7.1598,7.1598,7.1598,7.1598,7.1598,7.1598,7.1598,7.1598,7.1598,7.1598,7.1598,7.1614,7.1684,7.1649,7.1598,0.0,0.0,0.0,0.0,0.0,0.0,0.0,0.0,0.0,0.0,0.0,0.0,0.0,0.0,0.0,0.0,0.0,0.0,0.0,4.2626,4.3202,4.0618,4.249,4.3043,4.1836,4.1299,4.1292,4.1857,4.3584,4.504,4.6215,4.6534,4.6528,4.6203,4.6538,4.6528,4.626,4.6292,4.6264,4.6201,4.6201,0.0,0.0,0.0,0.0,0.0,0.0,0.0,0.0,0.0,5.2164,5.338,5.3711,5.4782,5.5959,5.6299,5.6386,5.6345,5.6309,5.6297,5.6297,5.6304,5.6291,5.6278,5.6232,5.6156,5.613,5.6098,5.6762,5.777,5.92,6.0363,6.1137,6.1099,6.2549,6.369,6.369,6.5121,6.6144,6.6205,6.6144,6.6492,6.7423,6.8294,6.9125,6.9938,7.0808,7.1291,7.1291,7.1291,7.1291,7.1291,7.1291,7.1375,7.1494,7.1395,7.1416,7.1598,7.1605,7.1586,7.1598,7.1598,7.1598,7.1598,7.1598,7.1598,7.1598,7.1598,7.1598,7.1598,7.1598,7.1598,7.1598,7.1633,7.1614,7.1598,0.0,0.0,0.0,0.0,0.0,0.0,0.0,0.0,0.0,0.0,0.0,0.0,0.0,0.0,0.0,0.0,0.0,0.0,4.0626,4.3467,4.4061,4.1488,4.2805,4.3183,4.2291,4.1677,4.1687,4.2299,4.4052,4.5345,4.6209,4.6203,4.619,4.6195,4.6201,4.6231,4.6303,4.6292,4.6269,4.6231,4.6231,4.6376,0.0,0.0,0.0,0.0,0.0,0.0,0.0,0.0,5.263,5.3885,5.4158,5.5249,5.6407,5.6407,5.6386,5.6364,5.6297,5.6297,5.6278,5.6272,5.6265,5.6251,5.617,5.6354,5.6536,5.6504,5.7362,5.8563,6.0016,6.075,6.1117,6.1099,6.2549,6.369,6.369,6.51,6.6123,6.6205,6.6144,6.6355,6.7036,6.8139,6.9028,6.957,7.0653,7.1291,7.1291,7.1291,7.1291,7.1291,7.1291,7.1354,7.1475,7.1375,7.1416,7.16,7.1605,7.1586,7.1598,7.1598,7.1598,7.1598,7.1598,7.1598,7.1598,7.1598,7.1598,7.1598,7.1598,7.1598,7.1598,7.1598,7.1598,7.1598,0.0,0.0,0.0,0.0,0.0,0.0,0.0,0.0,0.0,0.0,0.0,0.0,0.0,0.0,0.0,0.0,0.0,0.0,4.2408,4.4673,4.4937,4.2304,4.3108,4.3166,4.2226,4.2207,4.226,4.2318,4.4052,4.5352,4.6203,4.6209,4.6216,4.6206,4.6209,4.6259,4.6323,4.6323,4.6323,4.6323,4.6323,4.6801,0.0,0.0,0.0,0.0,0.0,0.0,0.0,0.0,5.319,5.4048,5.4924,5.5745,5.6388,5.6388,5.6347,5.6302,5.6302,5.6297,5.6291,5.6232,5.619,5.6184,5.6133,5.6839,5.7489,5.7431,5.8751,6.0147,6.0944,6.1155,6.1192,6.1099,6.2549,6.369,6.369,6.5081,6.6123,6.6205,6.6144,6.6123,6.6205,6.7791,6.8796,6.8796,7.0344,7.1291,7.1291,7.1291,7.1291,7.1291,7.1291,7.1313,7.1395,7.1395,7.1475,7.1607,7.1607,7.1586,7.1598,7.1598,7.1598,7.1598,7.1598,7.1598,7.1598,7.1598,7.1598,7.1598,7.1598,7.1598,7.1598,7.1598,7.1598,7.1598,0.0,0.0,0.0,0.0,0.0,0.0,0.0,0.0,0.0,0.0,0.0,0.0,0.0,0.0,0.0,0.0,0.0,0.0,4.2344,4.4608,4.4871,4.2316,4.3043,4.3101,4.2218,4.2857,4.3494,4.4129,4.5253,4.5956,4.6203,4.6826,4.7112,4.7142,4.7768,4.8047,4.8064,4.8064,4.8064,4.8064,4.8064,4.819,4.8509,0.0,0.0,0.0,0.0,0.0,0.0,0.0,0.0,0.0,5.484,5.5707,5.6397,5.6336,5.6356,5.6364,5.6297,5.6297,5.6297,5.6291,5.6232,5.619,5.6164,5.6792,5.7708,5.8912,5.955,6.015,6.0944,6.1137,6.1117,6.1099,6.2549,6.369,6.3651,6.5059,6.6102,6.6123,6.6102,6.6102,6.6123,6.775,6.8775,6.8734,7.0322,7.1291,7.1291,7.1291,7.1291,7.1291,7.1291,7.1313,7.1395,7.1395,7.1475,7.1607,7.1607,7.1586,7.1598,7.1598,7.1598,7.1598,7.1598,7.1598,7.1598,7.1598,7.1598,7.1598,7.1598,7.1598,7.1598,7.1598,7.1598,7.1598,0.0,0.0,0.0,0.0,0.0,0.0,0.0,0.0,0.0,0.0,0.0,0.0,0.0,0.0,0.0,0.0,0.0,0.0,0.0,4.5172,4.5191,4.3316,4.3403,4.3248,4.2733,4.3605,4.4514,4.5426,4.5935,4.6385,4.6729,4.7255,4.7671,4.8047,4.8581,4.8795,4.8808,4.8808,4.8794,4.8806,4.8806,4.9015,4.9373,0.0,0.0,0.0,0.0,0.0,0.0,0.0,0.0,0.0,5.5375,5.5989,5.6386,5.6345,5.6353,5.6341,5.6304,5.6304,5.6297,5.6259,5.6232,5.6379,5.6998,5.7495,5.8294,6.0016,6.0383,6.0518,6.1002,6.1099,6.1099,6.1099,6.2278,6.3284,6.3552,6.4748,6.5713,6.6063,6.608,6.608,6.6102,6.742,6.8408,6.8693,6.9993,7.0924,7.1272,7.1291,7.1291,7.1291,7.1291,7.1313,7.1354,7.1416,7.1475,7.1533,7.1569,7.1605,7.1584,7.1598,7.1598,7.1598,7.1598,7.1598,7.1598,7.1598,7.1598,7.1598,7.1598,7.1598,7.1598,7.1598,7.1598,7.1598,0.0,0.0,0.0,0.0,0.0,0.0,0.0,0.0,0.0,0.0,0.0,0.0,0.0,0.0,0.0,0.0,0.0,0.0,0.0,0.0,4.5677,4.4715,4.3918,4.3548,4.3626,4.4392,4.5312,4.6302,4.6325,4.6716,4.7509,4.7664,4.8158,4.8912,4.8989,4.897,4.8912,4.899,4.8989,4.8933,4.8991,4.9513,5.023,5.023,0.0,0.0,0.0,0.0,0.0,0.0,0.0,0.0,5.623,5.6446,5.6406,5.6386,5.6341,5.6291,5.6291,5.6291,5.6291,5.6213,5.6199,5.6616,5.8241,5.86,5.9068,6.075,6.1099,6.1099,6.1099,6.1099,6.1099,6.1099,6.1834,6.2685,6.3475,6.4301,6.5129,6.5983,6.6036,6.6036,6.608,6.6937,6.7828,6.8632,6.951,7.0382,7.1253,7.1291,7.1291,7.1291,7.1291,7.1291,7.1291,7.1435,7.1455,7.1395,7.1533,7.1589,7.1589,7.1584,7.1598,7.1598,7.1598,7.1598,7.1598,7.1598,7.1598,7.1598,7.1598,7.1598,7.1598,7.1598,7.1598,7.1598,0.0,0.0,0.0,0.0,0.0,0.0,0.0,0.0,0.0,0.0,0.0,0.0,0.0,0.0,0.0,0.0,0.0,0.0,0.0,0.0,4.5346,4.386,4.3588,4.3821,4.4501,4.4703,4.5566,4.7139,4.7182,4.732,4.7528,4.8853,4.9593,4.9848,5.047,5.0385,4.9788,5.0465,5.0407,4.9878,5.0572,5.0947,5.1123,5.1123,5.1224,0.0,0.0,0.0,0.0,0.0,0.0,0.0,5.6144,5.6417,5.6386,5.6345,5.6302,5.6309,5.6304,5.6291,5.6291,5.6278,5.6238,5.664,5.8296,5.8654,5.9068,6.075,6.1099,6.1099,6.1099,6.1099,6.1099,6.1099,6.1834,6.2665,6.3411,6.4301,6.5151,6.5939,6.6013,6.6013,6.6036,6.6872,6.7763,6.8544,6.9488,7.0382,7.1253,7.1291,7.1291,7.1291,7.1291,7.1291,7.1291,7.1375,7.1416,7.1395,7.1475,7.1533,7.1533,7.1569,7.1603,7.1598,7.1598,7.1598,7.1598,7.1598,7.1598,7.1598,7.1598,7.1598,7.1598,7.1598,7.1598,7.1598,0.0,0.0,0.0,0.0,0.0,0.0,0.0,0.0,0.0,0.0,0.0,0.0,0.0,0.0,0.0,0.0,0.0,0.0,0.0,0.0,4.5248,4.3569,4.3899,4.4152,4.4228,4.5023,4.6091,4.7447,4.7482,4.7917,4.8723,4.9593,5.0236,5.0672,5.0685,5.0657,5.0618,5.0672,5.0693,5.0751,5.123,5.1391,5.1396,5.1396,5.1411,5.1394,5.1405,0.0,0.0,0.0,0.0,0.0,0.0,0.0,5.6388,5.6347,5.6356,5.6345,5.6341,5.6309,5.6297,5.6291,5.6257,5.6645,5.8362,5.8671,5.9086,6.0807,6.1117,6.1099,6.1099,6.1099,6.1099,6.1099,6.1485,6.2182,6.3332,6.3913,6.4665,6.5859,6.6009,6.5986,6.6013,6.6849,6.7741,6.8544,6.9466,7.0382,7.1253,7.1291,7.1291,7.1291,7.1291,7.1291,7.1291,7.1375,7.1375,7.1354,7.1416,7.1475,7.1494,7.1569,7.1586,7.1598,7.1598,7.1598,7.1598,7.1598,7.1598,7.1598,7.1598,7.1598,7.1598,7.1598,7.1598,7.1598,0.0,0.0,0.0,0.0,0.0,0.0,0.0,0.0,0.0,0.0,0.0,0.0,0.0,0.0,0.0,0.0,0.0,0.0,0.0,0.0,0.0,4.3986,4.4617,4.4705,4.405,4.5529,4.6781,4.7715,4.7852,4.8631,4.9995,4.9995,5.0385,5.1047,5.0482,5.0541,5.1047,5.0463,5.0589,5.1199,5.1341,5.1405,5.1401,5.1401,5.1391,5.1405,5.1391,5.2375,5.3696,5.3839,0.0,0.0,0.0,0.0,5.6417,5.6388,5.6398,5.6397,5.6386,5.6345,5.6309,5.6304,5.6238,5.6621,5.8236,5.8606,5.9065,6.0668,6.1058,6.1099,6.1099,6.1099,6.1099,6.1099,6.1234,6.1834,6.3315,6.364,6.4296,6.582,6.6005,6.5982,6.6013,6.683,6.7718,6.8544,6.9466,7.0382,7.1253,7.1291,7.1291,7.1291,7.1291,7.1291,7.1291,7.1354,7.1354,7.1291,7.1354,7.1416,7.1494,7.1551,7.1586,7.1598,7.1598,7.1598,7.1598,7.1598,7.1598,7.1598,7.1598,7.1598,7.1598,7.1598,7.1598,7.16,0.0,0.0,0.0,0.0,0.0,0.0,0.0,0.0,0.0,0.0,0.0,0.0,0.0,0.0,0.0,0.0,0.0,0.0,4.4657,0.0,0.0,4.5673,4.5772,4.5813,4.5763,4.6735,4.7696,4.8631,4.9313,4.9781,4.9995,4.9995,5.0053,5.0209,5.0833,5.0774,5.0209,5.0855,5.0791,5.0341,5.1099,5.1401,5.139,5.1401,5.1401,5.1406,5.1405,5.1999,5.289,5.3657,5.4551,0.0,0.0,0.0,5.6474,5.6417,5.6407,5.6398,5.6325,5.6309,5.6304,5.6291,5.6246,5.647,5.7521,5.8241,5.8975,5.9963,6.065,6.1099,6.1099,6.1099,6.1099,6.1099,6.1679,6.247,6.3455,6.4183,6.4994,6.5964,6.6029,6.6025,6.608,6.6781,6.7629,6.8613,6.9443,7.0316,7.1253,7.1291,7.1291,7.1291,7.1291,7.1291,7.1291,7.1291,7.1291,7.1291,7.1291,7.1375,7.1494,7.1514,7.155,7.1598,7.1598,7.1598,7.1598,7.1598,7.1598,7.1598,7.1598,7.1598,7.1598,7.1598,7.16,7.1587,0.0,0.0,0.0,0.0,0.0,0.0,0.0,0.0,0.0,0.0,0.0,0.0,0.0,0.0,0.0,4.211,4.2892,4.3916,4.5279,4.5774,4.5778,4.5293,4.5733,4.5803,4.5375,4.6697,4.7843,4.8733,4.8643,4.9079,4.9995,4.9547,4.9566,4.9995,4.9937,5.0217,5.0711,5.0614,5.0674,5.0903,5.1776,5.1845,5.1453,5.1947,5.1835,5.139,5.1405,5.1921,5.2656,5.3039,5.4071,5.5275,5.5642,0.0,0.0,0.0,5.6455,5.6437,5.6367,5.6364,5.6341,5.6304,5.6246,5.6446,5.7399,5.8178,5.8952,5.9824,6.0627,6.1155,6.1099,6.1099,6.1099,6.1099,6.1776,6.2585,6.3433,6.428,6.5106,6.5939,6.6005,6.6025,6.608,6.7205,6.8126,6.8651,6.9888,7.0819,7.1272,7.1291,7.1291,7.1291,7.1291,7.1291,7.1291,7.1291,7.1291,7.1291,7.1354,7.1395,7.1494,7.1533,7.1568,7.1598,7.1598,7.16,7.1603,7.1603,7.1586,7.1549,7.1549,7.1549,7.1549,7.1549,7.155,7.1533,0.0,0.0,0.0,0.0,0.0,0.0,0.0,0.0,0.0,0.0,0.0,0.0,0.0,0.0,0.0,0.0,4.2889,4.4053,4.5764,4.5944,4.5689,4.5029,4.5645,4.5832,4.5473,4.694,4.8057,4.8697,4.8312,4.867,4.9683,4.9079,4.9235,5.0002,4.9605,5.0127,5.1252,5.0614,5.0869,5.1762,5.2439,5.245,5.2112,5.2547,5.2299,5.1703,5.1453,5.1915,5.2668,5.2851,5.3942,5.5233,5.5455,5.5981,0.0,0.0,0.0,5.6465,5.6407,5.6386,5.6364,5.6304,5.6259,5.642,5.7107,5.8018,5.8925,5.9533,6.0489,6.121,6.1137,6.1099,6.1099,6.1099,6.1969,6.2836,6.343,6.4453,6.536,6.5958,6.6009,6.6106,6.643,6.7687,6.8627,6.9002,7.0351,7.1224,7.1311,7.1291,7.1291,7.1291,7.1291,7.1291,7.1291,7.1291,7.1291,7.1291,7.1354,7.1416,7.1494,7.1551,7.1586,7.1598,7.16,7.1603,7.1607,7.1589,7.1551,7.1494,7.1494,7.1494,7.1494,7.1494,7.1475,7.1475,0.0,0.0,0.0,0.0,0.0,0.0,0.0,0.0,0.0,0.0,0.0,0.0,4.0965,4.0927,4.1218,4.2032,4.2896,4.4085,4.5698,4.586,4.588,4.5828,4.5941,0.0,4.7262,4.8166,4.8651,4.8688,4.95,4.9527,4.8865,4.8826,4.9262,5.0134,5.086,5.1218,5.1291,5.1252,5.1733,5.2545,5.2659,5.3172,5.3777,5.3005,5.2665,5.2522,5.1622,5.1902,5.2815,5.3585,5.4443,5.5347,5.6164,5.6457,5.6508,0.0,0.0,0.0,5.6397,5.6345,5.6302,5.6304,5.6291,5.6311,5.635,5.7632,5.8789,5.8758,6.0134,6.1245,6.1117,6.1099,6.1099,6.1099,6.2472,6.3552,6.359,6.5001,6.6063,6.6102,6.6036,6.6386,6.7325,6.801,6.8834,6.9858,7.0656,7.1154,7.1291,7.1291,7.1291,7.1291,7.1291,7.1291,7.1291,7.1291,7.1291,7.1291,7.1291,7.1375,7.1494,7.1494,7.1531,7.1598,7.1605,7.1607,7.1607,7.1533,7.1494,7.1494,7.1494,7.1494,7.1494,7.1494,7.1455,7.1395,0.0,0.0,0.0,0.0,0.0,0.0,0.0,0.0,0.0,0.0,0.0,0.0,0.0,4.1703,4.1798,4.2063,4.3376,4.4628,4.5722,4.6383,4.672,4.6739,4.7287,4.7769,4.8164,4.9071,4.9255,4.871,4.9064,4.9352,4.9566,4.9035,4.9529,5.0862,5.0587,5.0803,5.14,5.1915,5.2331,5.2752,5.3864,5.3844,5.325,5.4014,5.3629,5.2728,5.2896,5.3176,5.3532,5.3838,5.4521,5.5256,5.5574,5.6049,5.6508,5.6492,5.6483,5.6446,5.6397,5.6386,5.6345,5.6304,5.6278,5.6246,5.6246,5.7571,5.878,5.8648,6.006,6.1261,6.1117,6.1099,6.1254,6.1795,6.2816,6.372,6.4235,6.5299,6.6036,6.6036,6.5994,6.6405,6.7383,6.8077,6.8902,6.9938,7.0722,7.1201,7.1311,7.1291,7.1291,7.1291,7.1291,7.1291,7.1291,7.1291,7.1291,7.1291,7.1247,7.1311,7.1416,7.1395,7.1436,7.1531,7.1494,7.1514,7.1533,7.1455,7.1395,7.1375,7.1375,7.1375,7.1375,7.1375,7.1354,7.1354,0.0,0.0,0.0,0.0,0.0,0.0,0.0,0.0,0.0,4.2975,0.0,0.0,0.0,0.0,4.2222,4.2513,4.4073,4.5388,4.6234,4.7105,4.7597,4.7585,4.8186,4.8657,4.8996,4.9372,4.9284,4.8701,4.8764,4.906,4.9586,4.9328,4.9958,5.1271,5.0685,5.0803,5.145,5.2253,5.2799,5.3234,5.4619,5.4702,5.4059,5.4898,5.4507,5.3576,5.3806,5.4079,5.4332,5.4382,5.4967,5.5664,5.565,5.6036,5.6488,5.65,5.6492,5.6494,5.6427,5.6406,5.6375,5.6317,5.6278,5.6232,5.6199,5.7552,5.876,5.8632,6.0043,6.1261,6.1117,6.1099,6.137,6.2201,6.301,6.3814,6.4613,6.5469,6.6036,6.6013,6.6013,6.6405,6.7383,6.8096,6.8902,6.9938,7.0722,7.1201,7.1311,7.1291,7.1175,7.0863,7.0841,7.0841,7.0841,7.1089,7.1224,7.1224,7.1224,7.1269,7.1375,7.1334,7.1395,7.1514,7.1435,7.1435,7.1455,7.1395,7.1354,7.1291,7.1291,7.1291,7.1291,7.1291,7.1291,7.1291,0.0,0.0,0.0,0.0,0.0,0.0,0.0,0.0,4.2859,4.4497,0.0,0.0,0.0,0.0,0.0,4.3443,4.5008,4.63,4.7171,4.7981,4.8445,4.8449,4.8535,4.8962,4.9814,4.9137,4.8759,4.8739,4.8803,4.8845,4.8845,4.9644,5.0478,5.1291,5.1328,5.1381,5.1492,5.2311,5.3137,5.4008,5.4898,5.5736,5.6368,5.5547,5.5221,5.5084,5.4267,5.4527,5.524,5.524,5.5855,5.6582,5.6514,5.6504,5.6496,5.6496,5.65,5.6494,0.0,0.0,0.0,5.6317,5.6291,5.6278,5.6213,5.7527,5.8717,5.8629,6.0024,6.1242,6.1117,6.1099,6.1389,6.2259,6.309,6.3879,6.4682,6.5556,6.608,6.6013,6.6013,6.6405,6.7383,6.8029,6.8834,6.9916,7.0656,7.1135,7.1291,7.1291,7.0902,7.0023,6.9938,6.9871,6.9852,7.0643,7.1048,7.1067,7.1139,7.1228,7.1291,7.1375,7.1435,7.1494,7.1435,7.1395,7.1395,7.1332,7.1291,7.1291,7.1291,7.1291,7.1291,7.1291,7.1291,7.1291,0.0,0.0,0.0,0.0,0.0,0.0,4.3394,4.3812,4.4229,0.0,0.0,0.0,4.4943,4.4858,4.5195,4.6061,4.6584,4.7177,4.8,4.8856,4.9369,4.942,5.0021,5.0526,5.0821,5.0614,5.0218,4.9635,4.9671,4.9668,4.9664,4.9951,5.0504,5.133,5.196,5.2285,5.2389,5.3201,5.404,5.4918,5.5783,5.5912,5.5606,5.6001,5.5742,5.5243,5.5639,5.5931,5.614,5.6202,5.6387,5.6582,5.6514,5.6503,5.6511,5.6503,5.6508,5.6492,5.6427,0.0,0.0,0.0,0.0,0.0,5.6209,5.7024,5.794,5.8501,5.9542,6.0525,6.102,6.1137,6.1445,6.2259,6.309,6.3857,6.4613,6.5469,6.6036,6.6013,6.5986,6.6399,6.7402,6.7564,6.8274,6.9879,7.0187,7.0612,7.1253,7.1247,7.0857,7.0023,6.9938,6.9582,6.8964,6.9177,6.9601,7.0218,7.0242,7.0599,7.1224,7.1247,7.1291,7.1354,7.1354,7.1332,7.1332,7.1291,7.1291,7.1291,7.1291,7.1291,7.1291,7.1291,7.1291,7.1291,0.0,0.0,0.0,0.0,0.0,4.4612,4.454,4.5278,4.582,0.0,0.0,0.0,4.6539,4.6467,4.6681,4.7152,4.7849,4.8435,4.8924,4.9775,5.0255,5.0298,5.081,5.1121,5.1159,5.0867,5.0471,5.0004,5.0352,5.0552,5.056,5.1328,5.1939,5.2407,5.2928,5.3357,5.3774,5.4239,5.4734,5.5282,5.616,5.6199,5.5808,5.6308,5.6185,5.5802,5.6327,5.6503,5.6517,5.6577,5.6606,5.6586,5.6558,5.6514,5.6503,5.6498,5.6476,5.6453,5.6407,5.6375,5.6364,5.6304,0.0,0.0,5.6214,5.6869,5.7703,5.8482,5.9368,6.0234,6.1,6.1155,6.131,6.1776,6.253,6.3317,6.4097,6.4926,6.5446,6.5446,6.577,6.6241,6.6859,6.7116,6.7734,6.8874,6.9278,6.9839,7.0711,7.0703,7.029,6.944,6.9673,6.9219,6.7986,6.8699,6.9142,6.9277,6.9692,7.0165,7.0676,7.107,7.1269,7.1291,7.1291,7.1291,7.1291,7.1291,7.1291,7.1291,7.1291,7.1291,7.1291,7.1291,7.1291,7.1291,0.0,0.0,4.5455,4.6325,4.6438,4.6394,4.6376,4.7056,4.7551,0.0,4.8251,4.849,4.7727,4.7669,4.7682,4.7649,4.8991,4.9863,4.9863,5.0579,5.102,5.1,5.1069,5.1095,5.1108,5.0567,5.0277,5.0277,5.1159,5.1593,5.1612,5.3171,5.3892,5.3892,5.3989,5.4465,5.5205,5.5299,5.5346,5.5411,5.6185,5.6511,5.6503,5.6497,5.6497,5.6504,5.6503,5.6509,5.6509,5.6582,5.6606,5.6606,5.6606,5.6558,5.6509,5.6491,5.6464,5.6405,5.6388,5.6356,5.6302,5.6304,5.6291,0.0,5.6228,5.6917,5.7799,5.8551,5.9385,6.0234,6.1036,6.1155,6.1099,6.1099,6.1679,6.245,6.3235,6.4058,6.459,6.4686,6.538,6.5909,6.608,6.6684,6.7186,6.748,6.8249,6.9041,6.9821,6.9884,6.9447,6.8482,6.9169,6.8725,6.6974,6.8494,6.8936,6.8282,6.9282,6.9794,6.9934,7.088,7.1291,7.1291,7.1291,7.1291,7.1291,7.1291,7.1291,7.1291,7.1291,7.1291,7.1291,7.1291,7.1291,7.1291,0.0,4.7099,4.726,4.8076,4.8249,4.8241,4.8133,4.8802,4.9302,4.9291,5.0007,5.0458,5.035,5.0298,5.0298,5.0331,5.0641,5.0835,5.0835,5.099,5.1081,5.1082,5.1095,5.1127,5.1171,5.1722,5.2007,5.2008,5.2893,5.3349,5.3405,5.3732,5.3896,5.3935,5.4636,5.5041,5.5249,5.5958,5.6251,5.6263,5.6433,5.6491,5.6497,5.6503,5.6503,5.6503,5.6558,5.6558,5.6509,5.6582,5.6606,5.6606,5.6606,5.6582,5.6577,5.6528,5.6491,5.6464,5.6398,5.6398,5.6377,5.6317,5.6297,0.0,5.6218,5.6878,5.7717,5.8458,5.9346,6.0234,6.0981,6.1155,6.1155,6.1099,6.1195,6.1518,6.2348,6.3152,6.3916,6.4609,6.4792,6.5182,6.5936,6.6159,6.6568,6.7357,6.8251,6.8852,6.9028,6.9575,6.9177,6.7595,6.8283,6.784,6.6147,6.6474,6.6878,6.7359,6.8376,6.9215,6.9934,7.0834,7.1247,7.1291,7.1247,7.1247,7.1291,7.1291,7.1291,7.1291,7.1291,7.1291,7.1291,7.1291,7.1291,7.1291,4.923,4.9048,4.9013,4.9846,5.001,4.9885,4.9372,4.9951,5.0292,4.9847,5.0505,5.1194,5.1654,5.1678,5.1852,5.2313,5.1945,5.1693,5.1701,5.1308,5.1102,5.1095,5.1515,5.1773,5.1847,5.2697,5.3156,5.3157,5.4061,5.4526,5.4554,5.4987,5.5209,5.5229,5.5645,5.5854,5.588,5.6309,5.6498,5.6491,5.6511,5.6491,5.6504,5.6491,5.6497,5.6497,5.6533,5.6558,5.6558,5.6582,5.6606,5.6606,5.6606,5.6606,5.6582,5.6514,5.6497,5.6491,5.6425,5.6398,5.6378,5.6321,5.629,0.0,0.0,5.7203,5.7882,5.9052,5.9688,6.027,6.1018,6.1192,6.1173,6.1099,6.104,6.1152,6.1537,6.2282,6.2906,6.3349,6.3729,6.4306,6.5273,6.5346,6.5735,6.6679,6.7186,6.7673,6.8139,6.8861,6.8656,6.7325,6.8032,6.7802,6.6513,6.6936,6.7154,6.7179,6.8569,6.9258,6.9363,7.0645,7.1269,7.1291,7.1269,7.1269,7.1291,7.1269,7.1247,7.1247,7.1291,7.1291,7.1291,7.1269,7.1247,7.1247,5.1164,5.0728,5.0474,5.1167,5.1295,5.1053,5.0334,5.072,5.0914,5.0377,5.0868,5.1615,5.2468,5.255,5.284,5.3538,5.2957,5.2565,5.2568,5.1955,5.16,5.1593,5.2278,5.2683,5.2744,5.3593,5.4052,5.4051,5.4994,5.545,5.547,5.6176,5.6496,5.6503,5.6498,5.6504,5.651,5.6517,5.651,5.6515,5.6511,5.6504,5.6503,5.6498,5.6511,5.6517,5.6528,5.6558,5.6606,5.6606,5.6606,5.6606,5.6606,5.6606,5.6582,5.6533,5.6503,5.6478,5.6422,5.6416,5.6388,5.6325,5.6302,5.6504,0.0,0.0,0.0,5.9685,6.0185,6.0515,6.1092,6.121,6.1173,6.1099,6.1041,6.0997,6.0997,6.1508,6.1939,6.207,6.2666,6.3498,6.4586,6.484,6.5196,6.5788,6.5983,6.6333,6.6937,6.7853,6.7938,6.7093,6.7782,6.7802,6.7109,6.7648,6.7674,6.7229,6.869,6.9069,6.8478,7.0068,7.0883,7.1037,7.1037,7.1134,7.1247,7.1201,7.1178,7.1201,7.1247,7.1269,7.1247,7.1201,7.1178,7.1159,5.1284,5.1217,5.1161,5.119,5.1259,5.1249,5.1089,5.1086,5.1334,5.2027,5.2169,5.2576,5.3449,5.348,5.3485,5.3587,5.3509,5.348,5.354,5.3463,5.3398,5.3397,5.3557,5.3639,5.3658,5.4509,5.4947,5.4947,5.589,5.6347,5.6347,5.6445,5.6498,5.6498,5.6497,5.6528,5.6577,5.6536,5.6536,5.6577,5.6517,5.6504,5.6504,5.6497,5.6533,5.6582,5.6582,5.6586,5.6606,5.6606,5.6606,5.6606,5.6606,5.6606,5.6606,5.6582,5.6553,5.6497,5.6484,5.6461,5.6387,5.6325,5.6302,5.6523,5.7319,0.0,5.8905,5.9821,0.0,6.1174,6.1208,0.0,0.0,6.1099,6.1022,6.1001,6.0997,6.101,6.1312,6.2036,6.2166,6.2858,6.4455,6.5375,6.5596,6.4902,6.5566,6.5765,6.5129,6.6545,6.6979,6.6174,6.6871,6.7186,6.709,6.6494,6.6519,6.721,6.7475,6.756,6.7483,6.8532,6.9382,7.0049,7.0069,7.0474,7.113,7.1106,7.1106,7.1106,7.113,7.113,7.113,7.1106,7.1106,7.1106,5.1312,5.1304,5.1284,5.1258,5.1276,5.1295,5.1269,5.1606,5.2149,5.2989,5.3106,5.3435,5.4308,5.4372,5.4551,5.5055,5.4648,5.4372,5.4394,5.3967,5.3689,5.3689,5.4206,5.4502,5.4555,5.5404,5.5882,5.5909,5.6308,5.6503,5.6503,5.6496,5.6503,5.651,5.6497,5.6523,5.6542,5.6517,5.6517,5.6542,5.6517,5.679,5.72,5.6679,5.6533,5.6606,5.6606,5.6606,5.6606,5.6606,5.6606,5.6606,5.6606,5.6606,5.6606,5.6606,5.6558,5.6503,5.6498,5.6476,5.6444,5.6377,5.6356,5.6566,5.7379,5.8207,5.9047,5.9875,0.0,0.0,0.0,0.0,0.0,0.0,6.108,6.1001,6.0997,6.0911,6.0958,6.13,6.1385,6.1847,6.3041,6.395,6.434,6.3974,6.4286,6.4579,6.4778,6.589,6.6343,6.5996,6.6275,6.6628,6.709,6.6763,6.6788,6.721,6.7783,6.7788,6.7325,6.8262,6.8861,6.9138,6.9138,6.9331,6.9697,7.015,7.0362,7.0375,7.0831,7.103,7.1106,7.1056,7.103,7.103,5.2017,5.1826,5.1654,5.1626,5.1821,5.1977,5.196,5.2414,5.3055,5.3876,5.3992,5.4322,5.5195,5.5292,5.553,5.6141,5.5617,5.5264,5.5273,5.4724,5.4388,5.4407,5.5022,5.5376,5.5422,5.6066,5.6417,5.6474,5.6717,5.6834,5.6834,5.7073,5.7198,5.7198,5.7193,5.7205,5.7213,5.7205,5.7205,5.7219,5.7205,5.7582,5.8114,5.7724,5.7456,5.7289,5.7289,5.7133,5.6899,5.6665,5.6606,5.6606,5.6606,5.6606,5.6606,5.6606,5.6558,5.6503,5.6504,5.6484,5.6453,5.6417,5.6386,5.6578,5.7392,5.8012,5.876,5.9866,6.0565,0.0,0.0,0.0,6.1275,6.121,0.0,6.1001,6.0997,6.0911,6.0823,6.08,6.1251,6.1643,6.1736,6.3184,6.3916,6.3411,6.3815,6.4166,6.4386,6.5168,6.551,6.5259,6.5441,6.5936,6.6763,6.6763,6.6904,6.721,6.762,6.7509,6.6954,6.7618,6.8043,6.8184,6.8208,6.8343,6.8588,6.9194,6.9419,6.9496,7.0271,7.0471,7.0395,7.0831,7.0979,7.0979,5.3832,5.3132,5.2543,5.2463,5.3155,5.371,5.3635,5.3642,5.396,5.4835,5.4971,5.5301,5.6155,5.6253,5.6246,5.6199,5.617,5.6165,5.616,5.6126,5.6154,5.6214,5.6251,5.6263,5.6263,5.6338,5.6388,5.6388,5.7254,5.7652,5.7672,5.8515,5.8913,5.8913,5.8994,5.9026,5.9026,5.9026,5.9012,5.9022,5.9012,5.9031,5.9143,5.9963,5.9749,5.9026,5.9026,5.848,5.7641,5.686,5.6606,5.6606,5.6606,5.6606,5.6606,5.6606,5.6558,5.6503,5.6504,5.6457,5.6405,5.6398,5.6347,5.6504,5.7321,5.7527,5.8023,5.975,6.0119,6.0371,6.1167,6.131,6.1281,6.121,6.108,0.0,0.0,6.0933,6.0869,6.08,6.2294,6.266,6.1016,6.3931,6.5182,6.3435,6.4859,6.5089,6.3435,6.4166,6.4262,6.3416,6.4205,6.5051,6.5936,6.5936,6.6346,6.7191,6.6307,6.5947,6.6035,6.5996,6.6415,6.7154,6.7224,6.768,6.8417,6.8436,6.8436,6.8532,6.9398,6.9225,6.8686,7.0302,7.0898,7.0898,5.391,5.4137,5.4126,5.3526,5.3671,5.4042,5.4555,5.4587,5.4873,5.5747,5.5864,5.5961,5.6272,5.6291,5.6278,5.6204,5.6199,5.6204,5.6199,5.6194,5.6223,5.6232,5.6226,5.6285,5.6356,5.6922,5.7215,5.7254,5.8139,5.8548,5.8568,5.8849,5.8994,5.8991,5.9026,5.9066,5.9104,5.9104,5.909,5.9143,5.9724,5.9954,5.9934,5.9646,5.9358,5.9026,5.8441,5.805,5.768,5.6879,5.6606,5.6606,5.6606,5.6606,5.6606,5.6606,5.6553,5.6491,5.6504,5.6476,5.6464,5.6417,5.6388,5.6422,5.664,5.7113,5.7674,5.8304,5.9318,6.0177,6.0459,6.0934,6.1291,6.1261,6.1155,6.1061,0.0,6.0938,6.0657,6.0012,6.1023,6.1299,6.0181,6.2124,6.3199,6.2551,6.407,6.4532,6.3358,6.4128,6.4205,6.3339,6.3589,6.4166,6.5032,6.5032,6.5455,6.6276,6.5955,6.5795,6.5736,6.5769,6.5942,6.6223,6.625,6.6449,6.6782,6.7321,6.7532,6.7628,6.8494,6.8667,6.8552,6.9687,7.011,7.009,5.4833,5.5282,5.5385,5.4468,5.4567,5.4928,5.5441,5.5493,5.565,5.6233,5.6291,5.6291,5.6278,5.6291,5.6278,5.6204,5.6185,5.6204,5.6199,5.6194,5.619,5.6199,5.6523,5.6751,5.6823,5.764,5.809,5.8169,5.9046,5.9455,5.9464,5.9785,5.991,5.9927,5.9915,5.9957,6.0021,6.0021,6.0026,6.008,6.0646,6.0856,6.0793,6.0232,6.0017,5.9954,5.9393,5.8983,5.8558,5.7406,5.7035,5.6977,5.6684,5.6606,5.6606,5.6606,5.6548,5.6504,5.6504,5.6496,5.6483,5.6417,5.6388,5.6386,5.6314,5.668,5.7144,5.7515,5.844,5.9279,5.9593,6.0308,6.0845,6.0832,6.0979,6.1041,0.0,6.0935,6.0561,5.9653,6.033,6.0545,5.9697,6.118,6.2178,6.2065,6.3334,6.3897,6.3339,6.3839,6.3762,6.2897,6.3147,6.357,6.4128,6.4455,6.5007,6.5793,6.5762,6.5671,6.5608,6.5635,6.5682,6.5793,6.5793,6.5846,6.5936,6.6455,6.6667,6.6763,6.7609,6.7763,6.7648,6.8821,6.9217,6.919,5.6511,5.6498,5.6211,5.5316,5.5802,5.6314,5.6302,5.6297,5.6291,5.6291,5.6291,5.6278,5.6199,5.6246,5.6265,5.6199,5.619,5.6204,5.6199,5.619,5.6218,5.6257,5.7133,5.7619,5.7663,5.8518,5.9001,5.9056,5.9932,6.0351,6.038,6.1205,6.1603,6.1603,6.1607,6.1648,6.1699,6.1699,6.1705,6.1701,6.1701,6.1701,6.1696,6.1696,6.1691,6.1699,6.164,6.1105,6.0139,5.8382,5.7797,5.766,5.686,5.6606,5.6606,5.6606,5.6548,5.6498,5.6498,5.6496,5.6483,5.6417,5.6388,5.6386,5.6314,5.6253,5.6465,5.736,5.7508,5.7765,5.8589,5.9386,5.994,5.994,6.0459,6.0865,6.0836,6.0834,6.0525,5.9697,6.0333,6.0423,5.9442,6.0958,6.2001,6.1958,6.2732,6.3262,6.3301,6.3301,6.2935,6.2127,6.2839,6.3262,6.3301,6.4128,6.4968,6.5793,6.5655,6.5627,6.5665,6.5542,6.5637,6.5851,6.5813,6.582,6.5897,6.5897,6.5897,6.5974,6.6744,6.6571,6.609,6.7744,6.8287,6.8232,5.6511,5.6503,5.6422,5.6191,5.6281,5.6368,5.6367,5.6329,5.6291,5.6291,5.6246,5.6232,5.6199,5.6232,5.6218,5.6199,5.619,5.617,5.6133,5.6156,5.6476,5.7067,5.7363,5.7851,5.8557,5.9418,5.99,5.9971,6.0848,6.1267,6.1276,6.1498,6.1592,6.1607,6.1595,6.1634,6.1696,6.1705,6.1705,6.1701,6.1701,6.1696,6.1705,6.1705,6.1705,6.1621,6.0968,6.0583,6.0139,5.8382,5.7797,5.766,5.686,5.6577,5.6533,5.6533,5.6511,5.6503,5.6503,5.6508,5.6483,5.6417,5.6407,5.6388,5.6314,5.629,5.6336,5.6583,5.7146,5.7651,5.7865,5.8527,5.9029,5.9029,5.9086,5.9341,5.9936,5.9969,5.9829,5.9553,5.9727,5.9515,5.8671,5.9015,5.98,6.1007,6.1916,6.2666,6.3281,6.3301,6.2935,6.2127,6.23,6.2704,6.3301,6.3531,6.4347,6.5793,6.5655,6.5953,6.6547,6.5771,6.5858,6.6575,6.5942,6.5701,6.582,6.5872,6.5897,6.5917,6.6128,6.6045,6.5954,6.6973,6.7294,6.718,5.6517,5.6503,5.65,5.6511,5.6766,5.6962,5.6971,5.6909,5.7009,5.7385,5.7379,5.7338,5.731,5.731,5.7329,5.7304,5.7315,5.7329,5.7285,5.7315,5.7543,5.7994,5.8406,5.8894,5.9471,6.0287,6.0752,6.0827,6.1314,6.1568,6.1607,6.1595,6.1592,6.1595,6.1595,6.1628,6.1691,6.1705,6.1705,6.1701,6.1701,6.1696,0.0,6.171,6.171,6.1632,6.113,6.0978,6.0764,5.9397,5.8948,5.8792,5.7953,5.7417,5.7074,5.7074,5.6797,5.6496,5.6496,5.65,5.6474,5.6427,5.6398,5.6377,5.6321,5.6297,5.6297,5.6291,5.668,5.7029,5.7029,5.7635,5.8238,5.8593,5.8583,5.8684,5.9089,5.9433,5.9485,5.9031,5.93,5.9034,5.7844,5.8091,5.8662,5.958,6.0473,6.1493,6.2704,6.3108,6.3281,6.3205,6.282,6.3012,6.3858,6.3468,6.4091,6.5701,6.5627,6.5848,6.6221,6.5694,6.5762,6.6241,6.5762,6.5646,6.5793,6.5846,6.5872,6.5897,6.5872,6.5774,6.5731,6.6192,6.6308,6.624,5.6821,5.6829,5.682,5.6823,5.7399,5.7916,5.8014,5.7886,5.8048,5.879,5.8927,5.8905,5.8735,5.8881,5.894,5.8874,5.894,5.9013,5.9129,5.9032,5.9013,5.911,5.9754,6.017,6.0352,6.1045,6.1434,6.1479,6.1495,6.1537,6.1588,6.1586,6.1592,6.1595,6.1615,6.1648,6.1699,6.1699,6.1705,6.1696,6.1701,6.1701,6.1701,6.1701,6.1701,6.1701,6.1696,6.1696,6.1564,6.0686,6.0393,6.0251,5.9373,5.8504,5.7791,5.7791,5.718,5.6508,5.6488,5.6492,5.6474,5.6397,5.6386,5.6375,5.6324,5.6291,5.6304,5.6291,5.6291,5.6291,5.6291,5.6805,5.7505,5.8293,5.8333,5.8219,5.8084,5.872,5.8871,5.8072,5.8684,0.0,5.73,5.7742,5.8104,5.8058,5.8739,5.9973,6.182,6.2704,6.3551,6.4397,6.3685,6.3724,6.4589,6.3693,6.402,6.5655,6.5608,6.5666,6.5779,6.558,6.5628,6.5819,6.559,6.5599,6.5767,6.5793,6.582,6.5872,6.5793,6.5646,6.5494,6.5494,6.5494,6.5465,5.8499,5.8611,5.8562,5.8562,5.8685,5.9007,5.9728,5.919,5.8713,5.8791,5.943,5.959,5.8862,5.944,5.9851,5.9782,5.9832,6.0142,6.0825,6.0231,6.0182,6.0832,6.0376,6.0429,6.1167,6.133,6.1415,6.1421,6.1468,6.1509,6.1519,6.1567,6.1603,6.1612,6.166,6.1699,6.1699,6.1699,6.1699,6.1705,6.1696,6.1701,6.1701,6.1701,6.1701,6.1696,6.1705,6.1691,6.1559,6.0695,6.0397,6.0261,5.9365,5.8494,5.7797,5.7797,5.717,5.6483,5.6426,5.6417,5.6407,5.6325,5.6356,5.6375,5.6324,5.6297,5.6309,5.6304,5.6291,5.6278,5.6232,5.6276,5.6585,5.7404,5.6924,5.6443,5.6348,5.6405,5.6403,5.6165,5.6915,5.7588,5.803,5.755,5.7223,5.7223,5.7357,5.8492,6.0896,6.1839,6.2685,6.3512,6.3378,6.3724,6.4589,6.3718,6.4141,6.5853,6.5682,6.6356,6.7754,6.6145,6.6219,6.7542,6.6106,6.5552,6.5655,6.5747,6.5813,6.5793,6.5599,6.5523,6.5494,6.5454,6.5425,6.5425,5.9026,5.9066,5.9045,5.9011,5.9376,5.9786,6.0185,6.025,6.0234,6.019,6.0534,6.0589,6.0138,6.0472,6.0883,6.131,6.138,6.1768,6.2637,6.2337,6.2099,6.2031,6.1658,6.1439,6.14,6.1402,6.1428,6.144,6.1468,6.1519,6.1549,6.1578,6.1595,6.1603,6.1634,6.1673,6.1699,6.1699,6.1953,6.2362,6.2379,6.2657,6.3008,6.2559,6.2364,6.2325,6.1861,6.1705,6.1627,6.1186,6.1023,6.0945,6.0529,5.9806,5.9108,5.9108,5.8156,5.7126,5.7078,5.6757,5.6437,5.6367,5.6375,5.6375,5.6324,5.6304,5.6297,5.6291,5.6291,5.6278,5.6223,5.6164,5.6217,5.6573,5.6268,5.5826,5.5306,5.5557,5.5439,5.4511,5.557,5.6533,5.687,5.695,5.6992,5.6992,5.7415,5.8204,5.9435,6.1146,6.2474,6.3281,6.3743,6.4185,6.4609,6.3718,6.3879,6.5121,6.5022,6.5618,6.6797,6.6326,6.6334,6.6678,6.6296,6.5915,6.5608,6.5747,6.574,6.5646,6.5542,6.5465,6.5435,6.5394,6.5394,6.5394,5.965,5.9638,5.9618,5.9557,6.0116,6.0536,6.0483,6.1056,6.1491,6.1479,6.159,6.1602,6.1356,6.1481,6.1869,6.256,6.2618,6.3002,6.3945,6.4003,6.3614,6.274,6.2701,6.2371,6.1686,6.1674,6.1797,6.2048,6.1868,6.1792,6.1851,6.1685,6.1597,6.1603,6.16,6.1634,6.1687,6.1693,6.2187,6.3006,6.3199,6.3809,6.4492,6.3809,6.3555,6.3438,6.2557,6.2103,6.1947,6.188,6.1744,6.1607,6.1607,6.1007,6.0309,6.0309,5.9209,5.7983,5.7983,5.7507,5.6943,5.6708,5.6667,5.6586,5.6343,5.6291,5.6291,5.6291,5.6278,5.6251,5.6214,5.6133,5.6046,5.6012,5.6016,5.5614,5.4496,5.4882,5.4688,5.3106,5.4148,5.5147,5.558,5.6448,5.7088,5.7261,5.772,5.8008,5.7989,6.0435,6.2185,6.2988,6.4051,6.4609,6.4609,6.3668,6.3521,6.4139,6.4132,6.4566,6.5444,6.6,6.6047,6.573,6.6197,6.6115,6.558,6.5674,6.5646,6.5494,6.5494,6.5454,6.5394,6.5394,6.5394,6.5394,6.1465,6.1413,6.1354,6.135,6.1373,6.1392,6.1373,6.1448,6.1479,6.1414,6.208,6.2274,6.1483,6.2104,6.259,6.2682,6.2701,6.307,6.3945,6.4003,6.3614,6.274,6.2701,6.2657,6.2582,6.2582,6.3016,6.3857,6.3075,6.2677,6.2668,6.1948,6.1597,6.1603,6.1603,6.1603,6.1612,6.1667,6.2181,6.2987,6.3837,6.4707,6.5468,6.539,6.5351,6.5228,6.4301,6.3467,6.2785,6.2775,6.2249,6.1603,6.1606,6.1012,6.0302,6.0302,5.962,5.888,5.8871,5.8792,5.8487,5.7694,5.7495,5.7276,5.6486,5.6291,5.6291,5.6291,5.6238,5.6214,5.6199,5.6098,5.6012,5.6012,5.6016,5.5421,5.3762,5.3514,5.3167,5.2145,5.2164,5.3164,5.5472,5.6472,5.7319,5.8127,5.7463,5.7017,5.704,5.9508,6.1277,6.2093,6.3738,6.4609,6.4609,6.3668,6.3239,6.3316,6.3203,6.3963,6.5475,6.4766,6.5263,6.6613,6.5864,6.5531,6.5523,6.5523,6.5523,6.5494,6.5425,6.5394,6.5394,6.5394,6.5394,6.5394,6.1691,6.1654,6.1595,6.1607,6.1586,6.1549,6.1519,6.1498,6.1476,6.1402,6.17,6.1797,6.1439,6.1682,6.209,6.2663,6.2667,6.3021,6.3945,6.4003,6.3614,6.274,6.2701,6.2463,6.192,6.1965,6.2418,6.3328,6.2999,6.2864,6.2864,6.2542,6.2104,6.1603,6.16,6.16,6.1646,6.2233,6.3254,6.4541,6.5432,6.6634,6.7771,6.6717,6.6321,6.6134,6.4703,6.3636,6.2898,6.2903,6.2318,6.1597,6.1588,6.1354,6.1081,6.1081,6.0458,5.9776,5.9786,5.9367,5.8868,5.8476,5.7993,5.7502,5.7159,5.668,5.6291,5.6291,5.6257,5.6199,5.6199,5.6082,5.5995,5.6016,5.5961,5.5345,5.3591,5.3263,5.2723,5.1337,5.1183,5.2165,5.4679,5.572,5.6755,5.8069,5.7905,5.7505,5.6989,5.9415,6.0723,6.0527,6.3685,6.4622,6.3059,6.3194,6.2957,6.2362,6.2329,6.2889,6.4039,6.5176,6.6361,6.7465,6.6087,6.5494,6.5494,6.5494,6.5465,6.5454,6.5394,6.5394,6.5394,6.5394,6.5364,6.5352,6.2125,6.205,6.1914,6.1646,6.1603,6.1588,6.1519,6.1509,6.1476,6.1408,6.1402,6.1408,6.14,6.1352,6.1604,6.2274,6.2264,6.2536,6.3187,6.3478,6.3226,6.2371,6.2565,6.2405,6.1804,6.1861,6.2429,6.3542,6.335,6.339,6.3624,6.3127,6.2435,6.1595,6.1607,6.1751,6.2036,6.2701,6.4118,6.5953,6.6831,6.8072,6.9274,6.8019,6.7409,6.6987,6.5476,6.4224,6.3271,6.3253,6.2523,6.1607,6.1607,6.1607,6.1607,6.1607,6.1159,6.0643,6.0643,6.0185,5.9647,5.9351,5.8608,5.7891,5.7645,5.6932,5.6291,5.6278,5.6223,5.6164,5.6149,5.6065,5.5996,5.5961,5.5692,5.5056,5.3822,5.3397,5.276,5.1568,5.1222,5.1934,5.4197,5.5179,5.6368,5.8026,5.8443,5.812,5.7005,5.9142,6.0104,5.9488,6.3142,6.4212,6.24,6.2963,6.2804,6.1857,6.1562,6.1835,6.27,6.4957,6.6334,6.6842,6.5944,6.5494,6.5465,6.5454,6.5425,6.5394,6.5394,6.5394,6.5394,6.5394,6.5352,6.5309,6.3149,6.2987,6.2688,6.1768,6.1603,6.1586,6.15,6.1507,6.1472,6.1396,6.1408,6.14,6.14,6.14,6.14,6.1419,6.1419,6.1419,6.1439,6.2235,6.2332,6.1458,6.2235,6.2696,6.2679,6.2756,6.3605,6.5258,6.4465,6.4527,6.5325,6.3682,6.2426,6.1588,6.16,6.2075,6.2898,6.2974,6.447,6.685,6.7728,6.8619,6.9391,6.9374,6.8821,6.7956,6.7021,6.56,6.4177,6.4111,6.2971,6.1607,6.1607,6.1607,6.1607,6.1607,6.1549,6.1489,6.1489,6.1425,6.1182,6.0385,5.9484,5.8583,5.7768,5.6932,5.6278,5.6213,5.616,5.6082,5.6012,5.6016,5.5981,5.5905,5.5133,5.4515,5.4496,5.3743,5.3203,5.3164,5.2414,5.2568,5.4337,5.5157,5.6368,5.8165,5.8961,5.8626,5.6884,5.8472,5.9398,5.9398,6.1895,6.3245,6.3281,6.3226,6.2798,6.1991,6.1,6.0939,6.1781,6.3542,6.4317,6.4286,6.507,6.5394,6.5394,6.5321,6.5352,6.5394,6.5394,6.5394,6.5394,6.5394,6.5352,6.5309,6.3945,6.3377,6.285,6.2543,6.1993,6.1597,6.1578,6.1539,6.1487,6.1472,6.1434,6.1622,6.2216,6.1769,6.14,6.14,6.14,6.14,6.14,6.1672,6.1691,6.1419,6.1672,6.1802,6.1804,6.1836,6.2413,6.3605,6.3344,6.3356,6.3592,6.2513,6.1861,6.1607,6.1603,6.1748,6.2091,6.3296,6.4969,6.6927,6.8355,6.9806,7.1031,7.0446,6.967,6.8795,6.79,6.6488,6.5007,6.4997,6.3867,6.2484,6.2484,6.2075,6.1607,6.1607,6.1578,6.1549,6.1519,6.1487,6.1401,6.1085,5.9898,5.8731,5.8486,5.7288,5.6232,5.6209,5.6149,5.6082,5.6012,5.6016,5.5962,5.5846,5.5576,5.5189,5.459,5.4262,5.3876,5.328,5.2972,5.3453,5.5145,5.6066,5.7255,5.8923,5.985,5.96,5.7905,5.8869,5.9219,5.8681,6.1661,6.2982,6.2419,6.2982,6.2848,6.1991,6.1058,6.1332,6.2585,6.2585,6.3523,6.5063,6.4795,6.4967,6.5465,6.5413,6.5383,6.5394,6.5394,6.5394,6.5394,6.5394,6.5352,6.5309,6.4418,6.3832,6.3423,6.3389,6.2664,6.2191,6.2484,6.2493,6.248,6.2476,6.2419,6.2574,6.3129,6.2701,6.2235,6.1924,6.1594,6.14,6.14,6.14,6.14,6.14,6.14,6.1414,6.1389,6.1415,6.1843,6.277,6.3093,6.3099,6.2802,6.2279,6.189,6.1607,6.1595,6.1779,6.2188,6.3592,6.5402,6.7407,6.8748,7.016,7.1347,7.0812,6.9868,6.8739,6.8203,6.6878,6.5407,6.5407,6.4296,6.2893,6.2893,6.2309,6.1607,6.1578,6.1559,6.1549,6.1487,6.1464,6.146,6.1402,6.0085,5.8624,5.7979,5.6961,5.616,5.6164,5.6101,5.6031,5.5959,5.5942,5.5905,5.5766,5.5516,5.5226,5.4972,5.4684,5.453,5.4626,5.4337,5.4818,5.6511,5.7143,5.7889,5.8861,6.008,6.0046,5.835,5.8735,5.9062,5.9173,6.1214,6.2521,6.2932,6.3507,6.3353,6.2433,6.1211,6.1115,6.2021,6.183,6.2748,6.4556,6.4317,6.47,6.5494,6.5425,6.5394,6.5394,6.5394,6.5394,6.5394,6.5394,6.5352,6.5309,6.4785,6.4414,6.4364,6.4294,6.3565,6.3238,6.3994,6.4087,6.4091,6.4091,6.4026,6.4022,6.408,6.4042,6.3692,6.2949,6.208,6.1575,6.1575,6.1575,6.1575,6.1575,6.1575,6.1575,6.1575,6.1583,6.1985,6.2779,6.3598,6.3619,6.2885,6.288,6.2484,6.1763,6.1762,6.2227,6.3046,6.3982,6.5803,6.8168,6.904,6.9898,7.0676,7.0678,6.9635,6.8164,6.8106,6.7004,6.5562,6.5504,6.4413,6.3069,6.2991,6.2387,6.1656,6.1539,6.1489,6.1498,6.1421,6.1396,6.1402,6.14,6.009,5.8358,5.6664,5.6188,5.6098,5.6098,5.6033,5.5981,5.5905,5.5846,5.5766,5.5724,5.5068,5.4838,5.5588,5.5049,5.5184,5.6799,5.628,5.6472,5.8223,5.8331,5.8285,5.8285,5.9783,5.9994,5.8361,5.8285,5.901,6.0572,6.0622,6.1857,6.4488,6.4526,6.4045,6.3105,6.1345,6.0472,6.0436,6.1172,6.2041,6.3044,6.3723,6.4594,6.5494,6.5482,6.5452,6.5413,6.5471,6.5452,6.5394,6.5394,6.5352,6.5309,6.6297,6.5677,6.5211,6.5211,6.4466,6.3943,6.4082,6.4087,6.4091,6.4091,6.4026,6.425,6.492,6.4395,6.4176,6.463,6.3876,6.3381,6.3381,6.3381,6.3381,6.3381,6.3381,6.3381,6.3381,6.3376,6.3487,6.3676,6.3949,6.3986,6.3795,6.3789,6.3682,6.3517,6.3507,6.3624,6.3916,6.5455,6.6839,6.8154,6.9684,7.0775,7.1526,7.1516,7.0873,6.9898,6.9225,6.831,6.7277,6.6615,6.5699,6.4686,6.4023,6.3215,6.2376,6.1704,6.1489,6.1498,6.1421,6.1396,6.1402,6.14,6.009,5.8478,5.7301,5.6546,5.6082,5.6029,5.6016,5.5981,5.5905,5.5846,5.5766,5.5724,5.553,5.5472,5.5665,5.553,5.5799,5.6857,5.6819,5.7335,5.898,5.9158,5.9134,5.9037,6.0114,6.0268,5.9095,5.9153,5.9681,6.0714,6.0123,6.1334,6.4545,6.3911,6.318,6.2279,6.1076,6.0499,6.0472,6.0608,6.1478,6.294,6.3102,6.4038,6.5482,6.612,6.5975,6.5397,6.6109,6.5956,6.5321,6.5364,6.5394,6.5383,6.6331,6.5872,6.5672,6.6031,6.5374,6.4915,6.5231,6.5289,6.5294,6.5283,6.522,6.5367,6.5836,6.5472,6.5375,6.5855,6.4772,6.4059,6.4059,6.4026,6.4007,6.404,6.4026,6.3993,6.3993,6.4026,6.4053,6.4046,6.4046,6.4072,6.4095,6.409,6.41,6.41,6.4091,6.4101,6.4199,6.5543,6.6848,6.8115,6.9459,7.0726,7.1797,7.1797,7.1057,6.9946,6.9459,6.8485,6.7335,6.6868,6.5855,6.4725,6.4247,6.3233,6.2112,6.1593,6.1476,6.1495,6.1434,6.1402,6.1305,6.0866,5.9739,5.8509,5.7519,5.6648,5.6046,5.6012,5.5979,5.5924,5.5905,5.5826,5.5745,5.5703,5.5703,5.5838,5.6242,5.628,5.6742,5.797,5.8101,5.8577,5.983,5.9653,5.9398,5.9256,5.9816,5.9922,5.9319,5.9398,5.985,6.0666,6.07,6.1738,6.3943,6.3457,6.297,6.2478,6.1119,6.0444,6.0444,6.0417,6.1334,6.2949,6.2949,6.3906,6.5454,6.5569,6.549,6.5352,6.5429,6.5397,6.529,6.5352,6.5352,6.5352,6.5941,6.5785,6.6,6.6678,6.6199,6.592,6.6603,6.6712,6.6712,6.6699,6.664,6.6614,6.6601,6.6594,6.6659,6.6795,6.5499,6.4687,6.4662,6.4597,6.4656,6.4837,6.4656,6.4565,6.4565,6.4494,6.4468,6.448,6.4416,6.4435,6.4492,6.4496,6.4488,6.4477,6.449,6.4491,6.4539,6.5426,6.6653,6.8076,6.8953,7.0219,7.1602,7.1466,7.0609,6.9459,6.9206,6.8076,6.6673,6.6556,6.5426,6.4072,6.3954,6.2891,6.1673,6.146,6.1428,6.1479,6.1414,6.1394,6.1181,6.0399,5.9443,5.8482,5.7675,5.6728,5.6012,5.5995,5.5942,5.5905,5.5885,5.5766,5.5703,5.5703,5.5703,5.5992,5.6876,5.6992,5.7604,5.9206,5.9398,5.9638,6.0335,5.9906,5.9402,5.9051,5.9248,5.9374,5.93,5.9374,5.9744,6.0399,6.1387,6.2392,6.3399,6.3207,6.3096,6.3077,6.1275,6.0389,6.0389,6.0389,6.1362,6.2959,6.2844,6.3772,6.5264,6.4566,6.4575,6.4944,6.4405,6.4489,6.4946,6.5213,6.5232,6.5168,6.6728,6.6641,6.6653,6.678,6.6687,6.6649,6.6764,6.6739,6.6693,6.6712,6.6638,6.6601,6.6601,6.6601,6.6899,6.7619,6.7506,6.7358,6.7238,6.7214,6.7539,6.8292,6.7597,6.7209,6.7209,6.65,6.6145,6.6212,6.6192,6.6238,6.6299,6.6299,6.6268,6.6205,6.6282,6.6312,6.6349,6.7228,6.7745,6.8076,6.8953,6.9888,7.0706,6.9966,6.9985,7.02,6.8738,6.755,6.6595,6.5855,6.4939,6.3974,6.3233,6.2822,6.2437,6.1642,6.1421,6.1414,6.14,6.1352,6.1283,6.112,5.9888,5.8654,5.8447,5.7153,5.5995,5.5998,5.5962,5.5885,5.5826,5.5745,5.5703,5.5703,5.5703,5.5992,5.6876,5.6947,5.7516,5.9206,5.935,5.9358,5.9492,6.0048,5.9792,5.8298,5.8942,5.9374,5.93,5.9422,5.9546,5.9681,6.055,6.2089,6.4353,6.354,6.3096,6.3077,6.1275,6.0389,6.0389,6.0389,6.1306,6.2853,6.2156,6.2806,6.4392,6.4278,6.3817,6.3337,6.4603,6.4317,6.3364,6.4775,6.4901,6.4447,6.6893,6.6887,6.6856,6.6859,6.6809,6.6798,6.6805,6.6771,6.6728,6.6702,6.6671,6.6649,6.6657,6.6645,6.682,6.721,6.7681,6.7922,6.7864,6.7852,6.8248,6.9168,6.8326,6.7859,6.791,6.7028,6.6581,6.6649,6.6645,6.6652,6.6645,6.6688,6.6657,6.6601,6.6669,6.6691,6.673,6.713,6.7569,6.8037,6.8446,6.9401,7.0492,6.9634,6.9537,6.9673,6.7939,6.6751,6.5874,6.4997,6.414,6.338,6.2941,6.248,6.1997,6.1544,6.1408,6.14,6.14,6.1356,6.131,6.1297,5.9949,5.8639,5.8621,5.725,5.5995,5.5999,5.5962,5.5885,5.5807,5.5745,5.5703,5.5703,5.5662,5.6102,5.7466,5.7589,5.8155,5.9799,5.9984,5.9932,5.9905,5.9874,5.9702,5.937,5.9332,5.9561,6.0021,6.0114,5.9758,5.8877,6.0569,6.2493,6.4589,6.3597,6.3096,6.3077,6.1275,6.0389,6.0389,6.0389,6.1058,6.2185,6.1765,6.2319,6.3465,6.2987,6.3092,6.352,6.3326,6.3345,6.3535,6.4317,6.4374,6.4165,6.6893,6.6908,6.6898,6.6878,6.6834,6.6795,6.6798,6.6798,6.6778,6.6741,6.6702,6.6712,6.6699,6.6688,6.6786,6.6949,6.7564,6.8,6.819,6.802,6.8413,6.9535,6.8674,6.8195,6.8257,6.7172,6.6627,6.668,6.6688,6.6645,6.6601,6.6645,6.6645,6.6588,6.6677,6.6699,6.6671,6.6682,6.7102,6.7706,6.7706,6.8738,7.0161,6.8875,6.8641,6.8738,6.679,6.5543,6.4725,6.4043,6.3283,6.2601,6.2512,6.2032,6.1491,6.1428,6.1408,6.14,6.14,6.1341,6.1297,6.1297,6.0087,5.8836,5.8642,5.7404,5.6209,5.6019,5.5924,5.5865,5.5787,5.5745,5.5684,5.5682,5.566,5.6156,5.7647,5.7829,5.8393,6.0001,6.0193,6.0166,6.0111,5.9718,5.9668,6.0154,5.9632,5.9709,6.0622,6.032,5.9753,5.8892,6.0781,6.2801,6.4853,6.3713,6.3096,6.305,6.1275,6.0389,6.0389,6.0389,6.0828,6.1593,6.1402,6.1803,6.2529,6.1669,6.2108,6.3197,6.1983,6.2182,6.3242,6.3771,6.3835,6.3804,6.6907,6.6895,6.6878,6.682,6.6795,6.6795,6.6795,6.6795,6.6804,6.6783,6.6739,6.6712,6.6699,6.6688,6.7008,6.7749,6.7926,6.8308,6.9064,6.8405,6.8725,7.035,6.9512,6.9011,6.9011,6.7422,6.6586,6.662,6.6607,6.6601,6.6601,6.6601,6.6607,6.66,6.6665,6.6677,6.6613,6.6671,6.6751,6.6809,6.6809,6.7842,6.9108,6.6634,6.6692,6.7764,6.5212,6.377,6.3069,6.301,6.2406,6.1685,6.1617,6.1546,6.1491,6.1428,6.1408,6.14,6.14,6.1341,6.1297,6.1297,6.0552,5.959,5.8778,5.7813,5.6888,5.6078,5.5846,5.5787,5.5724,5.5684,5.5682,5.5618,5.566,5.5986,5.6793,5.6904,5.7493,5.9109,5.924,5.9232,5.9286,5.9928,6.0015,5.9343,5.9307,5.9684,6.0546,5.9249,5.91,6.0474,6.0777,6.2449,6.5678,6.3974,6.3069,6.2987,6.1248,6.0389,6.0389,6.0389,6.0828,6.1554,6.0809,6.0943,6.1631,6.0809,6.0561,6.0733,6.1296,6.1143,6.0915,6.3111,6.3473,6.3116,6.691,6.6898,6.6883,6.6878,6.6834,6.6795,6.6795,6.6795,6.6804,6.681,6.6775,6.675,6.6702,6.6691,6.6827,6.7128,6.7189,6.7325,6.7626,6.7353,6.7712,6.89,6.9039,6.887,6.8365,6.7197,6.6614,6.6652,6.6633,6.6613,6.6657,6.6613,6.6633,6.6652,6.6645,6.6657,6.6661,6.668,6.6691,6.6712,6.6712,6.7102,6.7511,6.5991,6.5816,6.6127,6.4082,6.3166,6.2815,6.2231,6.1851,6.1578,6.1518,6.1495,6.1491,6.1421,6.1366,6.1337,6.1337,6.1322,6.1291,6.1245,6.0552,5.98,5.9418,5.8258,5.7138,5.6714,5.6232,5.5826,5.5682,5.564,5.5618,5.5551,5.5988,5.6616,5.7429,5.7934,5.8647,5.9813,5.992,5.9911,5.992,6.0253,6.0365,6.0092,6.008,6.0284,6.071,5.9614,5.9725,6.1403,6.1511,6.24,6.4161,6.3475,6.2847,6.2303,6.0999,6.0389,6.0389,6.0389,6.0561,6.0828,6.0485,6.0552,6.0828,6.0466,6.0666,6.1115,6.0896,6.0953,6.1325,6.2715,6.2673,6.2166,6.6894,6.6908,6.6891,6.6863,6.6839,6.6795,6.6795,6.6795,6.6809,6.6798,6.681,6.6767,6.6712,6.6692,6.6712,6.6712,6.6712,6.6712,6.6712,6.6933,6.7331,6.7946,6.8702,6.8714,6.7891,6.7308,6.6886,6.664,6.6329,6.6224,6.6248,6.5952,6.5835,6.5878,6.5835,6.5828,6.5851,6.587,6.5882,6.5883,6.5883,6.605,6.6166,6.5036,6.4764,6.4764,6.3088,6.2484,6.2387,6.1714,6.1519,6.1568,6.1515,6.1491,6.146,6.1414,6.1352,6.1302,6.1302,6.1287,6.1291,6.1227,6.0728,6.0207,5.9901,5.8702,5.7582,5.7196,5.6463,5.5846,5.5662,5.5618,5.5596,5.5504,5.6184,5.6945,5.7487,5.8245,5.906,5.9892,6.0015,6.0138,6.0379,6.0472,6.0525,6.0578,6.0578,6.0399,5.996,5.9614,5.9906,6.1019,6.1902,6.2618,6.3149,6.3123,6.2674,6.1843,6.0846,6.0389,6.0389,6.0389,6.0389,6.0389,6.0323,6.0352,6.0389,6.0275,6.0599,6.1144,6.059,6.0724,6.1287,6.2086,6.214,6.1995,6.6894,6.6894,6.6874,6.68,6.6805,6.6795,6.6795,6.6795,6.679,6.6798,6.6798,6.6775,6.6692,6.6702,6.6712,6.6692,6.6712,6.6712,6.6712,6.7439,6.7903,6.7885,6.8675,6.8686,6.7811,6.7852,6.745,6.6489,6.5686,6.5297,6.5278,6.4461,6.4091,6.4091,6.4091,6.4059,6.4014,6.4076,6.4099,6.4109,6.4091,6.4608,6.5192,6.3536,6.34,6.3867,6.2192,6.1607,6.1588,6.1519,6.1489,6.1509,6.1495,6.144,6.1402,6.1414,6.1352,6.1302,6.1302,6.1291,6.1281,6.121,6.1155,6.0886,6.0093,5.9186,5.8259,5.739,5.6522,5.5865,5.5724,5.5703,5.564,5.5527,5.6233,5.6759,5.6632,5.7404,5.8291,5.9014,5.919,5.9542,6.0422,6.0499,6.0499,6.0499,6.048,5.9779,5.8188,5.8933,5.9325,5.9197,6.1799,6.3149,6.2987,6.3069,6.2648,6.1704,6.0818,6.0408,6.0389,6.0389,6.0389,6.0389,6.0323,6.0352,6.0389,6.0178,6.0167,6.0313,6.0313,6.0313,6.0379,6.1138,6.2006,6.2742,6.6894,6.6894,6.6894,6.6873,6.6878,6.6854,6.6815,6.6795,6.6795,6.679,6.6805,6.6569,6.5937,6.6371,6.6459,6.5835,6.6361,6.6702,6.6699,6.6933,6.7046,6.699,6.8378,6.8508,6.7054,6.7541,6.7106,6.5661,6.5367,6.494,6.4377,6.4144,6.4027,6.4027,6.4027,6.4046,6.4059,6.4103,6.4095,6.4109,6.4091,6.3926,6.3595,6.3088,6.2679,6.227,6.1724,6.1519,6.1519,6.1445,6.1464,6.1495,6.144,6.1421,6.1394,6.14,6.1356,6.1294,6.1294,6.1225,6.1173,6.1173,6.1173,6.1077,6.0751,6.0017,5.9148,5.818,5.731,5.6498,5.5775,5.5596,5.5551,5.5504,5.616,5.6894,5.7506,5.8317,5.9159,5.9974,6.0142,6.0291,6.054,6.061,6.0629,6.0578,6.0003,5.893,5.7194,5.8514,5.93,5.9197,6.1243,6.2286,6.2169,6.3403,6.3242,6.1704,6.1392,6.0943,6.0389,6.0389,6.0389,6.0389,6.0323,6.0294,6.0323,6.0148,6.0118,6.0167,6.0264,6.0313,6.0408,6.1179,6.1625,6.1804,6.6894,6.6894,6.6894,6.6894,6.6613,6.6379,6.6327,6.6034,6.5936,6.6288,6.6005,6.5691,6.5515,6.5591,6.5465,6.4939,6.5679,6.6331,6.6691,6.671,6.668,6.6638,6.7981,6.8078,6.6696,6.7094,6.6653,6.5291,6.4576,6.4134,6.3981,6.3314,6.3178,6.3476,6.3139,6.3022,6.3022,6.3035,6.304,6.3075,6.3058,6.2805,6.2387,6.2387,6.2055,6.1588,6.1519,6.1489,6.1479,6.1421,6.1434,6.1454,6.1421,6.1394,6.14,6.14,6.1341,6.1297,6.1294,6.1208,6.1137,6.1173,6.1173,6.1137,6.1022,6.0384,5.9611,5.8948,5.7928,5.6944,5.6299,5.5868,5.5573,5.5551,5.6135,5.6919,5.7825,5.87,5.9503,6.0403,6.0578,6.0655,6.0655,6.0655,6.061,6.0578,5.9441,5.833,5.7264,5.824,5.877,5.8693,6.0815,6.2068,6.223,6.3655,6.3483,6.1704,6.1296,6.1039,6.0848,6.0542,6.0389,6.0389,6.0275,6.0264,6.0284,6.0106,6.0026,6.0057,6.0137,6.0186,6.0273,6.0738,6.1347,6.1842,6.6777,6.6777,6.6777,6.6777,6.613,6.5573,6.5492,6.4882,6.4707,6.5507,6.4912,6.4677,6.5301,6.4694,6.416,6.4004,6.4861,6.5777,6.6634,6.6712,6.6712,6.6712,6.7394,6.7373,6.6516,6.6562,6.6102,6.507,6.3473,6.3104,6.3832,6.2238,6.1926,6.2665,6.1849,6.1467,6.14,6.1402,6.1428,6.1484,6.1498,6.1539,6.1578,6.1578,6.1578,6.1578,6.1509,6.1489,6.1479,6.1408,6.1408,6.14,6.14,6.14,6.14,6.14,6.1341,6.1314,6.1306,6.1206,6.1099,6.1192,6.1155,6.108,6.1022,6.0423,5.9842,5.9642,5.8451,5.739,5.7233,5.6458,5.5778,5.5734,5.6165,5.6824,5.7772,5.8597,5.9453,6.0384,6.0629,6.069,6.0613,6.054,6.0463,6.0411,5.8968,5.803,5.7896,5.8081,5.81,5.7817,6.0399,6.2084,6.2682,6.3609,6.3312,6.1792,6.099,6.0924,6.1478,6.0733,6.0389,6.0389,6.0178,6.0167,6.0264,6.0032,5.995,5.9994,6.0026,6.0057,6.0118,6.0057,6.1164,6.2437,6.5879,6.5879,6.5879,6.5879,6.5722,6.5367,6.4696,6.4999,6.539,6.5585,6.5978,6.579,6.4606,6.4907,6.4646,6.3283,6.453,6.5777,6.6634,6.6712,6.6712,6.6712,6.6225,6.5864,6.5659,6.6275,6.5531,6.3339,6.2904,6.2765,6.2886,6.1888,6.1836,6.2594,6.1791,6.1402,6.14,6.1402,6.1396,6.1428,6.1484,6.1515,6.1526,6.1526,6.1526,6.1515,6.1452,6.1421,6.1408,6.1408,6.14,6.14,6.14,6.14,6.14,6.14,6.1341,6.1297,6.1294,6.1208,6.1099,6.1137,6.1099,6.108,6.1022,6.0865,6.0534,5.984,5.9396,5.8933,5.8177,5.7324,5.6681,5.6637,5.6074,5.6206,5.7755,5.8196,5.8917,6.0406,6.0704,6.0507,5.9835,5.971,5.9638,5.9562,5.9166,5.8381,5.7148,5.8272,5.8387,5.7065,5.9524,6.0916,6.1007,6.1858,6.2404,6.2653,6.2452,6.1765,6.0637,6.0428,6.0323,6.0323,6.0148,6.0087,6.0076,6.0057,6.0026,6.0013,6.0186,6.0235,6.0264,6.0235,6.0883,6.1621,6.5683,6.5937,6.6094,6.5664,6.5254,6.4823,6.4367,6.4329,6.4667,6.5487,6.5242,6.4801,6.4262,6.3862,6.3583,6.3478,6.4276,6.5329,6.6615,6.6303,6.6088,6.6088,6.5251,6.4578,6.4159,6.4563,6.413,6.2807,6.2321,6.2493,6.3254,6.2432,6.2504,6.3226,6.2426,6.1823,6.1408,6.1408,6.1421,6.146,6.144,6.1484,6.1507,6.1503,6.1503,6.1503,6.1428,6.1402,6.1408,6.14,6.14,6.14,6.14,6.1386,6.1352,6.1352,6.1291,6.1245,6.1245,6.1173,6.1099,6.1099,6.108,6.1041,6.1021,6.1,6.0864,6.0378,5.9973,5.953,5.9025,5.819,5.7412,5.696,5.6448,5.6504,5.7819,5.8092,5.875,6.036,6.0704,6.0604,6.0071,5.9624,5.9498,5.9843,5.9453,5.884,5.7985,5.8745,5.8795,5.7915,5.9606,6.0698,6.1018,6.1439,6.2061,6.2892,6.249,6.2051,6.1554,6.0743,6.0323,6.0294,6.0167,6.0087,6.0057,6.0057,6.0057,6.0057,6.0167,6.0197,6.0216,6.0186,6.0361,6.0716,6.574,6.6054,6.6269,6.5703,6.4883,6.4297,6.4297,6.3816,6.395,6.5414,6.4345,6.3631,6.4132,6.2641,6.2219,6.375,6.3887,6.4569,6.6147,6.5582,6.5173,6.5173,6.4354,6.3546,6.2813,6.2644,6.2573,6.2561,6.1777,6.2216,6.375,6.2945,6.2983,6.3734,6.2925,6.2128,6.1383,6.1414,6.1428,6.1479,6.1415,6.1421,6.1487,6.1472,6.1479,6.1479,6.1415,6.1408,6.14,6.14,6.14,6.14,6.14,6.1352,6.1302,6.1302,6.1259,6.121,6.121,6.1155,6.1099,6.1099,6.1061,6.1002,6.0999,6.1,6.0982,6.0916,6.0398,5.9896,5.9832,5.9075,5.8143,5.7243,5.6951,5.7057,5.7692,5.8016,5.8717,6.015,6.0334,6.0426,6.0591,5.9684,5.9486,6.0422,5.9829,5.935,5.9197,5.9197,5.9113,5.8899,5.9641,6.054,6.1593,6.1593,6.2185,6.3331,6.2299,6.2128,6.2643,6.1096,6.0352,6.0294,6.0137,6.0068,6.0118,6.0057,6.0057,6.0148,6.0148,6.0148,6.0118,6.0026,5.9963,6.0013,6.5614,6.5092,6.4844,6.5488,6.4883,6.4296,6.4309,6.4831,6.5333,6.557,6.539,6.4975,6.4275,6.2641,6.1985,6.2971,6.3069,6.3458,6.4393,6.4335,6.4276,6.4276,6.3497,6.2981,6.2794,6.206,6.1647,6.1603,6.1453,6.1905,6.2857,6.1997,6.2022,6.2754,6.1963,6.1483,6.1318,6.1386,6.14,6.1414,6.14,6.1414,6.1414,6.1414,6.1414,6.1414,6.14,6.14,6.14,6.14,6.14,6.14,6.14,6.1352,6.1302,6.1302,6.1291,6.1261,6.121,6.1173,6.1173,6.1099,6.1099,6.108,6.1002,6.1002,6.1002,6.0982,6.0845,6.0725,6.0718,5.9961,5.9004,5.8078,5.7335,5.6898,5.6956,5.7632,5.8462,5.9432,5.8957,5.911,6.0551,5.9235,5.8892,6.0384,6.0384,6.0001,5.9255,5.9163,5.8811,5.8157,5.8226,5.9319,6.1573,6.1593,6.2777,6.505,6.3465,6.2395,6.1745,6.0771,6.0313,6.0313,6.0106,6.0057,6.0099,6.0068,6.0167,6.0294,6.0332,6.0332,6.0264,6.0076,5.9994,5.9982,6.5058,6.4958,6.4992,6.4883,6.4551,6.4452,6.4942,6.5345,6.5598,6.5609,6.5175,6.4526,6.3631,6.2368,6.1946,6.2814,6.2903,6.3244,6.4043,6.3672,6.3439,6.3439,6.2591,6.2104,6.2071,6.1666,6.1434,6.1408,6.1408,6.1855,6.2691,6.2348,6.2368,6.2685,6.2302,6.1855,6.1408,6.14,6.1414,6.1408,6.14,6.1414,6.1408,6.14,6.14,6.14,6.14,6.14,6.14,6.14,6.14,6.14,6.14,6.1356,6.131,6.131,6.1261,6.1173,6.1155,6.1155,6.1137,6.1061,6.108,6.108,6.1022,6.1022,6.1061,6.1002,6.0595,6.0359,6.0814,6.0134,5.9354,5.8894,5.8193,5.7655,5.7585,5.7935,5.8711,6.0022,5.9331,5.9262,6.052,5.9466,5.9204,6.0349,6.0472,6.0319,5.989,5.9843,5.9691,5.9354,5.9308,5.9816,6.0924,6.1382,6.2414,6.4,6.3255,6.2701,6.228,6.0972,6.0323,6.0313,6.0205,6.0186,6.0216,6.0216,6.0275,6.0352,6.0389,6.0332,6.0167,6.0013,5.995,5.995]},{"header":{"parameterUnit":"m.s-1","parameterCategory":1,"la1":30.6,"la2":28.766,"lo1":-90.7593,"lo2":-88.6598,"dy":0.0162,"dx":0.0183,"nx":116,"ny":114,"refTime":"2023-08-28T06:00:00:Z","depth":0,"parameterNumber":3,"parameterNumberName":"V-component_of_WINDS"},"data":[0.0,0.0,0.0,0.0,0.0,0.0,0.0,0.0,0.0,0.0,0.0,0.0,0.0,0.0,0.0,0.0,0.0,0.0,0.0,0.0,0.0,0.0,0.0,0.0,0.0,0.0,0.0,0.0,0.0,0.0,0.0,0.0,0.0,0.0,0.0,0.0,0.0,0.0,0.0,0.0,0.0,0.0,0.0,0.0,0.0,0.0,0.0,0.0,0.0,0.0,0.0,0.0,0.0,0.0,0.0,0.0,0.0,0.0,0.0,0.0,0.0,0.0,0.0,0.0,0.0,0.0,0.0,0.0,0.0,0.0,0.0,0.0,0.0,0.0,0.0,0.0,0.0,0.0,0.0,0.0,0.0,0.0,0.0,0.0,0.0,0.0,0.0,0.0,0.0,0.0,0.0,0.0,0.0,0.0,0.0,0.0,0.0,0.0,0.0,0.0,0.0,0.0,0.0,0.0,0.0,0.0,0.0,0.0,0.0,0.0,0.0,0.0,0.0,0.0,0.0,0.0,0.0,0.0,0.0,0.0,0.0,0.0,0.0,0.0,0.0,0.0,0.0,0.0,0.0,0.0,0.0,0.0,0.0,0.0,0.0,0.0,0.0,0.0,0.0,0.0,0.0,0.0,0.0,0.0,0.0,0.0,0.0,0.0,0.0,0.0,0.0,0.0,0.0,0.0,0.0,0.0,0.0,0.0,0.0,0.0,0.0,0.0,0.0,0.0,0.0,0.0,0.0,0.0,0.0,0.0,0.0,0.0,0.0,0.0,0.0,0.0,0.0,0.0,0.0,0.0,0.0,0.0,0.0,0.0,0.0,0.0,0.0,0.0,0.0,0.0,0.0,0.0,0.0,0.0,0.0,0.0,0.0,0.0,0.0,0.0,0.0,0.0,0.0,0.0,0.0,0.0,0.0,0.0,0.0,0.0,0.0,0.0,0.0,0.0,0.0,0.0,0.0,0.0,0.0,0.0,0.0,0.0,0.0,0.0,0.0,0.0,0.0,0.0,0.0,0.0,0.0,0.0,0.0,0.0,0.0,0.0,0.0,0.0,0.0,0.0,0.0,0.0,0.0,0.0,0.0,0.0,0.0,0.0,0.0,0.0,0.0,0.0,0.0,0.0,0.0,0.0,0.0,0.0,0.0,0.0,0.0,0.0,0.0,0.0,0.0,0.0,0.0,0.0,0.0,0.0,0.0,0.0,0.0,0.0,0.0,0.0,0.0,0.0,0.0,0.0,0.0,0.0,0.0,0.0,0.0,0.0,0.0,0.0,0.0,0.0,0.0,0.0,0.0,0.0,0.0,0.0,0.0,0.0,0.0,0.0,0.0,0.0,0.0,0.0,0.0,0.0,0.0,0.0,0.0,0.0,0.0,0.0,0.0,0.0,0.0,0.0,0.0,0.0,0.0,0.0,0.0,0.0,0.0,0.0,0.0,0.0,0.0,0.0,0.0,0.0,0.0,0.0,0.0,0.0,0.0,0.0,0.0,0.0,0.0,0.0,0.0,0.0,0.0,0.0,0.0,0.0,0.0,0.0,0.0,0.0,0.0,0.0,0.0,0.0,0.0,0.0,0.0,0.0,0.0,0.0,0.0,0.0,0.0,0.0,0.0,0.0,0.0,0.0,0.0,0.0,0.0,0.0,0.0,0.0,0.0,0.0,0.0,0.0,0.0,0.0,0.0,0.0,0.0,0.0,0.0,0.0,0.0,0.0,0.0,0.0,0.0,0.0,0.0,0.0,0.0,0.0,0.0,0.0,0.0,0.0,0.0,0.0,0.0,0.0,0.0,0.0,0.0,0.0,0.0,0.0,0.0,0.0,0.0,0.0,0.0,0.0,0.0,0.0,0.0,0.0,0.0,0.0,0.0,0.0,0.0,0.0,0.0,0.0,0.0,0.0,0.0,0.0,0.0,0.0,0.0,0.0,0.0,0.0,0.0,0.0,0.0,0.0,0.0,0.0,0.0,0.0,0.0,0.0,0.0,0.0,0.0,0.0,0.0,0.0,0.0,0.0,0.0,0.0,0.0,0.0,0.0,0.0,0.0,0.0,0.0,0.0,0.0,0.0,0.0,0.0,0.0,0.0,0.0,0.0,0.0,0.0,0.0,0.0,0.0,0.0,0.0,0.0,0.0,0.0,0.0,0.0,0.0,0.0,0.0,0.0,0.0,0.0,0.0,0.0,0.0,0.0,0.0,0.0,0.0,0.0,0.0,0.0,0.0,0.0,0.0,0.0,0.0,0.0,0.0,0.0,0.0,0.0,0.0,0.0,0.0,0.0,0.0,0.0,0.0,0.0,0.0,0.0,0.0,0.0,0.0,0.0,0.0,0.0,0.0,0.0,0.0,0.0,0.0,0.0,0.0,0.0,0.0,0.0,0.0,0.0,0.0,0.0,0.0,0.0,0.0,0.0,0.0,0.0,0.0,0.0,0.0,0.0,0.0,0.0,0.0,0.0,0.0,0.0,0.0,0.0,0.0,0.0,0.0,0.0,0.0,0.0,0.0,0.0,0.0,0.0,0.0,0.0,0.0,0.0,0.0,0.0,0.0,0.0,0.0,0.0,0.0,0.0,0.0,0.0,0.0,0.0,0.0,0.0,0.0,0.0,0.0,0.0,0.0,0.0,0.0,0.0,0.0,0.0,0.0,0.0,0.0,0.0,0.0,0.0,0.0,0.0,0.0,0.0,0.0,0.0,0.0,0.0,0.0,0.0,0.0,0.0,0.0,0.0,0.0,0.0,0.0,0.0,0.0,0.0,0.0,0.0,0.0,0.0,0.0,0.0,0.0,0.0,0.0,0.0,0.0,0.0,0.0,0.0,0.0,0.0,0.0,0.0,0.0,0.0,0.0,0.0,0.0,0.0,0.0,0.0,0.0,0.0,0.0,0.0,0.0,0.0,0.0,0.0,0.0,0.0,0.0,0.0,0.0,0.0,0.0,0.0,0.0,0.0,0.0,0.0,0.0,0.0,0.0,0.0,0.0,0.0,0.0,0.0,0.0,0.0,0.0,0.0,0.0,0.0,0.0,0.0,0.0,0.0,0.0,0.0,0.0,0.0,0.0,0.0,0.0,0.0,0.0,0.0,0.0,0.0,0.0,0.0,0.0,0.0,0.0,0.0,0.0,0.0,0.0,0.0,0.0,0.0,0.0,0.0,0.0,0.0,0.0,0.0,0.0,0.0,0.0,0.0,0.0,0.0,0.0,0.0,0.0,0.0,0.0,0.0,0.0,0.0,0.0,0.0,0.0,0.0,0.0,0.0,0.0,0.0,0.0,0.0,0.0,0.0,0.0,0.0,0.0,0.0,0.0,0.0,0.0,0.0,0.0,0.0,0.0,0.0,0.0,0.0,0.0,0.0,0.0,0.0,0.0,0.0,0.0,0.0,0.0,0.0,0.0,0.0,0.0,0.0,0.0,0.0,0.0,0.0,0.0,0.0,0.0,0.0,0.0,0.0,0.0,0.0,0.0,0.0,0.0,0.0,0.0,0.0,0.0,0.0,0.0,0.0,0.0,0.0,0.0,0.0,0.0,0.0,0.0,0.0,0.0,0.0,0.0,0.0,0.0,0.0,0.0,0.0,0.0,0.0,0.0,0.0,0.0,0.0,0.0,0.0,0.0,0.0,0.0,0.0,0.0,0.0,0.0,0.0,0.0,0.0,0.0,0.0,0.0,0.0,0.0,0.0,0.0,0.0,0.0,0.0,0.0,0.0,0.0,0.0,0.0,0.0,0.0,0.0,0.0,0.0,0.0,0.0,0.0,0.0,0.0,0.0,0.0,0.0,0.0,0.0,0.0,0.0,0.0,0.0,0.0,0.0,0.0,0.0,0.0,0.0,0.0,0.0,0.0,0.0,0.0,0.0,0.0,0.0,0.0,0.0,0.0,0.0,0.0,0.0,0.0,0.0,0.0,0.0,0.0,0.0,0.0,0.0,0.0,0.0,0.0,0.0,0.0,0.0,0.0,0.0,0.0,0.0,0.0,0.0,0.0,0.0,0.0,0.0,0.0,0.0,0.0,0.0,0.0,0.0,0.0,0.0,0.0,0.0,0.0,0.0,0.0,0.0,0.0,0.0,0.0,0.0,0.0,0.0,0.0,0.0,0.0,0.0,0.0,0.0,0.0,0.0,0.0,0.0,0.0,0.0,0.0,0.0,0.0,0.0,0.0,0.0,0.0,0.0,0.0,0.0,0.0,0.0,0.0,0.0,0.0,0.0,0.0,0.0,0.0,0.0,0.0,0.0,0.0,0.0,0.0,0.0,0.0,0.0,0.0,0.0,0.0,0.0,0.0,0.0,0.0,0.0,0.0,0.0,0.0,0.0,0.0,0.0,0.0,0.0,0.0,0.0,0.0,0.0,0.0,0.0,0.0,0.0,0.0,0.0,0.0,0.0,0.0,0.0,0.0,0.0,0.0,0.0,0.0,0.0,0.0,0.0,0.0,0.0,0.0,0.0,0.0,0.0,0.0,0.0,0.0,0.0,0.0,0.0,0.0,0.0,0.0,0.0,0.0,0.0,0.0,0.0,0.0,0.0,0.0,0.0,0.0,0.0,0.0,0.0,0.0,0.0,0.0,0.0,0.0,0.0,0.0,0.0,0.0,0.0,0.0,0.0,0.0,0.0,0.0,0.0,0.0,0.0,0.0,0.0,0.0,0.0,0.0,0.0,0.0,0.0,0.0,0.0,0.0,0.0,0.0,0.0,0.0,0.0,0.0,0.0,0.0,0.0,0.0,0.0,0.0,0.0,0.0,0.0,0.0,0.0,0.0,0.0,0.0,0.0,0.0,0.0,0.0,0.0,0.0,0.0,0.0,0.0,0.0,0.0,0.0,0.0,0.0,0.0,0.0,0.0,0.0,0.0,0.0,0.0,0.0,0.0,0.0,0.0,0.0,0.0,0.0,0.0,0.0,0.0,0.0,0.0,0.0,0.0,0.0,0.0,0.0,0.0,0.0,0.0,0.0,0.0,0.0,0.0,0.0,0.0,0.0,0.0,0.0,0.0,0.0,0.0,0.0,0.0,0.0,0.0,0.0,0.0,0.0,0.0,0.0,0.0,0.0,0.0,0.0,0.0,0.0,0.0,0.0,0.0,0.0,0.0,0.0,0.0,0.0,0.0,0.0,0.0,0.0,0.0,0.0,0.0,0.0,0.0,0.0,0.0,0.0,0.0,0.0,0.0,0.0,0.0,0.0,0.0,0.0,0.0,0.0,0.0,0.0,0.0,0.0,0.0,0.0,0.0,0.0,0.0,0.0,0.0,0.0,0.0,0.0,0.0,0.0,0.0,0.0,0.0,0.0,0.0,0.0,0.0,0.0,0.0,0.0,0.0,0.0,0.0,0.0,0.0,0.0,0.0,0.0,0.0,0.0,0.0,0.0,0.0,0.0,0.0,0.0,0.0,0.0,0.0,0.0,0.0,0.0,0.0,0.0,0.0,0.0,0.0,0.0,0.0,0.0,0.0,0.0,0.0,0.0,0.0,0.0,0.0,0.0,0.0,0.0,0.0,0.0,0.0,0.0,0.0,0.0,0.0,0.0,0.0,0.0,0.0,0.0,0.0,0.0,0.0,0.0,0.0,0.0,0.0,0.0,0.0,0.0,0.0,0.0,0.0,0.0,0.0,0.0,0.0,0.0,0.0,0.0,0.0,0.0,0.0,0.0,0.0,0.0,0.0,0.0,0.0,0.0,0.0,0.0,0.0,0.0,0.0,0.0,0.0,0.0,0.0,0.0,0.0,0.0,0.0,0.0,0.0,0.0,0.0,0.0,0.0,0.0,0.0,0.0,0.0,0.0,0.0,0.0,0.0,0.0,0.0,0.0,0.0,0.0,0.0,0.0,0.0,0.0,0.0,0.0,0.0,0.0,0.0,0.0,0.0,0.0,0.0,0.0,0.0,0.0,0.0,0.0,0.0,0.0,0.0,0.0,0.0,0.0,0.0,0.0,0.0,0.0,0.0,0.0,0.0,0.0,0.0,0.0,0.0,0.0,0.0,0.0,0.0,0.0,0.0,0.0,0.0,0.0,0.0,0.0,0.0,0.0,0.0,0.0,0.0,0.0,0.0,0.0,0.0,0.0,0.0,0.0,0.0,0.0,0.0,-0.4994,-0.4994,0.0,0.0,0.0,0.0,0.0,0.0,0.0,0.0,0.0,0.0,0.0,0.0,0.0,0.0,0.0,0.0,0.0,0.0,0.0,0.0,0.0,0.0,0.0,0.0,0.0,0.0,0.0,0.0,0.0,0.0,0.0,0.0,0.0,0.0,0.0,0.0,0.0,0.0,-0.1472,-0.1479,-0.1478,-0.1177,-0.1166,-0.1436,0.0,0.0,0.0,0.0,0.0,0.0,0.0,0.0,0.0,0.0,0.0,0.0,0.0,0.0,0.0,0.0,0.0,0.0,0.0,0.0,0.0,0.0,0.0,0.0,0.0,0.0,0.0,0.0,0.0,0.0,0.0,0.0,0.0,0.0,0.0,0.0,0.0,0.0,0.0,0.0,0.0,0.0,0.0,0.0,0.0,0.0,0.0,0.0,0.0,0.0,0.0,0.0,0.0,0.0,0.0,0.0,0.0,0.0,0.0,0.0,0.0,0.0,0.0,0.0,0.0,0.0,0.0,0.0,0.0,0.0,-0.5147,-0.5002,0.0,0.0,0.0,0.0,0.0,0.0,0.0,0.0,0.0,0.0,0.0,0.0,0.0,0.0,0.0,0.0,0.0,0.0,0.0,0.0,0.0,0.0,0.0,-0.104,-0.1124,-0.0787,-0.1104,-0.1267,0.0,0.0,0.0,0.0,0.0,0.0,0.0,-0.1574,-0.159,-0.1496,-0.1516,-0.1431,-0.1334,-0.0937,-0.0922,-0.1451,-0.1451,0.0,0.0,0.0,0.0,0.0,0.0,0.0,0.0,0.0,0.0,0.0,0.0,0.0,0.0,0.0,0.0,0.0,0.0,0.0,0.0,0.0,0.0,0.0,0.0,0.0,0.0,0.0,0.0,0.0,0.0,0.0,0.0,0.0,0.0,0.0,0.0,0.0,0.0,0.0,0.0,0.0,0.0,0.0,0.0,0.0,0.0,0.0,0.0,0.0,0.0,0.0,0.0,0.0,0.0,0.0,0.0,0.0,0.0,0.0,0.0,0.0,0.0,0.0,-0.5339,-0.5269,-0.5271,-0.5347,-0.5382,-0.5373,-0.5222,-0.5048,-0.483,-0.4723,0.0,0.0,0.0,0.0,0.0,0.0,0.0,0.0,0.0,0.0,0.0,0.0,0.0,0.0,0.0,0.0,0.0,0.0,0.0,0.0,0.0,-0.126,-0.1262,-0.1179,-0.1281,-0.1308,-0.1418,0.0,0.0,0.0,0.0,0.0,-0.1513,-0.1544,-0.156,-0.156,-0.1537,-0.124,-0.0763,-0.0761,-0.1043,-0.1608,-0.1514,-0.1514,-0.1513,0.0,0.0,0.0,0.0,0.0,0.0,0.0,0.0,0.0,0.0,0.0,0.0,0.0,0.0,0.0,0.0,0.0,0.0,0.0,0.0,0.0,0.0,0.0,0.0,0.0,0.0,0.0,0.0,0.0,0.0,0.0,0.0,0.0,0.0,0.0,0.0,0.0,0.0,0.0,0.0,0.0,-0.5998,-0.6321,0.0,0.0,0.0,0.0,0.0,0.0,0.0,0.0,0.0,0.0,0.0,0.0,0.0,-0.6785,-0.7105,-0.6561,-0.6232,-0.6232,-0.5691,-0.5363,-0.5363,-0.5375,-0.5382,-0.538,-0.5357,0.0,-0.5234,-0.501,0.0,0.0,0.0,0.0,0.0,0.0,0.0,0.0,0.0,0.0,0.0,0.0,0.0,0.0,0.0,0.0,0.0,0.0,0.0,0.0,0.0,-0.1303,-0.132,-0.1286,-0.1326,-0.1358,-0.1371,-0.1399,0.0,0.0,0.0,-0.1546,-0.1577,-0.159,-0.1597,-0.1597,-0.1566,-0.1268,-0.0788,-0.1072,-0.1365,-0.1577,-0.1577,-0.1558,-0.1525,-0.1512,0.0,0.0,0.0,0.0,0.0,0.0,0.0,0.0,0.0,0.0,0.0,0.0,0.0,0.0,0.0,0.0,0.0,0.0,0.0,0.0,0.0,0.0,0.0,0.0,0.0,0.0,0.0,0.0,0.0,0.0,0.0,0.0,0.0,0.0,0.0,0.0,0.0,0.0,0.0,-0.5921,-0.604,-0.6441,-0.6384,-0.6412,0.0,0.0,0.0,0.0,0.0,0.0,0.0,0.0,0.0,-0.6966,-0.6922,-0.7091,-0.7255,-0.6868,-0.6675,-0.6448,-0.599,-0.5645,-0.5529,-0.5529,-0.5529,-0.5529,-0.5529,-0.5529,-0.5524,-0.4905,-0.4798,-0.4725,0.0,0.0,0.0,0.0,-0.3805,-0.3921,0.0,0.0,0.0,0.0,0.0,0.0,0.0,0.0,0.0,0.0,0.0,0.0,-0.1271,-0.1337,-0.1364,-0.1318,-0.1363,-0.1395,-0.1401,-0.1438,-0.1482,-0.1536,-0.1567,-0.1594,-0.1616,-0.1617,-0.1617,-0.1617,-0.1594,-0.1395,-0.0909,-0.1195,-0.1495,-0.1617,-0.1617,-0.1592,-0.1549,-0.1541,-0.1538,-0.1534,0.0,0.0,0.0,0.0,0.0,0.0,0.0,0.0,0.0,0.0,0.0,0.0,0.0,0.0,0.0,0.0,0.0,0.0,0.0,0.0,0.0,0.0,0.0,0.0,0.0,0.0,0.0,0.0,0.0,0.0,0.0,0.0,0.0,0.0,0.0,0.0,0.0,-0.6087,-0.6123,-0.6496,-0.6457,-0.6492,0.0,0.0,0.0,0.0,0.0,0.0,-0.7027,-0.6919,-0.698,-0.7201,-0.732,-0.7383,-0.7383,-0.7238,-0.693,-0.6581,-0.6235,-0.5881,-0.5643,-0.5643,-0.5643,-0.5643,-0.5643,-0.5669,-0.5586,-0.5125,-0.4888,-0.4824,-0.4356,-0.4237,-0.4353,-0.4121,-0.4004,-0.4004,0.0,0.0,0.0,0.0,0.0,0.0,0.0,0.0,0.0,0.0,0.0,-0.1302,-0.1301,-0.133,-0.1349,-0.143,-0.1373,-0.1402,-0.1521,-0.1489,-0.1536,-0.1568,-0.1598,-0.1615,-0.1617,-0.1617,-0.1617,-0.1617,-0.1615,-0.1414,-0.1111,-0.0908,-0.111,-0.1617,-0.1617,-0.1615,-0.1611,-0.1581,-0.1569,-0.1564,-0.1504,0.0,0.0,0.0,0.0,0.0,0.0,0.0,0.0,0.0,0.0,0.0,0.0,0.0,0.0,0.0,0.0,0.0,0.0,0.0,0.0,0.0,0.0,0.0,0.0,0.0,0.0,0.0,0.0,0.0,0.0,0.0,0.0,0.0,0.0,0.0,0.0,0.0,0.0,-0.6543,-0.6559,0.0,0.0,0.0,0.0,-0.6959,-0.6978,-0.7032,-0.7141,-0.726,-0.7326,-0.7326,-0.7445,-0.7508,-0.7508,-0.7277,-0.693,-0.6581,-0.6235,-0.5881,-0.5643,-0.5643,-0.5643,-0.5643,-0.5643,-0.5743,-0.589,-0.5592,-0.5407,-0.518,-0.518,-0.4943,-0.4824,-0.4707,-0.4589,-0.4234,0.0,0.0,0.0,0.0,0.0,0.0,0.0,0.0,-0.1493,-0.1493,-0.1505,-0.1522,-0.1463,-0.143,-0.1375,-0.1375,-0.1438,-0.1482,-0.1493,-0.1532,-0.1569,-0.1599,-0.1832,-0.1952,-0.1952,-0.1748,-0.1637,-0.1617,-0.1637,-0.1646,-0.144,-0.1457,-0.1464,-0.1672,-0.1654,-0.1646,-0.1644,-0.1613,-0.16,-0.1597,-0.1555,-0.1528,0.0,0.0,0.0,0.0,0.0,0.0,0.0,0.0,0.0,0.0,0.0,0.0,0.0,0.0,0.0,0.0,0.0,0.0,0.0,0.0,0.0,0.0,0.0,0.0,0.0,0.0,0.0,0.0,0.0,0.0,0.0,0.0,0.0,0.0,0.0,0.0,0.0,-0.6668,-0.6622,0.0,-0.6934,-0.6953,-0.694,-0.6983,-0.7054,-0.7146,-0.7263,-0.7312,-0.7372,-0.7451,-0.7573,-0.7635,-0.7635,-0.735,-0.7145,-0.6788,-0.649,-0.6151,-0.591,-0.5965,-0.5988,-0.5988,-0.5988,-0.6025,-0.6082,-0.6016,-0.5743,-0.5496,-0.5245,-0.5119,-0.5119,-0.5119,-0.4994,-0.4868,0.0,0.0,0.0,0.0,0.0,0.0,0.0,0.0,-0.1572,-0.1493,-0.1593,-0.1619,-0.148,-0.1456,-0.141,-0.142,-0.1476,-0.1515,-0.1525,-0.1555,-0.1684,-0.1716,-0.2067,-0.2093,-0.1989,-0.178,-0.1667,-0.1646,-0.1667,-0.1676,-0.1677,-0.1695,-0.1704,-0.1703,-0.1684,-0.1671,-0.1661,-0.1641,-0.1626,-0.1614,-0.1583,-0.1559,-0.1537,0.0,0.0,0.0,0.0,0.0,0.0,0.0,0.0,0.0,0.0,0.0,0.0,0.0,0.0,0.0,0.0,0.0,0.0,0.0,0.0,0.0,0.0,0.0,0.0,0.0,0.0,0.0,0.0,0.0,0.0,0.0,0.0,0.0,0.0,-0.6505,-0.6634,-0.6955,-0.6875,-0.6981,-0.7275,-0.7186,-0.7059,-0.71,-0.7173,-0.7269,-0.7391,-0.7437,-0.7378,-0.7458,-0.7576,-0.752,-0.7399,-0.751,-0.7321,-0.6953,-0.6804,-0.66,-0.6227,-0.6155,-0.618,-0.618,-0.618,-0.6198,-0.6227,-0.6227,-0.5986,-0.5747,-0.556,-0.5538,-0.5538,-0.5411,-0.5283,-0.5153,0.0,0.0,0.0,0.0,0.0,0.0,0.0,-0.1436,-0.1572,-0.1338,-0.1553,-0.1597,-0.1349,-0.1401,-0.1447,-0.1478,-0.1483,-0.1496,-0.1525,-0.1557,-0.1786,-0.2122,-0.2198,-0.2132,-0.1705,-0.1705,-0.1705,-0.1704,-0.1705,-0.1705,-0.1705,-0.1707,-0.1707,-0.1707,-0.1706,-0.169,-0.1665,-0.1664,-0.1647,-0.1617,-0.1585,-0.1572,-0.1565,0.0,0.0,0.0,0.0,0.0,0.0,0.0,0.0,0.0,0.0,0.0,0.0,0.0,0.0,0.0,0.0,0.0,0.0,0.0,0.0,0.0,0.0,0.0,0.0,0.0,0.0,0.0,0.0,0.0,0.0,0.0,0.0,0.0,-0.6442,-0.6859,-0.7194,-0.7209,-0.7336,-0.7414,-0.7419,-0.7312,-0.7209,-0.7328,-0.7339,-0.7396,-0.7524,-0.7638,-0.7581,-0.7225,-0.7334,-0.7271,-0.6905,-0.7383,-0.7433,-0.7055,-0.7162,-0.6958,-0.6704,-0.6319,-0.6188,-0.6188,-0.6188,-0.6239,-0.6321,-0.6321,-0.6107,-0.5897,-0.6126,-0.6188,-0.6188,-0.5678,-0.542,-0.5161,0.0,0.0,0.0,0.0,0.0,0.0,0.0,-0.1597,-0.174,-0.1529,-0.171,-0.1744,-0.1631,-0.1501,-0.1447,-0.1478,-0.1521,-0.155,-0.1558,-0.1807,-0.2073,-0.2459,-0.2269,-0.2172,-0.2063,-0.1845,-0.1726,-0.1704,-0.1726,-0.1737,-0.1737,-0.176,-0.177,-0.1769,-0.1747,-0.1733,-0.1724,-0.1702,-0.1688,-0.1676,-0.1625,-0.1591,-0.157,0.0,0.0,0.0,0.0,0.0,0.0,0.0,0.0,0.0,0.0,0.0,0.0,0.0,0.0,0.0,0.0,0.0,0.0,0.0,0.0,0.0,0.0,0.0,0.0,0.0,0.0,0.0,0.0,0.0,0.0,0.0,-0.6903,-0.6986,-0.6881,-0.7303,-0.7539,-0.7663,-0.7495,-0.7451,-0.7543,-0.7329,-0.7298,-0.7334,-0.719,-0.7325,-0.7763,-0.7485,-0.7533,-0.7825,-0.7865,-0.7757,-0.7386,-0.7367,-0.7167,-0.6787,-0.6625,-0.6541,-0.6412,-0.6481,-0.638,-0.638,-0.638,-0.6392,-0.6417,-0.6417,-0.6295,-0.5908,-0.5994,-0.5846,-0.5583,-0.5452,-0.5452,-0.5318,0.0,0.0,0.0,0.0,0.0,0.0,0.0,-0.1676,-0.1823,-0.1543,-0.1722,-0.1839,-0.1558,-0.1517,-0.1467,-0.1497,-0.1543,-0.1681,-0.1807,-0.2288,-0.2463,-0.2405,-0.2423,-0.2321,-0.199,-0.1879,-0.176,-0.1742,-0.1773,-0.1892,-0.1991,-0.2025,-0.2034,-0.2019,-0.1998,-0.1871,-0.1748,-0.1731,-0.1716,-0.1701,-0.1667,-0.1737,-0.1806,-0.1779,-0.1853,-0.1925,-0.2265,-0.2528,-0.2709,-0.3141,0.0,0.0,0.0,0.0,0.0,0.0,0.0,0.0,0.0,0.0,0.0,0.0,0.0,0.0,0.0,0.0,0.0,0.0,0.0,0.0,0.0,0.0,0.0,0.0,-0.734,-0.7553,-0.7611,-0.7793,-0.7996,-0.8128,-0.7868,-0.7715,-0.7791,-0.7573,-0.7316,-0.7248,-0.7128,-0.725,-0.75,-0.7288,-0.7217,-0.7423,-0.7474,-0.7372,-0.699,-0.7096,-0.7038,-0.6821,-0.6651,-0.6717,-0.6757,-0.6639,-0.6511,-0.6509,-0.647,-0.6453,-0.6453,-0.6453,-0.6185,-0.5646,0.0,0.0,0.0,0.0,-0.5245,-0.5245,0.0,0.0,0.0,0.0,0.0,0.0,0.0,-0.1594,-0.1746,-0.1385,-0.1662,-0.1782,-0.1478,-0.1449,-0.1497,-0.1523,-0.156,-0.1807,-0.2186,-0.2796,-0.2847,-0.2303,-0.2561,-0.2469,-0.1795,-0.1795,-0.1795,-0.1795,-0.1822,-0.1936,-0.2245,-0.2279,-0.2276,-0.2244,-0.2244,-0.2005,-0.176,-0.176,-0.1744,-0.1719,-0.1716,-0.18,-0.2073,-0.2004,-0.2173,-0.2362,-0.2601,-0.2676,-0.277,-0.3242,0.0,0.0,0.0,0.0,0.0,0.0,0.0,0.0,0.0,0.0,0.0,0.0,0.0,0.0,0.0,0.0,0.0,0.0,0.0,0.0,0.0,0.0,0.0,0.0,-0.7893,-0.8136,-0.8373,-0.8419,-0.8484,-0.8605,-0.8401,-0.8256,-0.8271,-0.7815,-0.7463,-0.7207,-0.721,-0.7165,-0.6934,-0.7107,0.0,0.0,0.0,-0.6591,-0.6339,-0.6708,-0.6938,-0.702,-0.6981,-0.7068,-0.7279,-0.6779,-0.6607,-0.66,-0.6521,-0.6484,-0.6484,-0.6484,-0.608,-0.5405,-0.5662,-0.5665,-0.5406,-0.5405,-0.5133,-0.4997,0.0,0.0,0.0,0.0,0.0,0.0,0.0,-0.1497,-0.1597,-0.1332,-0.1594,-0.1707,-0.1421,-0.148,-0.152,-0.1525,-0.1797,-0.2294,-0.2918,-0.3052,-0.2972,-0.2568,-0.2689,-0.2469,-0.1795,-0.1795,-0.1907,-0.2132,-0.2139,-0.2252,-0.2581,-0.259,-0.2477,-0.2356,-0.2244,-0.2031,-0.1823,-0.1823,-0.1819,-0.1812,-0.1787,-0.1744,-0.1797,-0.1967,-0.1951,-0.1943,-0.2469,-0.273,-0.2822,-0.3258,-0.3706,-0.3976,-0.3885,-0.416,0.0,0.0,0.0,0.0,0.0,0.0,0.0,0.0,0.0,0.0,0.0,0.0,0.0,0.0,0.0,0.0,0.0,0.0,0.0,-0.7916,-0.8149,-0.836,-0.8598,-0.8806,-0.9079,-0.9106,-0.8798,-0.8517,-0.8393,-0.8178,-0.779,-0.7212,-0.7155,-0.7055,-0.7143,-0.6933,-0.6855,-0.7173,-0.7196,-0.7114,-0.6794,-0.7106,-0.707,-0.6812,-0.69,0.0,-0.6864,-0.6709,-0.67,-0.6698,-0.6682,-0.6674,-0.6674,-0.6674,-0.6258,-0.5558,-0.5219,-0.5232,-0.5145,-0.5419,-0.5556,-0.5556,0.0,0.0,0.0,0.0,0.0,0.0,0.0,-0.1493,-0.1519,-0.134,-0.1514,-0.1624,-0.1429,-0.1476,-0.151,-0.1525,-0.2027,-0.2542,-0.2805,-0.3182,-0.3114,-0.2692,-0.2693,-0.2469,-0.1795,-0.1795,-0.1908,-0.2244,-0.2264,-0.2499,-0.2953,-0.2863,-0.2644,-0.2644,-0.23,-0.208,-0.1863,-0.1863,-0.1863,-0.186,-0.1829,-0.18,-0.1764,-0.2005,-0.2074,-0.2172,-0.2613,-0.2886,-0.2981,-0.3446,-0.39,-0.4251,-0.4157,-0.4416,-0.4759,0.0,0.0,0.0,0.0,0.0,0.0,0.0,0.0,0.0,0.0,0.0,0.0,0.0,0.0,-0.7464,-0.7739,0.0,-0.7581,-0.8252,-0.8336,-0.8543,-0.9025,-0.9174,-0.9239,-0.8937,-0.8826,-0.8589,-0.8304,-0.801,-0.7752,-0.7627,-0.7217,-0.6954,-0.7207,-0.6836,-0.6764,-0.7107,-0.7254,-0.7195,-0.7057,-0.7206,-0.7165,-0.679,-0.6833,-0.6856,-0.6858,-0.6811,-0.679,-0.6788,-0.6745,-0.6727,-0.6727,-0.6585,-0.6189,-0.5657,-0.5619,-0.5464,-0.5184,-0.5742,-0.5881,-0.6021,0.0,0.0,0.0,0.0,0.0,0.0,0.0,-0.1415,-0.1519,-0.134,-0.1514,-0.154,-0.1429,-0.1463,-0.1498,-0.1635,-0.2258,-0.2668,-0.2678,-0.3307,-0.3363,-0.2806,-0.2693,-0.2469,-0.1907,-0.1907,-0.202,-0.2244,-0.2388,-0.2747,-0.3318,-0.3023,-0.2812,-0.2813,-0.2472,-0.2126,-0.1894,-0.1894,-0.1894,-0.1892,-0.1862,-0.1846,-0.1828,-0.1933,-0.2201,-0.2509,-0.2773,-0.3053,-0.3348,-0.3552,-0.3909,-0.4337,-0.4337,-0.4582,-0.4908,-0.4905,-0.5195,0.0,0.0,0.0,0.0,0.0,0.0,0.0,0.0,-0.718,-0.739,-0.75,-0.7632,-0.7654,-0.7871,-0.7727,-0.7834,-0.838,-0.8437,-0.8652,-0.9116,-0.9198,-0.9062,-0.8686,-0.8633,-0.8558,-0.8277,-0.7954,-0.7812,-0.7958,-0.7389,-0.708,-0.7403,-0.6996,-0.6802,-0.6936,-0.7159,-0.7113,-0.705,-0.7148,-0.7093,-0.688,-0.6896,-0.6935,-0.6988,-0.6913,-0.688,-0.6876,-0.6807,-0.6778,-0.6778,-0.6493,-0.6107,-0.588,-0.631,-0.5985,-0.5366,-0.607,-0.6352,-0.6352,0.0,0.0,0.0,0.0,0.0,0.0,0.0,0.0,-0.1359,-0.134,-0.1348,-0.137,-0.1429,-0.1463,-0.1608,-0.1996,-0.2395,-0.2682,-0.3052,-0.3441,-0.3474,-0.3026,-0.2805,-0.2581,-0.2132,-0.2132,-0.2356,-0.2693,-0.2921,-0.3147,-0.3598,-0.3316,-0.2997,-0.2655,-0.246,-0.2139,-0.1926,-0.1926,-0.1926,-0.1924,-0.1893,-0.1864,-0.1833,-0.1876,-0.1957,-0.2278,-0.2773,-0.325,-0.3616,-0.3721,-0.3982,-0.4423,-0.4423,-0.4418,-0.451,-0.4706,-0.5202,-0.5601,-0.5601,-0.6073,-0.6559,-0.6559,-0.6744,-0.6824,0.0,-0.7044,-0.6953,-0.7174,-0.7174,-0.7163,-0.739,-0.7686,-0.7847,-0.8222,-0.8329,-0.8421,-0.8451,-0.8659,-0.8636,-0.8263,-0.8628,-0.8908,-0.8643,-0.8475,-0.8218,-0.7816,-0.7816,-0.7663,-0.7621,-0.7204,-0.7164,-0.723,-0.6987,-0.6758,-0.6965,-0.7056,-0.6964,-0.6974,-0.7056,-0.7058,-0.699,-0.6978,-0.6974,-0.6974,-0.6964,-0.696,-0.696,-0.696,-0.6677,-0.6398,-0.6831,-0.668,-0.6239,-0.6817,-0.696,-0.696,0.0,0.0,0.0,0.0,0.0,0.0,0.0,0.0,0.0,-0.134,-0.1348,-0.137,-0.1429,-0.1478,-0.1522,-0.1754,-0.2246,-0.2643,-0.2799,-0.3284,-0.3329,-0.2914,-0.2806,-0.2581,-0.2244,-0.2244,-0.2468,-0.2915,-0.3026,-0.3266,-0.3642,-0.3094,-0.2904,-0.2839,-0.2264,-0.205,-0.1958,-0.1958,-0.1958,-0.1955,-0.1924,-0.2012,-0.2095,-0.2047,-0.2351,-0.2764,-0.2798,-0.3074,0.0,-0.364,-0.3919,-0.4194,-0.4353,-0.4572,-0.4814,-0.522,-0.5672,-0.6135,-0.6236,-0.6479,-0.6725,-0.6725,-0.6868,-0.7009,-0.7012,-0.7118,-0.7246,-0.7318,-0.7328,-0.7439,-0.7616,-0.7664,-0.7696,-0.8122,-0.8364,-0.8477,-0.8675,-0.8967,-0.8967,-0.8614,-0.8798,-0.8783,-0.8371,-0.8206,-0.8307,-0.8555,-0.7882,-0.7593,-0.8108,-0.7386,-0.7015,-0.7281,-0.7248,-0.7155,-0.714,-0.7232,-0.7278,-0.699,-0.7029,-0.7027,-0.699,-0.699,-0.699,-0.699,-0.699,-0.699,-0.699,-0.699,-0.67,-0.6412,-0.6845,-0.67,-0.6412,-0.6845,-0.699,-0.699,0.0,0.0,0.0,0.0,0.0,0.0,0.0,0.0,0.0,0.0,-0.1348,-0.137,-0.1429,-0.1482,-0.1521,-0.1537,-0.2107,-0.2501,-0.2572,-0.3148,-0.3305,-0.2914,-0.2805,-0.2692,-0.2467,-0.2467,-0.2691,-0.3137,-0.3138,-0.3384,-0.3654,-0.2984,-0.2802,-0.2874,-0.2167,-0.1947,-0.2099,-0.2099,-0.2099,-0.2097,-0.2064,-0.2152,-0.2353,-0.243,-0.273,-0.3016,-0.2836,-0.3123,-0.3639,-0.3698,-0.3984,-0.4271,-0.432,-0.4648,-0.5008,-0.5424,-0.6001,-0.6487,-0.6695,-0.6828,-0.6853,-0.6853,-0.6981,-0.711,-0.7006,-0.722,-0.7472,-0.7382,-0.7482,-0.7573,-0.7658,-0.7577,-0.7704,-0.7994,-0.817,-0.8453,-0.867,-0.8819,-0.8945,-0.8748,-0.8733,-0.8553,-0.8209,-0.8096,-0.8244,-0.8759,-0.7934,-0.7767,-0.8428,-0.7524,-0.7121,-0.7504,-0.7495,-0.7391,-0.7324,-0.7389,-0.7291,-0.7027,-0.7027,-0.7039,-0.7066,-0.7066,-0.7066,-0.7066,-0.7066,-0.705,-0.7027,-0.7027,-0.6869,-0.6557,-0.6845,-0.6845,-0.6557,-0.6845,-0.699,-0.699,0.0,0.0,0.0,0.0,0.0,0.0,0.0,0.0,0.0,0.0,0.0,0.0,0.0,-0.1463,-0.1506,-0.1565,-0.2196,-0.2481,-0.2615,-0.3169,-0.3523,-0.3585,-0.325,-0.3137,-0.3025,-0.3025,-0.3137,-0.3137,-0.3474,-0.3587,-0.3591,-0.2969,-0.2784,-0.2828,-0.2157,-0.2068,-0.2467,-0.2099,-0.2222,-0.2464,-0.2425,-0.2389,-0.2353,-0.266,-0.2956,-0.3137,-0.3134,-0.3544,-0.4261,-0.3931,-0.4208,-0.4676,-0.436,-0.4464,-0.4782,-0.4998,-0.5737,-0.6479,-0.6695,-0.6891,-0.698,-0.698,-0.7062,-0.7143,-0.7143,-0.7254,-0.7179,-0.7298,-0.7328,-0.7331,-0.7334,-0.7532,-0.7657,-0.7543,-0.7818,-0.8176,-0.8179,-0.8261,-0.8369,-0.8253,-0.844,-0.8576,-0.8571,-0.8576,-0.8499,-0.8214,-0.8329,-0.8438,-0.8545,-0.7849,-0.7614,-0.7996,-0.7423,-0.6988,-0.6986,-0.6988,-0.7033,-0.7121,-0.7121,-0.7168,-0.7254,-0.7254,-0.7254,-0.7254,-0.7254,-0.7205,-0.7121,-0.7121,-0.707,-0.699,-0.699,-0.699,-0.699,-0.699,-0.699,-0.699,0.0,0.0,0.0,0.0,0.0,0.0,0.0,0.0,0.0,0.0,0.0,0.0,0.0,0.0,0.0,0.0,-0.2057,-0.2422,-0.2528,-0.3098,-0.3359,-0.3307,-0.312,-0.3026,-0.2805,-0.3026,-0.3137,-0.3137,-0.3474,-0.3587,-0.3587,-0.3157,-0.2868,-0.2825,-0.2605,-0.2529,-0.2467,-0.2344,-0.2344,-0.2466,-0.2453,-0.2547,-0.2747,-0.2819,-0.3005,-0.3186,0.0,-0.3574,-0.4107,-0.3951,-0.4137,-0.4541,-0.4592,-0.4612,-0.4893,-0.5562,-0.6042,-0.6374,-0.6487,-0.6576,-0.6571,-0.6865,-0.6912,-0.7072,-0.7377,-0.7396,-0.7383,-0.7345,-0.7399,-0.7456,-0.7456,-0.7652,-0.7826,-0.7867,-0.8111,-0.8296,-0.8296,-0.8432,-0.8516,-0.8473,-0.8611,-0.8709,-0.8709,-0.8709,-0.8793,-0.8858,-0.8625,-0.8553,-0.8665,-0.8098,-0.7972,-0.815,-0.7922,-0.7663,-0.7519,-0.7582,-0.7482,-0.7217,-0.7217,-0.7233,-0.7264,-0.7264,-0.7264,-0.7264,-0.7264,-0.7246,-0.7217,-0.7217,-0.7199,-0.7172,-0.7172,-0.7021,-0.6721,-0.7021,-0.7021,-0.6704,0.0,0.0,0.0,0.0,0.0,0.0,0.0,0.0,0.0,0.0,0.0,0.0,0.0,0.0,0.0,0.0,0.0,-0.2284,-0.2505,-0.2949,-0.3194,-0.3251,-0.3085,-0.3112,-0.3002,-0.3018,-0.3026,-0.325,-0.3362,-0.3475,-0.3587,-0.325,-0.2958,-0.2803,-0.2818,-0.2747,-0.2691,-0.2569,-0.2569,-0.269,-0.2675,-0.2644,-0.2844,-0.3184,-0.3366,0.0,-0.3511,-0.383,-0.4145,-0.4125,-0.4451,-0.4777,-0.4832,-0.496,-0.5137,-0.5818,-0.6196,-0.6422,-0.6422,-0.649,-0.6561,-0.6704,-0.6886,-0.7182,-0.7445,-0.7489,-0.7508,-0.7588,-0.7646,-0.7584,-0.7584,-0.7777,-0.7948,-0.7983,-0.8231,-0.8418,-0.8418,-0.8554,-0.8652,-0.8652,-0.8761,-0.8853,-0.8897,-0.8899,-0.8965,-0.8836,-0.8739,-0.865,-0.8724,-0.8331,-0.8207,-0.8353,-0.8305,-0.8211,-0.7765,-0.7829,-0.7729,-0.7309,-0.7341,-0.7356,-0.7356,-0.7356,-0.7356,-0.7356,-0.7356,-0.7339,-0.7157,-0.7157,-0.6988,-0.6809,-0.6809,-0.6808,-0.6653,-0.6958,-0.6958,-0.6941,0.0,0.0,0.0,0.0,0.0,0.0,0.0,0.0,0.0,0.0,0.0,0.0,0.0,0.0,0.0,0.0,0.0,0.0,-0.2536,-0.2825,-0.3033,-0.3405,-0.3248,-0.3278,-0.3497,-0.3001,-0.3026,-0.3587,-0.325,-0.325,-0.3587,-0.325,-0.2942,-0.2648,-0.2803,-0.2848,-0.2893,-0.2529,-0.2649,-0.2889,-0.2843,-0.2801,-0.2884,-0.3858,-0.3923,-0.3716,-0.4338,-0.4545,-0.4501,-0.4571,-0.5054,-0.5514,-0.5171,-0.5285,-0.5514,-0.5855,-0.6196,-0.6308,-0.6308,-0.6653,-0.6747,-0.6425,-0.6901,-0.75,-0.7391,-0.7453,-0.7685,-0.8034,-0.7945,-0.7712,-0.7709,-0.7902,-0.8027,-0.7918,-0.8195,-0.8429,-0.8435,-0.863,-0.8774,-0.878,-0.8889,-0.9005,-0.9122,-0.9141,-0.8997,-0.8566,-0.8668,-0.8729,-0.8737,-0.8543,-0.8602,-0.8907,-0.8713,-0.8318,-0.802,-0.7876,-0.777,-0.7397,-0.7482,-0.7525,-0.7525,-0.7525,-0.7525,-0.7525,-0.7525,-0.7168,-0.6786,-0.6784,-0.6586,-0.6065,-0.6065,-0.6366,-0.6666,-0.6666,-0.697,-0.7276,0.0,0.0,0.0,0.0,0.0,0.0,0.0,0.0,0.0,0.0,0.0,0.0,0.0,0.0,0.0,0.0,0.0,0.0,-0.24,-0.2765,-0.3016,-0.3343,-0.3297,-0.3239,-0.3171,-0.3077,-0.2992,-0.2917,-0.3026,-0.3137,-0.325,-0.3362,-0.3168,-0.2762,-0.3234,-0.329,-0.2891,-0.2737,-0.2862,-0.3251,-0.2962,-0.2937,-0.3157,-0.3363,-0.3593,-0.3713,-0.3523,-0.3999,-0.476,-0.4953,-0.5209,-0.5598,-0.5414,-0.544,-0.5596,-0.5643,-0.5622,-0.5735,-0.5735,-0.5967,-0.6212,-0.6147,-0.672,-0.7308,-0.7365,-0.7763,-0.8133,-0.7834,-0.8013,-0.8199,-0.795,-0.8024,-0.8209,-0.8269,-0.8429,-0.8576,-0.8668,-0.8731,-0.8804,-0.8894,-0.9014,-0.9101,-0.913,-0.9209,-0.9258,-0.9115,-0.9141,-0.92,-0.9288,-0.9174,-0.9231,-0.947,-0.9432,-0.9337,-0.8883,-0.8352,-0.7937,-0.7491,-0.7513,-0.7525,-0.7525,-0.7525,-0.7371,-0.7058,-0.7369,-0.7201,-0.6872,-0.7181,-0.7168,-0.7148,-0.7148,-0.6993,-0.684,-0.7148,-0.7148,-0.6997,0.0,0.0,0.0,0.0,0.0,0.0,0.0,0.0,0.0,0.0,0.0,0.0,0.0,0.0,0.0,0.0,0.0,0.0,0.0,-0.2502,-0.2846,-0.3075,-0.3131,-0.3176,-0.3209,-0.304,-0.2968,-0.3106,-0.3128,-0.3138,-0.3362,-0.3475,-0.338,-0.2845,-0.3323,-0.3263,-0.286,-0.2698,-0.2822,0.0,0.0,-0.2882,-0.3225,-0.3679,-0.393,-0.3957,-0.4139,-0.4654,-0.5225,-0.5412,-0.5546,-0.5696,-0.5645,-0.5663,-0.5694,-0.5643,-0.5627,-0.5627,-0.5627,-0.5862,-0.6098,-0.5879,-0.6458,-0.7175,-0.7306,-0.7635,-0.8047,-0.8167,-0.8241,-0.82,-0.8195,-0.8232,-0.8274,-0.8527,-0.8646,-0.8764,-0.9024,-0.8952,-0.8894,-0.9016,-0.9136,-0.9209,-0.9209,-0.9266,-0.9304,-0.9304,-0.9353,-0.9413,-0.9484,-0.9436,-0.9521,-0.9742,-0.9703,-0.9457,-0.8997,-0.8439,-0.8,-0.7525,-0.7525,-0.7525,-0.7525,-0.7525,-0.7369,-0.7215,-0.7369,-0.7215,-0.6904,-0.7215,-0.7056,-0.6898,-0.6898,-0.6902,-0.6904,-0.7215,-0.7058,-0.6904,0.0,0.0,0.0,0.0,0.0,0.0,0.0,0.0,0.0,0.0,0.0,0.0,0.0,0.0,0.0,0.0,0.0,0.0,0.0,0.0,-0.2461,-0.2802,-0.2856,-0.2991,-0.3309,-0.2885,-0.2939,-0.3497,-0.3216,-0.3244,-0.3587,-0.3587,-0.3362,-0.3139,-0.3186,-0.3005,-0.2813,-0.2424,-0.2545,-0.2809,-0.2727,-0.2917,-0.3255,0.0,-0.4357,-0.438,-0.5276,-0.5712,-0.5782,-0.5794,-0.5798,-0.5796,-0.5786,-0.5782,-0.5776,-0.5751,-0.5753,-0.5759,-0.5749,-0.5998,-0.6235,-0.5798,-0.639,-0.6996,-0.714,-0.7516,-0.7881,-0.8634,-0.8464,-0.8182,-0.8446,-0.8303,-0.8428,-0.881,-0.8786,-0.8767,-0.9316,-0.9159,-0.9003,-0.9141,-0.9245,-0.9304,-0.9304,-0.9302,-0.9304,-0.9304,-0.9416,-0.9495,-0.9511,-0.9267,-0.9389,-0.9709,-0.9503,-0.9244,-0.8778,-0.8469,-0.7998,-0.7525,-0.7525,-0.7525,-0.7525,-0.7525,-0.7525,-0.7369,-0.7525,-0.7215,-0.6904,-0.6904,-0.6746,-0.6429,-0.6429,-0.6744,-0.6904,-0.6904,-0.6904,-0.6904,0.0,0.0,0.0,0.0,0.0,0.0,0.0,0.0,0.0,0.0,-0.1435,-0.1459,0.0,0.0,0.0,0.0,0.0,0.0,0.0,0.0,0.0,-0.2695,-0.2942,-0.3095,-0.3245,-0.3004,-0.2975,-0.3172,-0.2852,-0.2876,-0.3138,-0.3138,-0.3138,-0.3138,-0.3148,-0.3068,-0.3111,-0.2496,-0.2616,-0.311,-0.2827,-0.2917,-0.3139,-0.3598,0.0,0.0,-0.5461,-0.5646,-0.5427,-0.5746,-0.5894,-0.588,-0.5804,-0.5782,-0.5751,-0.5598,-0.5608,-0.5651,-0.5576,-0.5898,-0.6253,-0.6235,-0.6803,-0.738,-0.736,-0.788,-0.8273,-0.8122,-0.8214,-0.8457,-0.8312,-0.8304,-0.8555,-0.8933,-0.8969,-0.9066,-0.9437,-0.9489,-0.931,-0.9247,-0.9294,-0.9449,-0.9735,-0.9449,-0.9449,-0.9735,-0.9565,-0.953,-0.9633,-0.9312,-0.9272,-0.9521,-0.9698,-0.9555,-0.8778,-0.8781,-0.831,-0.7525,-0.7525,-0.7525,-0.7525,-0.7525,-0.7371,-0.706,-0.7369,-0.7215,-0.6904,-0.7215,-0.7369,-0.7369,-0.7369,-0.7369,-0.7369,-0.7369,-0.7369,-0.7369,0.0,0.0,0.0,0.0,0.0,0.0,0.0,-0.1335,-0.1279,-0.134,-0.1347,-0.1369,-0.1429,-0.1615,-0.1705,0.0,0.0,0.0,0.0,0.0,0.0,0.0,-0.2814,-0.3054,-0.3183,-0.3172,-0.314,-0.3195,0.0,-0.3049,-0.3099,-0.3208,-0.3223,-0.3137,-0.3137,-0.3167,-0.3213,-0.2712,-0.2718,-0.3212,-0.2935,-0.3139,-0.3362,0.0,0.0,0.0,-0.5374,-0.5326,-0.5127,-0.5657,-0.5794,-0.5663,-0.5865,-0.5853,-0.5835,-0.5745,-0.5751,-0.5776,-0.5733,-0.6058,-0.641,-0.641,-0.6815,-0.7348,-0.7475,-0.7725,-0.8077,-0.8133,-0.8217,-0.8318,-0.838,-0.8314,-0.8416,-0.8861,-0.8893,-0.887,-0.946,-0.9368,-0.9178,-0.9277,-0.9304,-0.9446,-0.9879,-0.9735,-0.9735,-0.9879,-0.9854,-0.9689,-0.9363,-0.9076,-0.9034,-0.9088,-0.9244,-0.9244,-0.8778,-0.8625,-0.8154,-0.7525,-0.7525,-0.7525,-0.7525,-0.7525,-0.7369,-0.7215,-0.7369,-0.7369,-0.7215,-0.7369,-0.7525,-0.7525,-0.7525,-0.7525,-0.7525,-0.7525,-0.7369,-0.7215,0.0,0.0,0.0,0.0,0.0,0.0,0.0,-0.1335,-0.1279,-0.134,-0.1348,-0.137,-0.1429,-0.1615,-0.1615,0.0,0.0,0.0,0.0,0.0,0.0,0.0,0.0,0.0,-0.312,0.0,0.0,-0.3218,-0.3264,0.0,0.0,0.0,0.0,0.0,-0.3022,-0.3044,-0.3181,-0.2806,-0.2811,0.0,0.0,-0.324,-0.3475,0.0,0.0,0.0,0.0,-0.5059,-0.5007,-0.5494,-0.5626,-0.5395,-0.5764,-0.5902,-0.5912,-0.5894,-0.5902,-0.5916,-0.6039,-0.6354,-0.6683,-0.683,-0.7067,-0.7303,-0.7681,-0.7661,-0.7743,-0.8264,-0.8198,-0.8154,-0.8329,-0.8196,-0.8267,-0.8799,-0.8694,-0.8673,-0.9452,-0.9229,-0.9178,-0.9419,-0.9449,-0.959,-1.0026,-1.0023,-1.0023,-1.017,-1.0026,-0.9728,-0.9096,-0.8984,-0.8934,-0.8778,-0.8778,-0.8781,-0.8625,-0.8313,-0.8,-0.7525,-0.7525,-0.7525,-0.7525,-0.7525,-0.7525,-0.7525,-0.7525,-0.7525,-0.7525,-0.7525,-0.7525,-0.7525,-0.7525,-0.7525,-0.7525,-0.7525,-0.7369,-0.706,0.0,0.0,0.0,0.0,0.0,0.0,0.0,-0.1335,-0.1279,-0.134,-0.1263,-0.137,-0.1429,-0.1436,-0.1436,0.0,0.0,0.0,0.0,0.0,0.0,0.0,0.0,0.0,0.0,0.0,0.0,-0.2906,-0.2911,0.0,0.0,0.0,0.0,0.0,0.0,-0.2896,-0.3077,-0.2524,0.0,0.0,0.0,0.0,0.0,0.0,0.0,0.0,0.0,-0.4779,-0.4847,-0.5202,-0.5251,-0.5307,-0.5672,-0.5849,-0.59,-0.5818,-0.5853,-0.5916,-0.6283,-0.6476,-0.6823,-0.7422,-0.7628,-0.7681,-0.7929,-0.797,-0.7886,-0.7997,-0.788,-0.7956,-0.8176,-0.8127,-0.8295,-0.9039,-0.9007,-0.9071,-0.9452,-0.9507,-0.9599,-0.985,-0.9879,-1.017,-1.0897,-1.0603,-1.0603,-1.0897,-1.0113,-0.9551,-0.9208,-0.9333,-0.9246,-0.8778,-0.8778,-0.8625,-0.8315,-0.8159,-0.8,-0.7525,-0.7525,-0.7525,-0.7525,-0.7525,-0.7525,-0.7525,-0.7525,-0.7525,-0.7525,-0.7525,-0.7525,-0.7525,-0.7525,-0.7525,-0.7525,-0.7525,-0.7525,-0.7369,0.0,0.0,0.0,0.0,0.0,0.0,-0.1281,-0.1284,-0.1306,-0.1365,-0.1373,-0.1389,-0.1431,-0.1525,-0.1615,-0.1436,0.0,0.0,0.0,0.0,0.0,0.0,0.0,0.0,0.0,0.0,-0.293,-0.3011,-0.3011,0.0,0.0,0.0,0.0,0.0,0.0,-0.2835,-0.3062,-0.2812,0.0,0.0,0.0,0.0,0.0,0.0,0.0,0.0,0.0,0.0,-0.4356,-0.4945,-0.5083,-0.4988,-0.558,-0.5761,-0.5839,-0.5857,-0.5888,-0.5929,-0.6108,-0.6441,-0.6792,-0.7406,-0.7611,-0.7785,-0.8036,-0.8011,-0.7872,-0.7872,-0.7872,-0.7924,-0.8095,-0.8087,-0.8276,-0.8568,-0.8577,-0.8673,-0.9038,-0.909,-0.9178,-0.9562,-0.9735,-1.0167,-1.0603,-1.075,-1.0784,-1.072,-1.0019,-0.9567,-0.9526,-0.9183,-0.8934,-0.8778,-0.8625,-0.8313,-0.8159,-0.7842,-0.7683,-0.7525,-0.7525,-0.7525,-0.7525,-0.7525,-0.7525,-0.7525,-0.7525,-0.7525,-0.7525,-0.7525,-0.7525,-0.7525,-0.7525,-0.7525,-0.7525,-0.7525,-0.7525,-0.7525,0.0,0.0,0.0,0.0,0.0,-0.1281,-0.1311,-0.1316,-0.1334,-0.1383,-0.139,-0.1401,-0.1431,-0.1615,-0.1705,-0.1525,-0.1615,0.0,0.0,0.0,0.0,0.0,0.0,0.0,0.0,0.0,-0.2678,-0.2845,-0.2943,-0.2794,0.0,0.0,-0.2735,-0.2477,0.0,0.0,0.0,0.0,0.0,0.0,0.0,0.0,0.0,0.0,0.0,0.0,0.0,0.0,0.0,0.0,0.0,-0.4907,-0.5371,-0.5665,-0.5753,-0.5816,-0.5876,-0.5937,-0.6154,-0.637,-0.6859,-0.725,-0.7574,-0.7727,-0.798,-0.7924,-0.7872,-0.7872,-0.7872,-0.7918,-0.7953,-0.8079,-0.8147,-0.8293,-0.8309,-0.8543,-0.8902,-0.8951,-0.9038,-0.9562,-0.9879,-1.0311,-1.0746,-1.0897,-1.0809,-1.0501,-1.0045,-0.9868,-0.9984,-0.9493,-0.909,-0.8778,-0.8471,-0.8156,-0.8,-0.7683,-0.7525,-0.7525,-0.7525,-0.7525,-0.7525,-0.7525,-0.7525,-0.7525,-0.7525,-0.7525,-0.7525,-0.7525,-0.7525,-0.7525,-0.7525,-0.7525,-0.7525,-0.7525,-0.7525,-0.7525,0.0,0.0,0.0,0.0,0.0,0.0,-0.1259,-0.1263,-0.1358,-0.1386,-0.139,-0.1401,-0.1431,-0.1615,-0.1794,-0.1794,-0.2064,0.0,0.0,0.0,0.0,0.0,0.0,0.0,0.0,0.0,-0.2265,-0.2451,-0.2648,-0.2577,-0.2023,-0.2573,-0.2594,-0.2076,0.0,0.0,0.0,0.0,0.0,0.0,0.0,0.0,0.0,0.0,0.0,0.0,0.0,0.0,0.0,0.0,0.0,0.0,0.0,-0.5571,-0.5645,-0.5645,-0.5776,-0.606,-0.6525,-0.6624,-0.6875,-0.7339,-0.7631,-0.7727,-0.7727,-0.7799,-0.7872,-0.7872,-0.7872,-0.7822,-0.7684,-0.7886,-0.8044,-0.8132,-0.8228,-0.8543,-0.8902,-0.8951,-0.9319,-1.0422,-1.0455,-1.0743,-1.1476,-1.1188,-1.0809,-1.0211,-1.0194,-1.0318,-1.0442,-1.0109,-0.9555,-0.8781,-0.8471,-0.8,-0.7525,-0.7525,-0.7525,-0.7525,-0.7525,-0.7525,-0.7525,-0.7525,-0.7525,-0.7525,-0.7525,-0.7525,-0.7525,-0.7525,-0.7525,-0.7525,-0.7525,-0.7525,-0.7525,-0.7525,-0.7525,-0.7525,0.0,0.0,0.0,0.0,0.0,0.0,0.0,-0.1377,-0.1387,-0.1417,-0.1421,-0.1425,-0.1434,-0.1794,-0.1974,-0.1794,-0.2064,0.0,0.0,0.0,0.0,0.0,0.0,0.0,0.0,0.0,-0.2297,-0.2547,-0.2676,-0.2623,-0.2477,-0.2523,-0.2459,-0.2385,-0.2268,-0.2269,0.0,0.0,0.0,0.0,0.0,0.0,-0.3382,0.0,0.0,0.0,0.0,0.0,0.0,0.0,0.0,0.0,0.0,0.0,0.0,-0.5569,-0.5682,-0.587,-0.6208,-0.6246,-0.6394,-0.6976,-0.7004,-0.6979,-0.7484,-0.7619,-0.763,-0.7872,-0.7872,-0.7945,-0.8066,-0.8076,-0.8266,-0.8411,-0.8628,-0.8861,-0.9198,-0.9442,-0.9697,-1.0434,-1.0746,-1.1041,-1.1619,-1.1418,-1.1094,-1.0937,-1.0926,-1.0756,-1.0572,-1.0153,-0.9711,-0.9246,-0.8781,-0.831,-0.7525,-0.7525,-0.7525,-0.7525,-0.7525,-0.7525,-0.7525,-0.7525,-0.7525,-0.7525,-0.7525,-0.7525,-0.7525,-0.7525,-0.7525,-0.7525,-0.7525,-0.7371,-0.7058,-0.7369,-0.7371,-0.7058,0.0,0.0,0.0,0.0,0.0,0.0,0.0,-0.1399,-0.1414,-0.1433,-0.1525,-0.1525,-0.1525,-0.1974,-0.2243,-0.2064,-0.2334,0.0,0.0,0.0,0.0,0.0,0.0,0.0,0.0,-0.1885,-0.2184,-0.253,-0.2653,-0.2704,-0.2777,-0.2509,-0.2335,-0.2258,-0.2233,-0.2236,0.0,0.0,0.0,0.0,0.0,0.0,-0.3326,0.0,0.0,0.0,0.0,0.0,0.0,0.0,0.0,0.0,0.0,0.0,0.0,0.0,-0.5548,-0.5825,-0.6027,-0.6068,-0.6088,-0.6623,-0.6671,-0.6677,-0.7431,-0.747,-0.7508,-0.7627,-0.7872,-0.7945,-0.7806,-0.7978,-0.8183,-0.8416,-0.8652,-0.8894,-0.9204,-0.9296,-0.9547,-1.0146,-1.075,-1.1041,-1.0894,-1.1018,-1.1013,-1.1005,-1.0993,-1.0974,-1.0632,-1.0175,-0.9711,-0.9244,-0.8778,-0.8154,-0.7525,-0.7525,-0.7525,-0.7525,-0.7525,-0.7525,-0.7525,-0.7525,-0.7525,-0.7525,-0.7525,-0.7525,0.0,-0.7525,-0.7525,-0.7525,-0.7525,-0.7215,-0.6904,-0.7215,-0.7058,-0.6904,0.0,0.0,0.0,0.0,0.0,0.0,0.0,-0.1417,-0.1436,-0.1436,-0.1615,-0.1794,-0.1794,-0.2243,-0.2512,-0.2509,0.0,0.0,0.0,0.0,0.0,0.0,0.0,0.0,-0.1436,-0.1705,-0.2012,-0.228,-0.257,-0.2717,-0.2815,-0.2519,-0.2322,-0.2021,-0.2322,-0.2322,0.0,0.0,0.0,0.0,0.0,0.0,0.0,0.0,0.0,0.0,0.0,0.0,0.0,0.0,0.0,0.0,0.0,0.0,0.0,0.0,0.0,0.0,0.0,-0.598,-0.6065,-0.6536,-0.6615,-0.6665,-0.7293,-0.7462,0.0,-0.7385,-0.7627,-0.7699,-0.7297,-0.7722,-0.8183,-0.8153,-0.8462,-0.8682,-0.8918,-0.8965,-0.9338,-0.9853,-1.0606,-1.075,-1.0023,-1.0441,-1.058,-1.041,-1.0851,-1.0983,-1.0632,-1.0175,-0.9555,-0.8778,-0.8313,-0.7998,-0.7525,-0.7525,-0.7525,-0.7525,-0.7525,-0.7525,-0.7525,-0.7525,-0.7525,-0.7525,-0.7525,-0.7525,-0.7525,-0.7525,-0.7525,-0.7525,-0.7525,-0.7215,-0.6904,-0.6904,-0.6904,-0.6904,0.0,0.0,0.0,0.0,0.0,0.0,0.0,0.0,0.0,0.0,-0.1794,-0.1885,-0.2064,-0.2334,-0.2497,0.0,0.0,0.0,0.0,0.0,0.0,0.0,0.0,0.0,-0.2064,-0.242,-0.2613,-0.2459,-0.2629,-0.2776,-0.2996,-0.2788,-0.2523,-0.2321,-0.2624,-0.2826,0.0,0.0,0.0,0.0,0.0,0.0,0.0,0.0,0.0,0.0,-0.3851,-0.4058,0.0,0.0,0.0,0.0,0.0,0.0,0.0,0.0,-0.564,-0.589,-0.591,0.0,-0.5972,-0.6061,-0.6264,-0.6562,0.0,-0.7283,-0.7508,-0.775,-0.7627,-0.7578,-0.7936,-0.7847,-0.792,-0.8416,-0.8666,-0.8916,-0.9345,-0.9956,-1.0534,-1.0305,-1.075,-1.0897,-1.0455,-1.0675,-1.0831,-1.0715,-1.1085,-1.0919,-1.0175,-0.9711,-0.9246,-0.8313,-0.7842,-0.7683,-0.7525,-0.7525,-0.7525,-0.7525,-0.7525,-0.7525,-0.7525,-0.7525,-0.7525,-0.7525,-0.7525,-0.7525,-0.7525,-0.7525,-0.7525,-0.7525,-0.7525,-0.7056,-0.6431,-0.6746,-0.6746,-0.6431,0.0,0.0,0.0,0.0,0.0,0.0,0.0,0.0,0.0,0.0,0.0,0.0,0.0,0.0,0.0,0.0,0.0,0.0,0.0,0.0,0.0,0.0,0.0,-0.2511,-0.2243,-0.2689,-0.2793,-0.255,-0.2817,-0.2967,-0.3093,-0.2887,-0.2623,-0.2422,-0.2522,-0.2826,0.0,0.0,0.0,0.0,-0.3029,0.0,0.0,0.0,0.0,0.0,-0.341,-0.3711,0.0,-0.4397,-0.4582,-0.4632,0.0,0.0,0.0,0.0,-0.5686,-0.5916,-0.5916,-0.5916,-0.5929,-0.6102,-0.6322,-0.6526,-0.7021,-0.7266,-0.7508,-0.7627,-0.7627,-0.7701,-0.7933,-0.7975,-0.8052,-0.8549,-0.8644,-0.8883,-0.9201,-1.0007,-1.0317,-1.0023,-1.0314,-1.0342,-1.0108,-1.0447,-1.0592,-1.0649,-1.1146,-1.0952,-1.0019,-0.9864,-0.9246,-0.8469,-0.8154,-0.784,-0.7525,-0.7525,-0.7525,-0.7525,-0.7525,-0.7525,-0.7525,-0.7525,-0.7525,-0.7525,-0.7525,-0.7525,-0.7525,-0.7525,-0.7525,-0.7525,-0.7525,-0.7055,-0.6273,-0.6746,-0.6589,-0.6429,0.0,0.0,0.0,0.0,0.0,0.0,0.0,0.0,0.0,0.0,0.0,0.0,0.0,0.0,0.0,0.0,0.0,0.0,0.0,0.0,0.0,0.0,-0.2522,-0.2522,-0.2334,-0.2689,-0.2804,-0.2674,-0.2922,-0.3075,-0.3127,-0.2897,-0.2725,-0.2522,-0.2429,-0.2631,0.0,0.0,0.0,0.0,-0.313,0.0,0.0,0.0,0.0,0.0,0.0,0.0,0.0,-0.4417,-0.462,-0.4664,-0.4958,0.0,0.0,0.0,0.0,0.0,-0.5916,-0.5916,-0.5916,-0.6283,-0.6403,-0.6526,-0.7141,-0.7385,-0.7385,-0.7508,-0.7627,-0.7819,-0.7801,-0.7975,-0.8183,-0.8549,-0.8617,-0.8715,-0.8921,-0.9439,-0.9735,-0.9304,-0.959,-0.9786,-0.9476,-0.9896,-1.0318,-1.0439,-1.0877,-1.0796,-1.0019,-0.9866,-0.9555,-0.8781,-0.8778,-0.8466,-0.7683,-0.7683,-0.7525,-0.7525,-0.7525,-0.7525,-0.7525,-0.7525,-0.7525,-0.7525,-0.7525,-0.7525,-0.7525,-0.7525,-0.7525,-0.7525,-0.7525,-0.7055,-0.6273,-0.6746,-0.6589,-0.6429,0.0,0.0,0.0,0.0,0.0,0.0,0.0,0.0,0.0,0.0,0.0,0.0,0.0,0.0,0.0,0.0,0.0,0.0,0.0,0.0,0.0,-0.2872,-0.2829,-0.2831,-0.2785,-0.2869,-0.2873,-0.2888,-0.2808,-0.2863,-0.3065,-0.3079,-0.313,-0.303,-0.2461,-0.256,-0.323,0.0,0.0,0.0,-0.2927,0.0,0.0,0.0,0.0,0.0,0.0,0.0,0.0,-0.4026,-0.4283,-0.4636,-0.5036,0.0,0.0,0.0,0.0,0.0,-0.5916,-0.5916,-0.5916,-0.5916,-0.616,-0.6528,-0.6898,-0.7143,-0.7508,-0.775,-0.7627,-0.7578,-0.8063,-0.7975,-0.792,-0.8549,-0.8761,-0.8908,-0.8946,-0.9439,-0.9735,-0.9304,-0.959,-0.9786,-0.9476,-0.9747,-0.9868,-0.9829,-1.0106,-1.0019,-0.9555,-0.9555,-0.9244,-0.8781,-0.8778,-0.8625,-0.8156,-0.8156,-0.7842,-0.7525,-0.7525,-0.7525,-0.7525,-0.7525,-0.7525,-0.7525,-0.7525,-0.7525,-0.7525,-0.7525,-0.7525,-0.7525,-0.7525,-0.7055,-0.6273,-0.6746,-0.6589,-0.6429,0.0,0.0,0.0,0.0,0.0,0.0,0.0,0.0,0.0,0.0,0.0,0.0,0.0,0.0,0.0,0.0,0.0,0.0,0.0,0.0,-0.276,-0.2953,-0.2833,-0.278,-0.2876,-0.3048,-0.3048,-0.2875,-0.2897,-0.2954,-0.3052,-0.2975,-0.3029,-0.3131,-0.2545,-0.2543,-0.2927,-0.2724,0.0,0.0,0.0,0.0,0.0,0.0,0.0,0.0,0.0,0.0,0.0,0.0,-0.4509,-0.4667,-0.498,0.0,0.0,0.0,0.0,0.0,-0.5916,-0.5916,-0.5916,-0.5916,-0.616,-0.6403,-0.665,-0.7018,-0.7385,-0.763,-0.7627,-0.7825,-0.819,-0.8106,-0.8052,-0.8549,-0.8791,-0.8951,-0.8951,-0.9297,-0.9449,-0.9304,-0.9446,-0.9523,-0.9568,-0.9636,-0.9745,-0.9924,-0.9987,-0.9864,-0.9708,-0.9711,-0.9711,-0.9399,-0.9399,-0.909,-0.8469,-0.8781,-0.8464,-0.7525,-0.7525,-0.7525,-0.7525,-0.7525,-0.7525,-0.7525,-0.7525,-0.7525,-0.7525,-0.7525,-0.7525,-0.7525,-0.7525,-0.7213,-0.6589,-0.6904,-0.6902,-0.7055,0.0,0.0,0.0,0.0,0.0,0.0,0.0,0.0,0.0,0.0,0.0,0.0,0.0,0.0,0.0,0.0,0.0,0.0,0.0,0.0,-0.2902,-0.2977,-0.2837,-0.2806,-0.2875,-0.296,-0.2871,-0.2784,-0.2899,-0.2968,-0.3094,-0.2901,-0.2939,-0.313,-0.2534,-0.2432,-0.2724,-0.2423,-0.2522,0.0,0.0,0.0,0.0,0.0,0.0,0.0,0.0,0.0,0.0,0.0,0.0,0.0,0.0,0.0,0.0,-0.5275,-0.5546,-0.5794,-0.5794,-0.5794,-0.5916,-0.5916,-0.6037,-0.628,-0.6403,-0.6771,-0.7263,-0.7385,-0.7651,-0.7857,-0.8068,-0.8151,-0.8247,-0.8557,-0.8791,-0.8951,-0.8951,-0.9155,-0.9304,-0.9304,-0.9304,-0.9389,-0.9606,-0.9652,-0.9756,-0.9962,-1.0003,-1.0019,-1.0019,-1.0019,-1.0019,-1.0019,-1.0019,-0.9555,-0.8778,-0.9244,-0.8776,-0.7525,-0.7683,-0.7683,-0.7525,-0.7525,-0.7525,-0.7525,-0.7525,-0.7525,-0.7525,-0.7525,-0.7525,-0.7525,-0.7525,-0.7371,-0.706,-0.6904,-0.7215,-0.7525,0.0,0.0,0.0,0.0,0.0,0.0,0.0,0.0,0.0,0.0,0.0,0.0,0.0,0.0,0.0,0.0,0.0,0.0,0.0,0.0,-0.3333,-0.3126,-0.3227,-0.318,-0.2871,-0.2511,-0.2334,-0.2513,-0.2433,-0.2624,-0.3218,-0.2976,-0.2872,-0.2828,-0.2363,-0.2256,-0.2422,-0.2122,-0.2324,-0.2826,0.0,0.0,0.0,0.0,0.0,0.0,0.0,0.0,0.0,0.0,0.0,0.0,0.0,0.0,-0.4834,-0.4911,-0.5177,-0.5421,-0.5421,-0.5669,-0.5916,-0.5916,-0.5916,-0.6039,-0.628,-0.6403,-0.6648,-0.7263,-0.747,-0.7707,-0.7704,-0.7895,-0.8171,-0.8584,-0.8791,-0.8951,-0.8951,-0.9155,-0.9304,-0.9304,-0.9304,-0.9356,-0.9487,-0.9603,-0.972,-0.9843,-0.9954,-1.0019,-1.0019,-1.0019,-1.0019,-1.0019,-1.0019,-0.9555,-0.8778,-0.9244,-0.8776,-0.7525,-0.7998,-0.7998,-0.7525,-0.7525,-0.7525,-0.7525,-0.7525,-0.7525,-0.7525,-0.7525,-0.7525,-0.7525,-0.7525,-0.7525,-0.7369,-0.706,-0.7215,-0.7525,0.0,0.0,0.0,0.0,0.0,0.0,0.0,0.0,0.0,0.0,0.0,0.0,0.0,0.0,0.0,0.0,0.0,0.0,0.0,-0.3542,-0.3685,-0.3643,-0.3531,-0.3482,-0.3384,-0.2978,-0.2797,-0.2835,-0.2761,-0.2952,-0.3232,-0.3152,-0.2948,-0.2826,-0.2439,-0.2235,-0.2121,-0.1819,-0.202,-0.2522,-0.2522,0.0,0.0,0.0,0.0,0.0,0.0,0.0,0.0,0.0,-0.4334,-0.4318,-0.4345,-0.4432,-0.465,-0.4802,-0.4933,-0.5177,-0.5546,-0.5669,-0.5669,-0.5794,-0.5916,-0.6039,-0.6283,-0.6771,-0.7141,-0.7385,-0.7725,-0.7991,-0.8057,-0.8349,-0.8456,-0.8587,-0.8791,-0.8951,-0.8951,-0.9297,-0.959,-0.9304,-0.959,-0.9641,-0.9476,-0.9598,-0.9715,-0.9829,-0.9951,-1.0019,-1.0019,-1.0019,-1.0019,-1.0019,-1.0019,-0.9555,-0.8778,-0.9399,-0.9085,-0.7525,-0.8,-0.7998,-0.7525,-0.7525,-0.7525,-0.7525,-0.7525,-0.7525,-0.7525,-0.7525,-0.7525,-0.7525,-0.7525,-0.7525,-0.7525,-0.7371,-0.7369,-0.7525,0.0,0.0,0.0,0.0,0.0,0.0,0.0,0.0,0.0,0.0,0.0,0.0,0.0,0.0,0.0,0.0,0.0,0.0,-0.3554,-0.3803,-0.3952,-0.3995,-0.3745,-0.3683,-0.3793,-0.3646,-0.3281,-0.2958,-0.308,-0.3071,-0.3029,-0.313,-0.3027,-0.2623,-0.2522,-0.2322,-0.2022,-0.1819,-0.1919,-0.2322,-0.2322,-0.2532,0.0,0.0,0.0,0.0,0.0,0.0,0.0,0.0,-0.4142,-0.4123,-0.4143,-0.4227,-0.4439,-0.4687,-0.4933,-0.5179,-0.5669,-0.5669,-0.5667,-0.5914,-0.6162,-0.6285,-0.6648,-0.6919,-0.7192,-0.7439,-0.7807,-0.81,-0.8435,-0.8403,-0.8454,-0.8587,-0.8791,-0.8951,-0.8951,-0.9439,-0.9735,-0.9304,-0.959,-0.9769,-0.9421,-0.9576,-0.9701,-0.9777,-0.993,-1.0019,-1.0019,-1.0019,-1.0019,-1.0019,-1.0019,-0.9711,-0.8934,-0.9555,-0.9085,-0.7683,-0.8,-0.7998,-0.7525,-0.7525,-0.7525,-0.7525,-0.7525,-0.7525,-0.7525,-0.7525,-0.7525,-0.7525,-0.7525,-0.7525,-0.7525,-0.7525,-0.7525,-0.7525,0.0,0.0,0.0,0.0,0.0,0.0,0.0,0.0,0.0,0.0,0.0,0.0,0.0,0.0,0.0,0.0,0.0,0.0,-0.3803,-0.3908,-0.403,-0.4073,-0.3866,-0.3871,-0.4066,-0.4064,-0.3697,-0.2959,-0.308,-0.2973,-0.2826,-0.3029,-0.2928,-0.2422,-0.2725,-0.2526,-0.2023,-0.2023,-0.2023,-0.2023,-0.2023,-0.2248,0.0,0.0,0.0,0.0,0.0,0.0,0.0,0.0,-0.3719,-0.3779,-0.3841,-0.4143,-0.4438,-0.4438,-0.493,-0.5421,-0.5421,-0.5669,-0.5916,-0.6283,-0.665,-0.7023,-0.7266,-0.6979,-0.6804,-0.7433,-0.7735,-0.8052,-0.8565,-0.8323,-0.8192,-0.8587,-0.8791,-0.8951,-0.8951,-0.9436,-0.9735,-0.9304,-0.959,-0.9735,-0.9304,-0.9527,-0.9669,-0.9669,-0.9886,-1.0019,-1.0019,-1.0019,-1.0019,-1.0019,-1.0019,-0.9864,-0.9399,-0.9399,-0.8934,-0.8159,-0.8159,-0.7998,-0.7525,-0.7525,-0.7525,-0.7525,-0.7525,-0.7525,-0.7525,-0.7525,-0.7525,-0.7525,-0.7525,-0.7525,-0.7525,-0.7525,-0.7525,-0.7525,0.0,0.0,0.0,0.0,0.0,0.0,0.0,0.0,0.0,0.0,0.0,0.0,0.0,0.0,0.0,0.0,0.0,0.0,-0.4264,-0.4394,-0.4518,-0.4354,-0.4145,-0.415,-0.4344,-0.4032,-0.371,-0.3376,-0.3264,-0.3012,-0.2826,-0.3172,-0.2985,-0.2471,-0.2817,-0.2728,-0.2414,-0.2414,-0.2414,-0.2414,-0.2414,-0.2631,-0.2861,0.0,0.0,0.0,0.0,0.0,0.0,0.0,0.0,0.0,-0.4196,-0.4384,-0.481,-0.5053,-0.5054,-0.5179,-0.5669,-0.5669,-0.5669,-0.5916,-0.6283,-0.665,-0.7021,-0.7351,-0.7725,-0.8148,-0.8237,-0.832,-0.8565,-0.8456,-0.8454,-0.8587,-0.8791,-0.8951,-0.9229,-0.9723,-0.9879,-0.9735,-0.9879,-0.9879,-0.9735,-0.9672,-0.9819,-0.9966,-1.004,-1.0019,-1.0019,-1.0019,-1.0019,-1.0019,-1.0019,-0.9864,-0.9399,-0.9399,-0.8934,-0.8159,-0.8159,-0.7998,-0.7525,-0.7525,-0.7525,-0.7525,-0.7525,-0.7525,-0.7525,-0.7525,-0.7525,-0.7525,-0.7525,-0.7525,-0.7525,-0.7525,-0.7525,-0.7525,0.0,0.0,0.0,0.0,0.0,0.0,0.0,0.0,0.0,0.0,0.0,0.0,0.0,0.0,0.0,0.0,0.0,0.0,0.0,-0.4648,-0.465,-0.4553,-0.4275,-0.426,-0.4303,-0.4007,-0.3699,-0.3575,-0.3313,-0.304,-0.2858,-0.3201,-0.3125,-0.2728,-0.2971,-0.2984,-0.2772,-0.2772,-0.2664,-0.2451,-0.2451,-0.2569,-0.2804,0.0,0.0,0.0,0.0,0.0,0.0,0.0,0.0,0.0,-0.4115,-0.4529,-0.4933,-0.5177,-0.5302,-0.5425,-0.5794,-0.5794,-0.5669,-0.6037,-0.6283,-0.6548,-0.7125,-0.7697,-0.8193,-0.8435,-0.8486,-0.8505,-0.8573,-0.8587,-0.8587,-0.8587,-0.8753,-0.9035,-0.9498,-0.9821,-0.9967,-0.9873,-1.0023,-1.0023,-0.9879,-0.9775,-0.9766,-1.0113,-0.9993,-0.9968,-1.0017,-1.0019,-1.0019,-1.0019,-1.0019,-0.9864,-0.9711,-0.9244,-0.8934,-0.8625,-0.8313,-0.8,-0.784,-0.7525,-0.7525,-0.7525,-0.7525,-0.7525,-0.7525,-0.7525,-0.7525,-0.7525,-0.7525,-0.7525,-0.7525,-0.7525,-0.7525,-0.7525,0.0,0.0,0.0,0.0,0.0,0.0,0.0,0.0,0.0,0.0,0.0,0.0,0.0,0.0,0.0,0.0,0.0,0.0,0.0,0.0,-0.4499,-0.47,-0.4422,-0.4193,-0.4201,-0.3981,-0.3765,-0.3644,-0.3341,-0.3062,-0.2906,-0.3229,-0.3156,-0.2992,-0.3318,-0.3317,-0.2992,-0.2996,-0.2675,-0.2243,-0.2246,-0.2378,-0.2523,-0.2523,0.0,0.0,0.0,0.0,0.0,0.0,0.0,0.0,-0.3932,-0.4442,-0.4935,-0.4933,-0.5425,-0.5916,-0.5916,-0.5916,-0.5916,-0.628,-0.6403,-0.6701,-0.7409,-0.7975,-0.8301,-0.8538,-0.8587,-0.8587,-0.8587,-0.8587,-0.8587,-0.8587,-0.869,-0.8949,-0.9486,-0.9897,-1.017,-1.0009,-1.0311,-1.0311,-1.0023,-0.9705,-0.9684,-1.0257,-0.9924,-0.9892,-1.0014,-1.0019,-1.0019,-1.0019,-1.0019,-1.0019,-1.0019,-0.9246,-0.909,-0.9399,-0.8625,-0.8315,-0.8315,-0.784,-0.7525,-0.7525,-0.7525,-0.7525,-0.7525,-0.7525,-0.7525,-0.7525,-0.7525,-0.7525,-0.7525,-0.7525,-0.7525,-0.7525,0.0,0.0,0.0,0.0,0.0,0.0,0.0,0.0,0.0,0.0,0.0,0.0,0.0,0.0,0.0,0.0,0.0,0.0,0.0,0.0,-0.4666,-0.461,-0.4581,-0.4413,-0.4285,-0.4009,-0.3786,-0.371,-0.3403,-0.3102,-0.2907,-0.3309,-0.3359,-0.3049,-0.3419,-0.3523,-0.3372,-0.3197,-0.2862,-0.2505,-0.2319,-0.2224,-0.2232,-0.2232,-0.2573,0.0,0.0,0.0,0.0,0.0,0.0,0.0,-0.4295,-0.4564,-0.4933,-0.5177,-0.5421,-0.5546,-0.5794,-0.5916,-0.5916,-0.6039,-0.6407,-0.6829,-0.7287,-0.7722,-0.8301,-0.8538,-0.8587,-0.8587,-0.8587,-0.8587,-0.8587,-0.8587,-0.869,-0.9086,-0.9902,-0.9897,-1.0028,-1.0296,-1.0455,-1.0455,-1.0311,-1.0143,-1.0127,-1.0703,-1.0075,-0.9892,-1.0014,-1.0019,-1.0019,-1.0019,-1.0019,-1.0019,-1.0019,-0.9555,-0.9244,-0.9399,-0.8934,-0.8625,-0.8625,-0.8313,-0.7842,-0.7525,-0.7525,-0.7525,-0.7525,-0.7525,-0.7525,-0.7525,-0.7525,-0.7525,-0.7525,-0.7525,-0.7525,-0.7525,0.0,0.0,0.0,0.0,0.0,0.0,0.0,0.0,0.0,0.0,0.0,0.0,0.0,0.0,0.0,0.0,0.0,0.0,0.0,0.0,-0.4856,-0.4579,-0.4614,-0.4446,-0.4064,-0.3939,-0.383,-0.3526,-0.332,-0.3246,-0.3194,-0.3359,-0.3403,-0.3321,-0.3433,-0.3542,-0.354,-0.3321,-0.299,-0.266,-0.2461,-0.2356,-0.2244,-0.2244,-0.2357,-0.2693,-0.2469,0.0,0.0,0.0,0.0,0.0,0.0,0.0,-0.4685,-0.493,-0.5054,-0.5177,-0.5425,-0.5546,-0.5669,-0.5916,-0.641,-0.6955,-0.6908,-0.7594,-0.8173,-0.8275,-0.8454,-0.8587,-0.8587,-0.8587,-0.8587,-0.8587,-0.8641,-0.9016,-1.0031,-0.998,-1.0097,-1.0431,-1.0603,-1.0746,-1.0455,-1.0289,-1.0275,-1.0703,-1.0227,-0.9892,-1.0014,-1.0019,-1.0019,-1.0019,-1.0019,-1.0019,-1.0019,-0.9555,-0.9555,-0.9711,-0.9244,-0.8934,-0.8778,-0.8313,-0.7998,-0.7525,-0.7525,-0.7525,-0.7525,-0.7525,-0.7525,-0.7525,-0.7525,-0.7525,-0.7525,-0.7525,-0.7525,-0.7525,0.0,0.0,0.0,0.0,0.0,0.0,0.0,0.0,0.0,0.0,0.0,0.0,0.0,0.0,0.0,0.0,0.0,0.0,0.0,0.0,0.0,-0.472,-0.4689,-0.4403,-0.3854,-0.3983,-0.3784,-0.3337,-0.3346,-0.3401,-0.3496,-0.3496,-0.3523,-0.357,-0.353,-0.3534,-0.357,-0.3529,-0.3094,-0.2683,-0.2578,-0.2469,-0.2132,-0.2132,-0.2356,-0.2469,-0.2356,-0.263,-0.3167,-0.3057,0.0,0.0,0.0,0.0,-0.4316,-0.4438,-0.4562,-0.481,-0.4933,-0.5177,-0.5546,-0.5794,-0.6407,-0.6827,-0.6635,-0.7326,-0.8038,-0.7987,-0.831,-0.8587,-0.8587,-0.8587,-0.8587,-0.8587,-0.8606,-0.8965,-0.9887,-1.008,-1.0183,-1.0425,-1.075,-1.0894,-1.0455,-1.0286,-1.0423,-1.0703,-1.0227,-0.9892,-1.0014,-1.0019,-1.0019,-1.0019,-1.0019,-1.0019,-1.0019,-0.9711,-0.9711,-1.0019,-0.9711,-0.9244,-0.8778,-0.8469,-0.7998,-0.7525,-0.7525,-0.7525,-0.7525,-0.7525,-0.7525,-0.7525,-0.7525,-0.7525,-0.7525,-0.7525,-0.7525,-0.7683,0.0,0.0,0.0,0.0,0.0,0.0,0.0,0.0,0.0,0.0,0.0,0.0,0.0,0.0,0.0,0.0,0.0,0.0,-0.5384,0.0,0.0,-0.5103,-0.4912,-0.4512,-0.4004,-0.4089,-0.3858,-0.3401,-0.3448,-0.3481,-0.3496,-0.3496,-0.35,-0.3511,-0.3555,-0.355,-0.3511,-0.3222,-0.2995,-0.2638,-0.2343,-0.2132,-0.1907,-0.2132,-0.2132,-0.202,-0.2469,-0.2725,-0.2888,-0.3164,-0.3575,0.0,0.0,0.0,-0.4073,-0.4316,-0.4439,-0.4562,-0.5176,-0.5546,-0.5794,-0.5916,-0.616,-0.6434,-0.6173,-0.6764,-0.7372,-0.7495,-0.8119,-0.8587,-0.8587,-0.8587,-0.8587,-0.8587,-0.8943,-0.9336,-0.9483,-1.0022,-1.0149,-1.0006,-1.0606,-1.0753,-1.0023,-1.0726,-1.0863,-1.0254,-1.0378,-1.0352,-1.0014,-1.0019,-1.0019,-1.0019,-1.0019,-1.0019,-1.0019,-1.0019,-1.0019,-1.0019,-1.0019,-0.9555,-0.8778,-0.8781,-0.831,-0.7525,-0.7525,-0.7525,-0.7525,-0.7525,-0.7525,-0.7525,-0.7525,-0.7525,-0.7525,-0.7525,-0.7683,-0.8156,0.0,0.0,0.0,0.0,0.0,0.0,0.0,0.0,0.0,0.0,0.0,0.0,0.0,0.0,0.0,-0.4798,-0.5172,-0.5489,-0.576,-0.5418,-0.5216,-0.516,-0.4908,-0.4612,-0.4169,-0.4085,-0.3975,-0.3621,-0.3508,-0.3432,-0.3496,-0.3465,-0.3466,-0.3496,-0.3492,-0.3401,-0.3324,-0.3317,-0.2988,-0.2334,-0.2487,-0.2264,-0.1797,-0.2155,-0.2037,-0.1907,-0.2469,-0.2721,-0.2875,-0.3012,-0.3426,-0.3865,-0.3647,0.0,0.0,0.0,-0.4071,-0.4318,-0.4931,-0.5179,-0.5425,-0.5794,-0.616,-0.6306,-0.6033,-0.6629,-0.7238,-0.7345,-0.7847,-0.8323,-0.8587,-0.8587,-0.8587,-0.8587,-0.8957,-0.9493,-0.9763,-1.0037,-1.0312,-1.0296,-1.075,-1.0753,-1.0023,-1.0795,-1.1095,-1.026,-1.0445,-1.0426,-1.0017,-1.0019,-1.0019,-1.0019,-1.0019,-1.0019,-1.0019,-1.0019,-1.0019,-1.0019,-0.9711,-0.9399,-0.8778,-0.8625,-0.8154,-0.7525,-0.7525,-0.7683,-0.7842,-0.7842,-0.7998,-0.8152,-0.8152,-0.8152,-0.8152,-0.8152,-0.831,-0.8625,0.0,0.0,0.0,0.0,0.0,0.0,0.0,0.0,0.0,0.0,0.0,0.0,0.0,0.0,0.0,0.0,-0.5361,-0.58,-0.6126,-0.5641,-0.5307,-0.523,-0.4999,-0.4716,-0.4379,-0.421,-0.3993,-0.3833,-0.3484,-0.3403,-0.3474,-0.3432,-0.3443,-0.3387,-0.3469,-0.3285,-0.3135,-0.3317,-0.3,-0.2373,-0.2519,-0.229,-0.1934,-0.2294,-0.2169,-0.1918,-0.2697,-0.2834,-0.2645,-0.2885,-0.3299,-0.362,-0.3513,-0.3547,0.0,0.0,0.0,-0.4196,-0.4687,-0.4933,-0.5179,-0.5794,-0.6037,-0.6179,-0.6002,-0.6482,-0.6974,-0.731,-0.7695,-0.8058,-0.8456,-0.8587,-0.8587,-0.8587,-0.8985,-0.9531,-0.9905,-1.0064,-1.0206,-1.0299,-1.0603,-1.0618,-0.9928,-1.0872,-1.1177,-1.0159,-1.0514,-1.0486,-1.0022,-1.0019,-1.0019,-1.0019,-1.0019,-1.0019,-1.0019,-1.0019,-1.0019,-1.0019,-0.9711,-0.9244,-0.8778,-0.8469,-0.7998,-0.7525,-0.7683,-0.7842,-0.8159,-0.8315,-0.8469,-0.8778,-0.8778,-0.8778,-0.8778,-0.8778,-0.8934,-0.8934,0.0,0.0,0.0,0.0,0.0,0.0,0.0,0.0,0.0,0.0,0.0,0.0,-0.4667,-0.4482,-0.4696,-0.544,-0.5457,-0.5706,-0.6321,-0.6139,-0.5837,-0.5627,-0.5336,0.0,-0.4551,-0.432,-0.415,-0.3939,-0.357,-0.3463,-0.3417,-0.3414,-0.3337,-0.3176,-0.3445,-0.3357,-0.3137,-0.3135,-0.2938,-0.2754,-0.2414,-0.2322,-0.2348,-0.2546,-0.2299,-0.1949,-0.3157,-0.3061,-0.2421,-0.3043,-0.3092,-0.3022,-0.3435,-0.3453,-0.358,0.0,0.0,0.0,-0.481,-0.5177,-0.5421,-0.5794,-0.5916,-0.5919,-0.5923,-0.6057,-0.6438,-0.7215,-0.7384,-0.7791,-0.8454,-0.8587,-0.8587,-0.8587,-0.9058,-0.9498,-0.9504,-0.9714,-0.9873,-0.9879,-1.0311,-1.0218,-0.9612,-1.1076,-1.1364,-0.9973,-1.0717,-1.0952,-1.0019,-1.0019,-1.0019,-1.0019,-1.0019,-1.0019,-1.0019,-1.0019,-1.0019,-1.0019,-1.0019,-0.9555,-0.8778,-0.8778,-0.8308,-0.7525,-0.8,-0.8159,-0.8159,-0.8625,-0.8778,-0.8778,-0.8778,-0.8778,-0.8778,-0.8778,-0.909,-0.9399,0.0,0.0,0.0,0.0,0.0,0.0,0.0,0.0,0.0,0.0,0.0,0.0,0.0,-0.4751,-0.4947,-0.5351,-0.5711,-0.6074,-0.6426,-0.6209,-0.6047,-0.5739,-0.5597,-0.5337,-0.4956,-0.4509,-0.4201,-0.4154,-0.3646,-0.3451,-0.3466,-0.3214,-0.3138,-0.3111,-0.3427,-0.3107,-0.2581,-0.3175,-0.3086,-0.2534,-0.2587,-0.2586,-0.2325,-0.2713,-0.2576,-0.2187,-0.3119,-0.302,-0.2571,-0.2704,-0.2738,-0.2896,-0.2791,-0.306,-0.358,-0.3826,-0.395,-0.4195,-0.481,-0.4933,-0.5177,-0.5794,-0.6039,-0.616,-0.616,-0.6432,-0.6697,-0.7461,-0.7507,-0.7658,-0.8454,-0.8587,-0.8745,-0.896,-0.9528,-0.995,-1.0318,-1.0342,-1.0311,-1.0311,-1.0452,-1.0221,-0.962,-1.0782,-1.1067,-0.9829,-1.0412,-1.0641,-1.0022,-1.0019,-1.0019,-1.0019,-1.0019,-1.0019,-1.0019,-1.0019,-1.0019,-1.0019,-1.033,-1.0022,-0.9244,-0.9399,-0.9088,-0.8308,-0.8778,-0.8781,-0.8625,-0.909,-0.9399,-0.9555,-0.9555,-0.9555,-0.9555,-0.9555,-0.9711,-0.9711,0.0,0.0,0.0,0.0,0.0,0.0,0.0,0.0,0.0,-0.4801,0.0,0.0,0.0,0.0,-0.5184,-0.522,-0.5802,-0.6278,-0.6292,-0.6411,-0.6266,-0.6054,-0.581,-0.5651,-0.5258,-0.4645,-0.4312,-0.4261,-0.3731,-0.3431,-0.3467,-0.3233,-0.3165,-0.3136,-0.3433,-0.3107,-0.2359,-0.3082,-0.3114,-0.2673,-0.2743,-0.2628,-0.2597,-0.2637,-0.2618,-0.2456,-0.2938,-0.2953,-0.261,-0.2374,-0.24,-0.2552,-0.243,-0.2937,-0.3579,-0.3703,-0.3826,-0.4074,-0.4689,-0.4935,-0.5056,-0.5671,-0.6039,-0.6283,-0.6403,-0.643,-0.6695,-0.7589,-0.7638,-0.7658,-0.8454,-0.8587,-0.8762,-0.9019,-0.9557,-1.0107,-1.0668,-1.0516,-1.0311,-1.0455,-1.0455,-1.0221,-0.962,-1.0785,-1.1067,-0.9829,-1.0412,-1.0641,-1.0022,-1.0019,-1.0003,-1.0117,-1.0271,-1.0271,-1.0271,-1.0466,-1.0486,-1.0486,-1.0486,-1.0175,-0.9555,-0.9708,-0.9399,-0.8781,-0.9246,-0.9246,-0.909,-0.9399,-0.9711,-1.0019,-1.0019,-1.0019,-1.0019,-1.0019,-1.0019,-1.0019,0.0,0.0,0.0,0.0,0.0,0.0,0.0,0.0,-0.4599,-0.507,0.0,0.0,0.0,0.0,0.0,-0.5334,-0.5726,-0.6095,-0.621,-0.6637,-0.6701,-0.6378,-0.6174,-0.5903,-0.5676,-0.484,-0.4266,-0.4264,-0.3734,-0.3416,-0.3416,-0.3471,-0.3308,-0.3137,-0.3477,-0.3255,-0.2699,-0.2741,-0.3017,-0.3185,-0.2637,-0.2677,-0.2954,-0.2547,-0.2411,-0.2405,-0.2725,-0.2619,-0.2412,-0.2412,-0.2195,-0.2099,-0.2344,-0.2961,-0.3455,-0.3455,-0.3703,-0.4074,0.0,0.0,0.0,-0.5671,-0.5916,-0.6039,-0.628,-0.63,-0.656,-0.7459,-0.7636,-0.7655,-0.8454,-0.8587,-0.8628,-0.875,-0.9148,-0.9689,-1.0245,-1.009,-1.0023,-1.0455,-1.0455,-1.0221,-0.962,-1.1079,-1.1364,-0.9982,-1.0717,-1.0949,-1.0019,-1.0019,-1.0122,-1.0465,-1.0764,-1.1066,-1.1063,-1.1189,-1.1253,-1.1256,-1.0791,-1.0328,-1.0019,-0.9555,-0.9246,-0.8778,-0.9246,-0.9399,-0.9399,-0.9866,-1.0019,-1.0019,-1.0019,-1.0019,-1.0019,-1.0019,-1.0019,-1.0019,0.0,0.0,0.0,0.0,0.0,0.0,-0.4561,-0.4508,-0.4649,0.0,0.0,0.0,-0.5618,-0.5508,-0.5649,-0.5962,-0.603,-0.6316,-0.6639,-0.6866,-0.6719,-0.6177,-0.6253,-0.598,-0.5454,-0.4985,-0.4614,-0.4342,-0.3909,-0.3691,-0.3473,-0.3274,-0.32,-0.3139,-0.3064,-0.2855,-0.2746,-0.3254,-0.3305,-0.2998,-0.2923,-0.2686,-0.2549,-0.2445,-0.2556,-0.2774,-0.2673,-0.2687,-0.2819,-0.2331,-0.2092,-0.2099,-0.2344,-0.259,-0.2838,-0.3332,-0.358,-0.3826,-0.4689,0.0,0.0,0.0,0.0,0.0,-0.6653,-0.6749,-0.6986,-0.7832,-0.7707,-0.7566,-0.844,-0.8456,-0.8362,-0.875,-0.9148,-0.9829,-1.0668,-1.0516,-1.0311,-1.0455,-1.0746,-1.0517,-0.9623,-1.0399,-1.0661,-0.9821,-1.002,-1.0081,-1.0014,-1.033,-1.0432,-1.0465,-1.0764,-1.1021,-1.0923,-1.0956,-1.1024,-1.1121,-1.0968,-1.0709,-1.0486,-1.033,-1.0019,-0.9711,-0.9711,-0.9866,-0.9866,-1.0019,-1.0019,-1.0019,-1.0019,-1.0019,-1.0019,-1.0019,-1.0019,-1.0019,0.0,0.0,0.0,0.0,0.0,-0.3707,-0.4485,-0.4759,-0.5018,0.0,0.0,0.0,-0.592,-0.5705,-0.5732,-0.6208,-0.6299,-0.6484,-0.6658,-0.6774,-0.6728,-0.6399,-0.6239,-0.5938,-0.5603,-0.501,-0.4638,-0.4375,-0.3963,-0.3646,-0.3536,-0.3477,-0.3404,-0.3435,-0.3237,-0.3263,-0.3171,-0.3555,-0.3468,-0.3139,-0.282,-0.2822,-0.2803,-0.2582,-0.2699,-0.2924,-0.2582,-0.259,-0.2715,-0.2223,-0.1977,-0.1976,-0.2222,-0.2344,-0.259,-0.3085,-0.3454,-0.3824,-0.4687,-0.5056,-0.5179,-0.5794,0.0,0.0,-0.6778,-0.6731,-0.683,-0.7829,-0.7684,-0.7529,-0.8302,-0.8323,-0.8344,-0.8682,-0.9066,-0.9745,-1.0439,-1.0574,-1.0659,-1.0659,-1.0859,-1.064,-0.9694,-1.048,-1.0577,-0.968,-0.9891,-0.9971,-0.9938,-1.0409,-1.0662,-1.0533,-1.1191,-1.1428,-1.1224,-1.1342,-1.1415,-1.1438,-1.1194,-1.0956,-1.072,-1.0463,-1.0175,-1.0019,-1.0019,-1.0019,-1.0019,-1.0019,-1.0019,-1.0019,-1.0019,-1.0019,-1.0019,-1.0019,-1.0019,-1.0019,0.0,0.0,-0.3179,-0.3341,-0.3655,-0.3957,-0.4159,-0.4842,-0.5523,0.0,-0.5924,-0.6061,-0.6177,-0.5853,-0.5749,-0.6167,-0.645,-0.6565,-0.6565,-0.6659,-0.6604,-0.6601,-0.6044,-0.5822,-0.571,-0.4869,-0.4399,-0.4399,-0.3914,-0.3608,-0.3609,-0.3718,-0.3768,-0.3768,-0.3775,-0.3689,-0.3739,-0.3503,-0.3385,-0.3268,-0.2699,-0.2838,-0.3332,-0.2714,-0.2714,-0.2961,-0.259,-0.2467,-0.2467,-0.2099,-0.1977,-0.1977,-0.1977,-0.2222,-0.2467,-0.2837,-0.333,-0.3944,-0.4685,-0.5054,-0.5421,-0.5794,-0.5916,0.0,-0.6655,-0.6485,-0.633,-0.7449,-0.7555,-0.7529,-0.8035,-0.8323,-0.8587,-0.8587,-0.908,-0.9472,-1.0015,-1.0433,-1.0809,-1.0825,-1.0941,-1.0734,-1.0023,-1.0711,-1.0791,-0.9634,-1.0048,-1.0164,-0.9813,-1.06,-1.0999,-1.0847,-1.173,-1.2118,-1.1809,-1.2077,-1.2155,-1.204,-1.1283,-1.1054,-1.092,-1.0277,-1.0019,-1.0019,-1.0019,-1.0019,-1.0019,-1.0019,-1.0019,-1.0019,-1.0019,-1.0019,-1.0019,-1.0019,-1.0019,-1.0019,0.0,-0.319,-0.3408,-0.3995,-0.3797,-0.3903,-0.5059,-0.5237,-0.5508,-0.5943,-0.6362,-0.6531,-0.6294,-0.6399,-0.6399,-0.6291,-0.633,-0.6354,-0.6354,-0.6374,-0.6272,-0.5933,-0.5822,-0.5712,-0.5491,-0.5094,-0.4779,-0.455,-0.4279,-0.3965,-0.3734,-0.3522,-0.3414,-0.3417,-0.3461,-0.3246,-0.2654,-0.2933,-0.2948,-0.2703,-0.2834,-0.2837,-0.2714,-0.259,-0.259,-0.259,-0.2222,-0.2222,-0.2467,-0.2099,-0.1977,-0.1977,-0.1977,-0.2099,-0.2223,-0.2468,-0.2837,-0.333,-0.4315,-0.4562,-0.4808,-0.5671,-0.5669,0.0,-0.6405,-0.648,-0.6704,-0.7566,-0.755,-0.7529,-0.8299,-0.8323,-0.8323,-0.8587,-0.9146,-0.9744,-0.9875,-1.0285,-1.0696,-1.0812,-1.1133,-1.1054,-1.0443,-1.0775,-1.0692,-1.0067,-0.9896,-0.983,-0.9701,-1.0553,-1.0956,-1.0706,-1.158,-1.1962,-1.1664,-1.1721,-1.1792,-1.1877,-1.1136,-1.0963,-1.092,-1.0586,-1.033,-1.0019,-1.033,-1.033,-1.0019,-1.0019,-1.0019,-1.0019,-1.0019,-1.0019,-1.0019,-1.0019,-1.0019,-1.0019,-0.3227,-0.3322,-0.3535,-0.3923,-0.3826,-0.3926,-0.4645,-0.514,-0.5619,-0.59,-0.6313,-0.6626,-0.6571,-0.6689,-0.6711,-0.6655,-0.6608,-0.6576,-0.6348,-0.6186,-0.5935,-0.5822,-0.5756,-0.5556,-0.5221,-0.4958,-0.4651,-0.4417,-0.4136,-0.3932,-0.3815,-0.3484,-0.3377,-0.3378,-0.3282,-0.3049,-0.2929,-0.2951,-0.3085,-0.3208,-0.2838,-0.2837,-0.2961,-0.2837,-0.2714,-0.2714,-0.2345,-0.2222,-0.2222,-0.2099,-0.1977,-0.1977,-0.1977,-0.1977,-0.2099,-0.2344,-0.2714,-0.3208,-0.3946,-0.4315,-0.4561,-0.5423,-0.5544,0.0,0.0,-0.6391,-0.6467,-0.7381,-0.7329,-0.74,-0.8169,-0.8192,-0.8189,-0.8587,-0.9259,-0.9685,-0.9747,-1.0283,-1.0809,-1.0885,-1.1094,-1.1194,-1.063,-1.0789,-1.0706,-1.0114,-0.9891,-0.9661,-0.9576,-1.0445,-1.0874,-1.0663,-1.1537,-1.1955,-1.1728,-1.1803,-1.169,-1.1544,-1.1167,-1.0815,-1.0521,-1.04,-1.0175,-1.0019,-1.0175,-1.0175,-1.0019,-1.0175,-1.033,-1.033,-1.0019,-1.0019,-1.0019,-1.0175,-1.033,-1.033,-0.3578,-0.3658,-0.364,-0.3802,-0.3924,-0.4018,-0.4182,-0.5107,-0.5688,-0.574,-0.6246,-0.6566,-0.6675,-0.6802,-0.6839,-0.693,-0.6854,-0.6687,-0.6338,-0.6034,-0.5879,-0.5764,-0.561,-0.5305,-0.5079,-0.4807,-0.4491,-0.4254,-0.3966,-0.3877,-0.3879,-0.3559,-0.3455,-0.3332,-0.3085,-0.2961,-0.3209,-0.3086,-0.3209,-0.3457,-0.2838,-0.2961,-0.3332,-0.3085,-0.2838,-0.2715,-0.2468,-0.2222,-0.1977,-0.1977,-0.1977,-0.1977,-0.1977,-0.1977,-0.2099,-0.2345,-0.259,-0.3083,-0.3698,-0.4069,-0.4438,-0.5176,-0.5421,-0.5565,0.0,0.0,0.0,-0.7196,-0.7123,-0.7162,-0.7907,-0.8058,-0.8189,-0.8587,-0.9123,-0.9661,-0.9661,-1.0293,-1.0782,-1.0945,-1.105,-1.1054,-1.0953,-1.0851,-1.0618,-1.0126,-1.0009,-0.9914,-0.9705,-1.0444,-1.0912,-1.0627,-1.1495,-1.1955,-1.1833,-1.1928,-1.178,-1.125,-1.1033,-1.0631,-1.0234,-1.0159,-1.012,-1.0142,-1.0142,-1.0156,-1.033,-1.0641,-1.0796,-1.0641,-1.033,-1.0175,-1.033,-1.0641,-1.0796,-1.0793,-0.3811,-0.3918,-0.4139,-0.4704,-0.4372,-0.4258,-0.5144,-0.5369,-0.5622,-0.5928,-0.6059,-0.6107,-0.6208,-0.6448,-0.6567,-0.6698,-0.6689,-0.6448,-0.61,-0.6091,-0.5966,-0.5612,-0.5393,-0.5165,-0.5167,-0.4649,-0.4324,-0.4324,-0.4031,-0.394,-0.394,-0.3329,-0.3085,-0.3085,-0.2714,-0.2468,-0.2223,-0.2716,-0.2716,-0.2223,-0.2715,-0.2961,-0.2961,-0.2714,-0.2345,-0.2099,-0.2099,-0.1976,-0.1977,-0.1977,-0.1977,-0.1977,-0.1977,-0.1977,-0.1977,-0.2099,-0.2346,-0.2714,-0.3331,-0.3701,-0.419,-0.5176,-0.5421,-0.5567,-0.6404,0.0,-0.6451,-0.7213,0.0,-0.724,-0.7922,0.0,0.0,-0.8587,-0.8984,-0.9253,-0.9661,-1.0073,-1.0398,-1.0799,-1.0962,-1.1084,-1.1365,-1.1087,-1.083,-1.0715,-1.0531,-1.0269,-1.017,-1.0838,-1.1208,-1.0925,-1.1491,-1.1847,-1.183,-1.1725,-1.158,-1.1247,-1.0838,-1.0549,-1.0537,-1.0395,-1.0524,-1.0938,-1.0941,-1.1004,-1.1107,-1.1262,-1.1262,-1.1262,-1.1107,-1.1107,-1.1107,-1.1262,-1.1262,-1.1262,-0.3701,-0.3813,-0.3811,-0.4147,-0.3923,-0.3924,-0.4485,-0.5083,-0.5711,-0.6272,-0.6285,-0.6325,-0.6428,-0.6556,-0.6698,-0.676,-0.671,-0.6556,-0.6197,-0.6149,-0.5998,-0.5643,-0.5578,-0.5368,-0.5013,-0.4725,-0.4398,-0.4032,-0.3937,-0.3951,-0.3951,-0.3455,-0.3332,-0.3209,-0.2714,-0.2591,-0.2592,-0.2715,-0.2715,-0.2592,-0.2715,-0.2728,-0.2747,-0.2599,-0.2345,-0.1977,-0.1977,-0.1977,-0.1977,-0.1977,-0.1977,-0.1977,-0.1977,-0.1977,-0.1977,-0.1977,-0.2222,-0.259,-0.3085,-0.3454,-0.3947,-0.4808,-0.5054,-0.5322,-0.6031,-0.6375,-0.6597,-0.7087,0.0,0.0,0.0,0.0,0.0,0.0,-0.872,-0.9253,-0.9661,-1.0193,-1.0611,-1.0809,-1.0548,-1.0627,-1.0832,-1.0845,-1.0767,-1.0706,-1.0614,-1.0517,-1.026,-1.0731,-1.1102,-1.1044,-1.1388,-1.1748,-1.183,-1.1772,-1.1626,-1.1247,-1.0887,-1.0737,-1.0663,-1.0354,-1.0445,-1.095,-1.095,-1.0981,-1.1039,-1.1425,-1.1459,-1.1619,-1.1853,-1.1727,-1.1262,-1.1572,-1.1727,-1.1727,-0.3409,-0.3624,-0.3839,-0.395,-0.3965,-0.3977,-0.4432,-0.5047,-0.5693,-0.6257,-0.6271,-0.6309,-0.6411,-0.6422,-0.6572,-0.6893,-0.6829,-0.6663,-0.642,-0.6235,-0.6077,-0.5718,-0.5662,-0.5454,-0.4971,-0.4782,-0.4564,-0.4073,-0.3966,-0.3974,-0.3974,-0.3616,-0.3498,-0.3498,-0.2872,-0.2623,-0.2873,-0.2623,-0.2623,-0.2748,-0.2623,-0.2514,-0.241,-0.2394,-0.2257,-0.2001,-0.2001,-0.1995,-0.1987,-0.1979,-0.1977,-0.1977,-0.1977,-0.1977,-0.1977,-0.1977,-0.2222,-0.259,-0.2961,-0.3331,-0.3824,-0.4564,-0.4933,-0.5199,-0.5906,-0.6353,-0.6695,-0.6821,-0.6901,0.0,0.0,0.0,-0.7388,-0.8058,0.0,-0.9253,-0.9661,-1.0193,-1.0588,-1.0721,-1.0525,-1.0315,-1.047,-1.0573,-1.0696,-1.0754,-1.0822,-1.0738,-1.0486,-1.0905,-1.111,-1.1067,-1.1392,-1.1626,-1.1772,-1.1772,-1.1647,-1.1247,-1.1164,-1.0995,-1.0754,-1.0558,-1.0625,-1.1104,-1.0956,-1.0977,-1.117,-1.1579,-1.1772,-1.1786,-1.2233,-1.2109,-1.1622,-1.1853,-1.2037,-1.2037,-0.3175,-0.3715,-0.4251,-0.4936,-0.4884,-0.4817,-0.5401,-0.552,-0.5671,-0.5763,-0.5778,-0.5812,-0.5902,-0.5912,-0.616,-0.69,-0.6648,-0.6523,-0.6896,-0.6519,-0.6274,-0.5908,-0.554,-0.5418,-0.5418,-0.4805,-0.4438,-0.4438,-0.4129,-0.4031,-0.4033,-0.3707,-0.3603,-0.3603,-0.2834,-0.2577,-0.2577,-0.2577,-0.2448,-0.219,-0.2448,-0.2448,-0.2065,-0.2094,-0.2086,-0.2061,-0.2061,-0.2042,-0.2013,-0.1986,-0.1977,-0.1977,-0.1977,-0.1977,-0.1977,-0.1977,-0.2222,-0.259,-0.2961,-0.3453,-0.3944,-0.4315,-0.493,-0.5565,-0.6025,-0.63,-0.6611,-0.6808,-0.685,-0.6878,-0.6969,-0.7257,-0.766,-0.8058,-0.872,0.0,0.0,-1.006,-1.0323,-1.0721,-1.0564,-1.0626,-1.0622,-1.0842,-1.1054,-1.1185,-1.1436,-1.1477,-1.1185,-1.1314,-1.1331,-1.1182,-1.1321,-1.147,-1.1626,-1.1626,-1.1549,-1.1244,-1.1543,-1.1332,-1.105,-1.1044,-1.1263,-1.169,-1.14,-1.163,-1.2064,-1.2067,-1.2067,-1.2084,-1.2237,-1.2206,-1.2111,-1.2396,-1.2501,-1.2501,-0.2825,-0.3311,-0.3785,-0.4213,-0.4106,-0.4372,-0.5013,-0.5497,-0.5767,-0.5859,-0.5872,-0.5882,-0.5914,-0.5916,-0.6039,-0.6528,-0.6403,-0.6528,-0.69,-0.6775,-0.653,-0.6283,-0.6158,-0.5792,-0.5054,-0.4855,-0.4629,-0.4129,-0.4065,-0.4094,-0.4095,-0.3986,-0.3867,-0.3608,-0.3352,-0.2966,-0.2581,-0.2581,-0.2451,-0.2065,-0.2216,-0.2356,-0.2355,-0.2213,-0.2073,-0.2061,-0.2041,-0.2027,-0.2014,-0.1986,-0.1977,-0.1977,-0.1977,-0.1977,-0.1977,-0.1977,-0.2346,-0.2837,-0.2961,-0.3454,-0.3948,-0.4316,-0.4685,-0.5184,-0.5579,-0.6129,-0.6571,-0.6385,-0.6627,-0.6856,-0.6621,-0.6943,-0.7254,-0.7658,-0.8323,-0.8853,0.0,-0.9788,-1.0287,-1.0582,-1.0349,-1.012,-0.9936,-1.0396,-1.0718,-1.1029,-1.1297,-1.1379,-1.1172,-1.1307,-1.1321,-1.1168,-1.1212,-1.1314,-1.1467,-1.1467,-1.1541,-1.1835,-1.163,-1.1749,-1.2183,-1.1893,-1.1924,-1.2124,-1.198,-1.1866,-1.1775,-1.187,-1.1908,-1.1925,-1.2077,-1.2108,-1.2088,-1.2288,-1.2362,-1.2359,-0.2754,-0.3139,-0.3387,-0.3928,-0.4175,-0.4564,-0.4972,-0.5466,-0.5849,-0.591,-0.5916,-0.5916,-0.6039,-0.5916,-0.6039,-0.6528,-0.6526,-0.6528,-0.69,-0.6775,-0.665,-0.6403,-0.6315,-0.584,-0.5096,-0.517,-0.4955,-0.4195,-0.4258,-0.4288,-0.4158,-0.405,-0.3927,-0.3665,-0.3533,-0.3142,-0.2621,-0.2621,-0.249,-0.2098,-0.2118,-0.2258,-0.2389,-0.2235,-0.2227,-0.2356,-0.2204,-0.2189,-0.2045,-0.2005,-0.1992,-0.199,-0.1979,-0.1977,-0.1977,-0.1977,-0.2469,-0.2961,-0.2961,-0.3455,-0.395,-0.4316,-0.4685,-0.4933,-0.5298,-0.5957,-0.6385,-0.6045,-0.64,-0.6623,-0.6264,-0.6738,-0.7201,-0.7469,-0.8163,-0.8987,0.0,-0.9924,-1.027,-1.025,-1.0231,-1.0132,-0.999,-1.0238,-1.0545,-1.1083,-1.131,-1.1267,-1.1168,-1.1257,-1.1243,-1.109,-1.1134,-1.1209,-1.1307,-1.1365,-1.1609,-1.2194,-1.204,-1.232,-1.2753,-1.261,-1.247,-1.2194,-1.2194,-1.1907,-1.1626,-1.1718,-1.1755,-1.1772,-1.1921,-1.1948,-1.1928,-1.2135,-1.2361,-1.2512,-0.2838,-0.3085,-0.3315,-0.4111,-0.4882,-0.5298,-0.5421,-0.5669,-0.5916,-0.5916,-0.5916,-0.6039,-0.6403,-0.616,-0.6162,-0.69,-0.665,-0.6528,-0.69,-0.665,-0.6405,-0.641,-0.6131,-0.5802,-0.5552,-0.5635,-0.5292,-0.4648,-0.4717,-0.4617,-0.4222,-0.3878,-0.3768,-0.3768,-0.3363,-0.2961,-0.2694,-0.2694,-0.2559,-0.2155,-0.2155,-0.2155,-0.2289,-0.2289,-0.2424,-0.2694,-0.2691,-0.2401,-0.21,-0.2039,-0.2018,-0.2014,-0.1986,-0.1977,-0.1977,-0.1977,-0.2469,-0.3085,-0.3085,-0.3455,-0.395,-0.4316,-0.4685,-0.4933,-0.5298,-0.5912,-0.6309,-0.6029,-0.6298,-0.6454,-0.6287,-0.6897,-0.736,-0.736,-0.8363,-0.9368,-1.0044,-1.018,-1.0128,-0.999,-1.0096,-1.0383,-1.0883,-1.0611,-1.0654,-1.1344,-1.1344,-1.1155,-1.1162,-1.1162,-1.1097,-1.0955,-1.108,-1.1155,-1.1162,-1.1307,-1.1602,-1.2194,-1.2613,-1.2757,-1.2764,-1.3186,-1.2907,-1.2205,-1.2198,-1.2051,-1.1619,-1.1619,-1.1619,-1.1633,-1.1769,-1.1738,-1.1653,-1.1945,-1.2348,-1.2646,-0.2838,-0.3332,-0.3698,-0.3929,-0.4306,-0.4684,-0.4931,-0.5548,-0.5916,-0.5916,-0.616,-0.6283,-0.6403,-0.6283,-0.6405,-0.69,-0.665,-0.6648,-0.7266,-0.6771,-0.6559,-0.6881,-0.6536,-0.6208,-0.5638,-0.546,-0.5109,-0.472,-0.4522,-0.4419,-0.4285,-0.3896,-0.3632,-0.3363,-0.3228,-0.2826,-0.2289,-0.2559,-0.2559,-0.2155,-0.2155,-0.2289,-0.2559,-0.2559,-0.2559,-0.269,-0.2395,-0.2248,-0.21,-0.2039,-0.2018,-0.2014,-0.1986,-0.2223,-0.2345,-0.2345,-0.2838,-0.3332,-0.3332,-0.358,-0.395,-0.4316,-0.4439,-0.4685,-0.5298,-0.5544,-0.5673,-0.5947,-0.6006,-0.6059,-0.6082,-0.6668,-0.7248,-0.7248,-0.8173,-0.9001,-0.9493,-0.9901,-1.0146,-1.0367,-1.0397,-1.036,-1.0082,-1.0273,-1.0544,-1.0895,-1.0917,-1.105,-1.1158,-1.1162,-1.1097,-1.0955,-1.0985,-1.1056,-1.1162,-1.1202,-1.1636,-1.2194,-1.2613,-1.282,-1.2935,-1.3531,-1.3399,-1.279,-1.2669,-1.2474,-1.2051,-1.1763,-1.1619,-1.1623,-1.166,-1.1794,-1.2075,-1.2262,-1.2776,-1.3363,-0.2715,-0.3332,-0.3703,-0.3828,-0.4094,-0.4358,-0.4734,-0.5229,-0.5615,-0.5778,-0.6031,-0.6406,-0.6656,-0.6656,-0.6659,-0.7036,-0.6784,-0.6659,-0.7034,-0.6784,-0.6683,-0.6864,-0.6525,-0.619,-0.5726,-0.5805,-0.5449,-0.4787,-0.4826,-0.4575,-0.4308,-0.3902,-0.3632,-0.3228,-0.3228,-0.296,-0.2424,-0.2559,-0.2559,-0.2155,-0.2155,-0.2289,0.0,-0.2425,-0.2425,-0.2422,-0.2268,-0.2129,-0.2122,-0.2074,-0.2059,-0.2053,-0.2024,-0.2256,-0.2492,-0.2492,-0.2977,-0.3455,-0.3455,-0.3703,-0.4073,-0.4441,-0.4562,-0.4808,-0.5423,-0.5669,-0.5669,-0.5916,-0.5957,-0.5994,-0.5994,-0.6567,-0.728,-0.7584,-0.8103,-0.8639,-0.9227,-0.9546,-0.9954,-1.0409,-1.0456,-1.0277,-0.9939,-1.0112,-1.0476,-1.0774,-1.0663,-1.0843,-1.1056,-1.1128,-1.1158,-1.1145,-1.1077,-1.1111,-1.126,-1.1334,-1.1734,-1.2474,-1.2757,-1.2949,-1.3473,-1.3515,-1.3379,-1.3176,-1.3081,-1.276,-1.2194,-1.1907,-1.1763,-1.1619,-1.1763,-1.2191,-1.2628,-1.2717,-1.3039,-1.3477,-0.2481,-0.3103,-0.36,-0.3849,-0.4014,-0.4177,-0.4438,-0.481,-0.5206,-0.5661,-0.6064,-0.6451,-0.7082,-0.6839,-0.6846,-0.7229,-0.6846,-0.6724,-0.6737,-0.6726,-0.6724,-0.6735,-0.6412,-0.6191,-0.5944,-0.6281,-0.5915,-0.4973,-0.5245,-0.4978,-0.4307,-0.4037,-0.3632,-0.3228,-0.3229,-0.2961,-0.2694,-0.2694,-0.2559,-0.2289,-0.2155,-0.2155,-0.2155,-0.2155,-0.2155,-0.2155,-0.2289,-0.2289,-0.215,-0.2119,-0.2109,-0.2236,-0.2203,-0.2426,-0.265,-0.265,-0.3122,-0.358,-0.3579,-0.3826,-0.4073,-0.481,-0.4933,-0.5056,-0.5796,-0.5916,-0.5794,-0.5916,-0.5916,-0.5916,-0.5916,-0.6598,-0.7316,-0.8063,-0.8198,-0.8441,-0.92,-0.9432,-0.972,-1.0109,-1.0348,0.0,-1.0103,-1.0181,-1.0376,-1.063,-1.0489,-1.0575,-1.09,-1.1056,-1.1206,-1.1355,-1.1229,-1.1236,-1.1389,-1.1518,-1.201,-1.2613,-1.2753,-1.3062,-1.3682,-1.3491,-1.3352,-1.3391,-1.3344,-1.29,-1.2338,-1.2194,-1.2051,-1.1763,-1.2194,-1.276,-1.3325,-1.3325,-1.3325,-1.3468,-0.2554,-0.3072,-0.3582,-0.3582,-0.4104,-0.4514,-0.4308,-0.4918,-0.5653,-0.605,-0.6509,-0.6658,-0.6837,-0.6772,-0.6952,-0.7208,-0.6949,-0.6985,-0.7199,-0.6729,-0.6458,-0.6797,-0.6479,-0.6351,-0.6429,-0.6176,-0.5914,-0.5644,-0.5108,-0.4841,-0.4707,-0.4035,-0.3768,-0.3633,-0.3097,-0.2694,-0.2694,-0.2694,-0.2694,-0.2559,-0.2289,-0.2155,-0.2155,-0.2155,-0.2155,-0.2289,-0.2559,-0.2424,-0.2284,-0.2385,-0.2505,-0.2499,-0.2852,-0.3066,-0.3282,-0.3282,-0.3622,-0.395,-0.4193,-0.4316,-0.4439,-0.5176,-0.5054,-0.5056,-0.5796,-0.5669,-0.5546,-0.5794,-0.5916,-0.6039,-0.6283,-0.691,-0.7575,-0.8068,-0.8254,-0.8436,-0.8799,-0.9186,-0.9439,-0.9903,-1.0036,-1.0154,-1.0232,-1.0148,-1.009,-1.009,-1.0114,-1.0314,-1.0738,-1.0904,-1.1053,-1.1199,-1.1175,-1.1236,-1.1389,-1.1379,-1.1454,-1.176,-1.247,-1.2898,-1.2864,-1.3457,-1.3774,-1.3742,-1.345,-1.3039,-1.2613,-1.2334,-1.2198,-1.2194,-1.29,-1.3182,-1.3325,-1.3615,-1.3757,-1.3757,-0.2577,-0.2966,-0.3353,-0.3609,-0.4022,-0.4574,-0.4737,-0.5139,-0.5535,-0.5796,-0.6095,-0.6502,-0.6852,-0.7024,-0.7206,-0.7257,-0.6993,-0.7038,-0.6998,-0.6689,-0.6527,-0.6794,-0.6617,-0.6457,-0.6453,-0.6048,-0.578,-0.5646,-0.5108,-0.4707,-0.4574,-0.4171,-0.3902,-0.3768,-0.323,-0.2828,-0.2694,-0.2694,-0.2705,-0.2723,-0.2315,-0.2188,-0.22,-0.2185,-0.2178,-0.2176,-0.2566,-0.2559,-0.2556,-0.2805,-0.2931,-0.2927,-0.304,-0.3396,-0.3615,-0.3615,-0.3812,-0.3995,-0.4116,-0.4218,-0.4318,-0.4931,-0.5056,-0.5056,-0.5796,-0.5794,-0.5669,-0.5916,-0.5916,-0.6039,-0.653,-0.7021,-0.7526,-0.7951,-0.8284,-0.8468,-0.8636,-0.9048,-0.9402,-0.9612,-0.9674,-0.9841,-1.0284,-1.017,-1.0049,-1.0049,-1.0124,-1.0263,-1.048,-1.0782,-1.1016,-1.1158,-1.124,-1.1318,-1.1392,-1.1379,-1.1695,-1.207,-1.2492,-1.2904,-1.3287,-1.3645,-1.3797,-1.3869,-1.379,-1.3411,-1.2753,-1.2334,-1.2481,-1.276,-1.3186,-1.3468,-1.3611,-1.39,-1.39,-1.39,-0.2604,-0.2865,-0.3255,-0.3643,-0.4072,-0.4499,-0.5159,-0.5342,-0.5515,-0.5649,-0.593,-0.6203,-0.6855,-0.7141,-0.7186,-0.699,-0.6996,-0.69,-0.6721,-0.6727,-0.6686,-0.6594,-0.659,-0.6555,-0.6347,-0.6074,-0.5814,-0.5428,-0.5005,-0.4728,-0.4461,-0.4313,-0.4172,-0.3768,-0.3498,-0.323,-0.2963,-0.2828,-0.2715,-0.2751,-0.2345,-0.2228,-0.2252,-0.2228,-0.2219,-0.2215,-0.2731,-0.2847,-0.284,-0.3378,-0.3371,-0.3363,-0.3363,-0.3598,-0.3821,-0.3821,-0.3881,-0.4055,-0.4055,-0.4147,-0.4357,-0.4837,-0.5082,-0.5324,-0.5798,-0.5916,-0.5916,-0.5916,-0.6039,-0.6285,-0.6778,-0.7266,-0.7627,-0.7872,-0.8122,-0.8436,-0.8509,-0.8938,-0.9274,-0.9364,-0.9304,-0.96,-1.0176,-1.0207,-1.0066,-1.0097,-1.0307,-1.0359,-1.0355,-1.0656,-1.0965,-1.1248,-1.1294,-1.1392,-1.1392,-1.1657,-1.1916,-1.2322,-1.2466,-1.2989,-1.3761,-1.3578,-1.3738,-1.3822,-1.4071,-1.3602,-1.2896,-1.2617,-1.276,-1.3325,-1.3325,-1.3615,-1.39,-1.39,-1.39,-1.39,-0.2684,-0.295,-0.335,-0.3752,-0.4292,-0.4832,-0.483,-0.5106,-0.5649,-0.6319,-0.6525,-0.6545,-0.6598,-0.6664,-0.6717,-0.6588,-0.659,-0.6629,-0.6721,-0.6727,-0.6686,-0.6594,-0.659,-0.6447,-0.6026,-0.6026,-0.579,-0.5587,-0.5103,-0.4933,-0.4795,-0.4468,-0.4172,-0.3768,-0.3768,-0.3768,-0.3633,-0.2962,-0.2851,-0.3163,-0.2508,-0.226,-0.2286,-0.2283,-0.2282,-0.242,-0.3089,-0.3326,-0.329,-0.4115,-0.408,-0.3768,-0.4038,-0.4133,-0.4217,-0.4217,-0.4169,-0.4117,-0.4504,-0.4756,-0.5117,-0.5428,-0.5663,-0.5894,-0.5937,-0.5916,-0.5916,-0.5916,-0.6407,-0.6778,-0.69,-0.7385,-0.7872,-0.7872,-0.8122,-0.8406,-0.8395,-0.8715,-0.9016,-0.9195,-0.9198,-0.9374,-0.9781,-0.9958,-1.0107,-1.0249,-1.052,-1.0568,-1.0443,-1.0627,-1.0943,-1.1368,-1.1382,-1.1392,-1.1392,-1.1657,-1.1721,-1.1735,-1.2429,-1.3013,-1.3321,-1.3471,-1.3575,-1.3704,-1.385,-1.363,-1.3182,-1.3182,-1.3182,-1.3325,-1.3757,-1.39,-1.39,-1.39,-1.39,-1.39,-0.2424,-0.2827,-0.3228,-0.3363,-0.4037,-0.4574,-0.4707,-0.4975,-0.5243,-0.6048,-0.6213,-0.6223,-0.6457,-0.6755,-0.68,-0.6586,-0.6725,-0.6902,-0.6721,-0.6727,-0.6686,-0.6594,-0.659,-0.6427,-0.5962,-0.5694,-0.5461,-0.5123,-0.482,-0.4534,-0.4534,-0.4373,-0.4207,-0.3768,-0.3498,-0.3498,-0.3366,-0.2989,-0.29,-0.2959,-0.2714,-0.2472,-0.2367,-0.233,-0.2461,-0.2743,-0.3249,-0.3474,-0.3709,-0.4261,-0.4221,-0.4172,-0.4307,-0.429,-0.4271,-0.4271,-0.4228,-0.418,-0.4312,-0.4672,-0.5021,-0.5245,-0.5584,-0.579,-0.5882,-0.5957,-0.5916,-0.5916,-0.641,-0.69,-0.69,-0.7508,-0.7994,-0.8122,-0.8488,-0.8642,-0.8728,-0.9033,-0.9178,-0.9052,-0.891,-0.9081,-0.9888,-0.995,-1.0263,-1.0894,-1.0601,-1.0399,-1.0177,-1.0477,-1.0707,-1.0809,-1.1229,-1.154,-1.1403,-1.1427,-1.1526,-1.184,-1.2116,-1.2509,-1.3029,-1.3705,-1.3954,-1.3726,-1.3446,-1.3325,-1.3325,-1.3325,-1.3468,-1.3615,-1.39,-1.39,-1.39,-1.39,-1.4043,-1.4189,-0.2305,-0.2709,-0.3109,-0.3366,-0.3768,-0.4307,-0.4707,-0.4841,-0.5243,-0.5778,-0.6048,-0.6183,-0.6453,-0.6719,-0.6747,-0.6545,-0.6819,-0.6849,-0.6641,-0.6672,-0.6645,-0.6555,-0.6576,-0.6421,-0.5951,-0.5548,-0.5325,-0.514,-0.4847,-0.4572,-0.4589,-0.4414,-0.4229,-0.3902,-0.3363,-0.3236,-0.3387,-0.3012,-0.2799,-0.288,-0.2918,-0.2675,-0.2419,-0.2524,-0.2648,-0.2925,-0.3431,-0.3787,-0.4008,-0.4284,-0.4372,-0.4308,-0.4308,-0.4308,-0.4308,-0.4308,-0.4277,-0.4374,-0.4374,-0.4737,-0.5087,-0.5323,-0.5514,-0.5829,-0.5932,-0.5984,-0.5916,-0.6039,-0.653,-0.7021,-0.7143,-0.763,-0.8119,-0.8488,-0.8821,-0.8966,-0.9007,-0.9175,-0.9303,-0.9093,-0.8802,-0.9041,-0.9923,-0.9978,-1.032,-1.1017,-1.07,-1.051,-1.0308,-1.0561,-1.0733,-1.0623,-1.1276,-1.1611,-1.1424,-1.1386,-1.1498,-1.1884,-1.1967,-1.23,-1.2756,-1.3511,-1.3797,-1.3751,-1.3267,-1.3325,-1.3468,-1.3615,-1.3757,-1.39,-1.39,-1.39,-1.39,-1.39,-1.4189,-1.4479,-0.2619,-0.275,-0.2874,-0.3643,-0.3768,-0.4037,-0.4705,-0.5111,-0.5513,-0.5912,-0.6183,-0.6453,-0.6453,-0.6453,-0.6453,-0.6455,-0.6455,-0.6455,-0.6457,-0.6541,-0.6551,-0.646,-0.6541,-0.6451,-0.6035,-0.5628,-0.5565,-0.5709,-0.5357,-0.5078,-0.5141,-0.4593,-0.4365,-0.4307,-0.3498,-0.3389,-0.3709,-0.3025,-0.2815,-0.2919,-0.2957,-0.2696,-0.2423,-0.2877,-0.3005,-0.3116,-0.3806,-0.4012,-0.3925,-0.4343,-0.4403,-0.4308,-0.4308,-0.4308,-0.4308,-0.4308,-0.4574,-0.4839,-0.4839,-0.5374,-0.5891,-0.5814,-0.599,-0.6157,-0.6072,-0.5984,-0.6039,-0.628,-0.6896,-0.7508,-0.7872,-0.8122,-0.8491,-0.8854,-0.8979,-0.9123,-0.912,-0.9235,-0.9381,-0.9374,-0.9242,-0.9269,-0.9581,-1.0098,-1.032,-1.0256,-1.0795,-1.0998,-1.1057,-1.0969,-1.1009,-1.1009,-1.1472,-1.1579,-1.1158,-1.1576,-1.1639,-1.1489,-1.1995,-1.2398,-1.2569,-1.2928,-1.3232,-1.3664,-1.3831,-1.39,-1.39,-1.4332,-1.4189,-1.39,-1.39,-1.39,-1.39,-1.39,-1.4189,-1.4479,-0.2233,-0.2767,-0.3156,-0.3415,-0.3792,-0.4172,-0.4441,-0.4708,-0.5109,-0.5513,-0.5915,-0.6205,-0.6539,-0.6492,-0.6453,-0.6453,-0.6453,-0.6453,-0.6453,-0.6482,-0.6484,-0.6455,-0.6482,-0.6359,-0.5951,-0.5818,-0.5735,-0.5565,-0.5403,-0.5264,-0.5005,-0.4508,-0.4326,-0.4308,-0.3768,-0.3641,-0.3798,-0.3594,-0.3405,-0.3361,-0.3732,-0.3658,-0.3412,-0.3384,-0.3651,-0.3906,-0.4153,-0.4212,-0.4403,-0.4545,-0.4466,-0.4369,-0.4369,-0.4341,-0.4308,-0.4308,-0.4441,-0.4574,-0.4707,-0.5109,-0.5642,-0.5882,-0.6163,-0.6432,-0.6147,-0.6148,-0.6283,-0.6653,-0.7143,-0.7508,-0.7872,-0.8122,-0.8613,-0.9095,-0.9176,-0.9236,-0.938,-0.9446,-0.95,-0.9395,-0.934,-0.9425,-0.9724,-1.0012,-1.0353,-1.0788,-1.0823,-1.0777,-1.0601,-1.0645,-1.0575,-1.0479,-1.1011,-1.1389,-1.1428,-1.1389,-1.1365,-1.1489,-1.1592,-1.1922,-1.2733,-1.2733,-1.2924,-1.3385,-1.333,-1.3365,-1.3468,-1.3904,-1.4047,-1.39,-1.39,-1.39,-1.39,-1.39,-1.4189,-1.4479,-0.2109,-0.2647,-0.3046,-0.3322,-0.3696,-0.4076,-0.4369,-0.4781,-0.5192,-0.5466,-0.5873,-0.6301,-0.6635,-0.659,-0.6541,-0.6509,-0.6474,-0.6453,-0.6453,-0.6453,-0.6453,-0.6453,-0.6453,-0.6319,-0.6182,-0.5914,-0.5955,-0.5906,-0.5797,-0.552,-0.5081,-0.4765,-0.4463,-0.4308,-0.3902,-0.3779,-0.3804,-0.3889,-0.3714,-0.3533,-0.4054,-0.3984,-0.3739,-0.3866,-0.3967,-0.4204,-0.4321,-0.453,-0.4574,-0.4574,-0.4496,-0.4398,-0.4398,-0.4357,-0.4308,-0.4441,-0.444,-0.4574,-0.5109,-0.5377,-0.5647,-0.6048,-0.6448,-0.6679,-0.6478,-0.6616,-0.6896,-0.7021,-0.751,-0.7875,-0.8238,-0.8485,-0.8854,-0.9457,-0.9415,-0.949,-0.9693,-0.9642,-0.9615,-0.9632,-0.9581,-0.9666,-0.9964,-1.0204,-1.0468,-1.0909,-1.0864,-1.0723,-1.0551,-1.0621,-1.068,-1.0834,-1.1069,-1.1306,-1.1664,-1.1341,-1.1313,-1.1571,-1.1621,-1.2018,-1.2759,-1.272,-1.2909,-1.3134,-1.3232,-1.331,-1.3325,-1.3757,-1.39,-1.39,-1.39,-1.39,-1.39,-1.39,-1.4189,-1.4479,-0.2262,-0.2249,-0.2529,-0.3229,-0.3331,-0.3591,-0.4335,-0.5184,-0.5607,-0.5607,-0.6306,-0.6729,-0.6735,-0.6731,-0.6694,-0.6477,-0.6525,-0.6472,-0.6472,-0.6472,-0.6472,-0.6472,-0.6472,-0.6472,-0.6472,-0.6201,-0.6105,-0.6598,-0.6264,-0.5846,-0.5502,-0.5087,-0.4643,-0.4319,-0.4048,-0.3806,-0.3856,-0.3913,-0.3881,-0.3573,-0.4072,-0.4122,-0.3859,-0.4168,-0.4259,-0.4318,-0.4613,-0.4685,-0.4585,-0.458,-0.4504,-0.441,-0.4405,-0.4362,-0.4447,-0.4708,-0.4839,-0.4975,-0.5644,-0.5912,-0.6048,-0.6453,-0.6581,-0.6778,-0.6957,-0.7148,-0.7385,-0.7385,-0.8,-0.8491,-0.8854,-0.9095,-0.9457,-0.97,-0.971,-0.9669,-0.9802,-0.9707,-0.973,-1.0015,-0.9924,-0.9958,-1.0266,-1.0548,-1.0802,-1.0802,-1.108,-1.1119,-1.0817,-1.0802,-1.107,-1.1637,-1.1372,-1.1464,-1.1952,-1.1523,-1.1437,-1.1696,-1.2063,-1.2441,-1.2708,-1.3003,-1.3046,-1.2826,-1.34,-1.3436,-1.3325,-1.3769,-1.3912,-1.3904,-1.3916,-1.3912,-1.39,-1.39,-1.4189,-1.4479,-0.2026,-0.2437,-0.2847,-0.3275,-0.3661,-0.3911,-0.4481,-0.5184,-0.5607,-0.5607,-0.6306,-0.6611,-0.6394,-0.6342,-0.6179,-0.5939,-0.6432,-0.6662,-0.6662,-0.6662,-0.6662,-0.6662,-0.6662,-0.6662,-0.6662,-0.6521,-0.6393,-0.6272,-0.5876,-0.5457,-0.5161,-0.474,-0.4593,-0.4442,-0.4302,-0.431,-0.4329,-0.4434,-0.4527,-0.4467,-0.472,-0.4794,-0.4688,-0.4844,-0.4801,-0.4735,-0.4841,-0.4777,-0.4704,-0.4658,-0.4594,-0.4523,-0.4477,-0.4559,-0.4772,-0.4856,-0.4839,-0.4975,-0.5644,-0.5912,-0.6048,-0.6453,-0.6581,-0.6921,-0.7671,-0.757,-0.7508,-0.775,-0.8122,-0.8491,-0.8854,-0.9095,-0.9457,-0.97,-0.9791,-0.9781,-0.9815,-0.9791,-0.9839,-1.0025,-1.0019,-1.0239,-1.0798,-1.0697,-1.0826,-1.1342,-1.1006,-1.1034,-1.1353,-1.083,-1.0658,-1.0979,-1.0737,-1.0953,-1.1526,-1.1413,-1.1283,-1.1543,-1.201,-1.2309,-1.2441,-1.2744,-1.3068,-1.3235,-1.3413,-1.3612,-1.3769,-1.4054,-1.4174,-1.4349,-1.4203,-1.417,-1.4332,-1.4043,-1.39,-1.4047,-0.2171,-0.2444,-0.258,-0.2883,-0.314,-0.3686,-0.4275,-0.4852,-0.5282,-0.5425,-0.6136,-0.6438,-0.6049,-0.616,-0.6151,-0.6051,-0.6094,-0.6168,-0.6168,-0.6306,-0.6304,-0.6166,-0.6306,-0.6444,-0.6444,-0.6306,-0.6027,-0.5885,-0.5885,-0.5606,-0.5326,-0.4903,-0.4763,-0.4763,-0.4622,-0.4482,-0.4489,-0.4583,-0.4674,-0.4763,-0.4857,-0.4946,-0.5021,-0.5021,-0.4969,-0.4891,-0.4857,-0.4789,-0.4709,-0.4676,-0.4605,-0.4526,-0.4633,-0.4838,-0.4888,-0.5253,-0.5243,-0.5245,-0.5915,-0.6048,-0.6038,-0.6666,-0.7071,-0.7314,-0.7956,-0.7835,-0.7627,-0.7872,-0.8241,-0.8732,-0.8854,-0.9217,-0.9579,-0.9822,-0.9822,-0.9846,-0.9917,-0.9924,-1.0005,-1.0352,-1.0506,-1.0724,-1.1359,-1.0921,-1.1009,-1.1652,-1.1221,-1.0971,-1.1531,-1.1009,-1.0823,-1.1244,-1.084,-1.1025,-1.1563,-1.1618,-1.1671,-1.1862,-1.2296,-1.2572,-1.2572,-1.2704,-1.2897,-1.3093,-1.3093,-1.3292,-1.3615,-1.3638,-1.392,-1.4189,-1.4206,-1.4349,-1.4474,-1.4189,-1.4189,-1.4189,-0.2159,-0.2154,-0.2161,-0.2328,-0.2601,-0.3166,-0.3928,-0.4373,-0.4665,-0.5103,-0.583,-0.6121,-0.5827,-0.6119,-0.6272,-0.6285,-0.5874,-0.5517,-0.5799,-0.6078,-0.6083,-0.5815,-0.6083,-0.6217,-0.6217,-0.5926,-0.5782,-0.5641,-0.5919,-0.5921,-0.5501,-0.5218,-0.5075,-0.5216,-0.4792,-0.451,-0.4655,-0.4575,-0.4661,-0.476,-0.4822,-0.491,-0.5007,-0.4997,-0.4937,-0.4857,-0.4839,-0.476,-0.4662,-0.4654,-0.4575,-0.4621,-0.4893,-0.495,-0.4989,-0.5647,-0.578,-0.5649,-0.6319,-0.6317,-0.6295,-0.7149,-0.7562,-0.7829,-0.8106,-0.7973,-0.7872,-0.7994,-0.8485,-0.8854,-0.8976,-0.9457,-0.9822,-0.9822,-0.9822,-0.9873,-1.0029,-1.0049,-1.0287,-1.0973,-1.1009,-1.1323,-1.1728,-1.1374,-1.1412,-1.188,-1.1383,-1.1138,-1.1527,-1.1138,-1.1073,-1.1604,-1.1101,-1.1142,-1.1607,-1.2,-1.2265,-1.2261,-1.2606,-1.2836,-1.2836,-1.2836,-1.2763,-1.2952,-1.2929,-1.2974,-1.3278,-1.3283,-1.3432,-1.3952,-1.4131,-1.4297,-1.4398,-1.4457,-1.4462,-1.4298,-0.1165,-0.16,-0.1891,-0.2186,-0.262,-0.3056,-0.3499,-0.3936,-0.4371,-0.4665,-0.5391,-0.5827,-0.5827,-0.5827,-0.6,-0.6065,-0.5313,-0.5449,-0.6771,-0.662,-0.6503,-0.6425,-0.6509,-0.6471,-0.6471,-0.6696,-0.6515,-0.5793,-0.6228,-0.5941,-0.5218,-0.5218,-0.5361,-0.5647,-0.4926,-0.4782,-0.5076,-0.4848,-0.4737,-0.476,-0.4822,-0.4887,-0.4944,-0.4892,-0.4894,-0.4909,-0.4807,-0.4724,-0.4657,-0.4605,-0.4541,-0.4614,-0.4838,-0.5082,-0.5463,-0.58,-0.6049,-0.6319,-0.6453,-0.6719,-0.6982,-0.7369,-0.7619,-0.7722,-0.8084,-0.8032,-0.7994,-0.8244,-0.8613,-0.8976,-0.9217,-0.9579,-0.9822,-0.9822,-0.9822,-0.9873,-1.0029,-1.0298,-1.066,-1.0973,-1.1268,-1.1538,-1.1564,-1.1672,-1.1758,-1.1861,-1.1324,-1.1138,-1.1527,-1.0879,-1.0634,-1.0658,-1.0677,-1.0948,-1.1492,-1.192,-1.2265,-1.2261,-1.2606,-1.2836,-1.2836,-1.2836,-1.3031,-1.336,-1.307,-1.3207,-1.354,-1.3516,-1.371,-1.3897,-1.4322,-1.4259,-1.4047,-1.436,-1.424,-1.3846,-0.0438,-0.1022,-0.1605,-0.2189,-0.2479,-0.277,-0.3063,-0.3353,-0.3789,-0.4518,-0.4955,-0.5245,-0.5392,-0.5538,-0.5552,-0.5585,-0.5327,-0.5495,-0.6385,-0.6086,-0.5821,-0.5596,-0.5828,-0.5788,-0.5643,-0.6307,-0.6264,-0.5245,-0.5538,-0.5685,-0.5538,-0.5248,-0.5392,-0.5827,-0.5247,-0.4956,-0.4959,-0.4841,-0.4725,-0.4758,-0.4786,-0.4853,-0.4929,-0.4869,-0.4863,-0.4872,-0.4751,-0.4668,-0.4606,-0.4545,-0.4485,-0.4432,-0.4815,-0.5192,-0.556,-0.5791,-0.6183,-0.6453,-0.6453,-0.6855,-0.7257,-0.7526,-0.7759,-0.798,-0.8108,-0.8046,-0.7994,-0.8369,-0.8613,-0.8976,-0.9214,-0.9579,-0.9822,-0.9822,-0.994,-1.0145,-1.0392,-1.0804,-1.1173,-1.1624,-1.1796,-1.2057,-1.2188,-1.2046,-1.2011,-1.2079,-1.1667,-1.1308,-1.1395,-1.1006,-1.0671,-1.0382,-1.068,-1.1019,-1.1389,-1.1931,-1.2265,-1.2261,-1.2606,-1.2836,-1.2836,-1.2836,-1.2978,-1.3218,-1.3128,-1.3246,-1.349,-1.3388,-1.3554,-1.3792,-1.4039,-1.4043,-1.4085,-1.4259,-1.4271,-1.4225,-0.0438,-0.0876,-0.146,-0.2189,-0.2334,-0.2333,-0.277,-0.277,-0.3208,-0.4228,-0.4518,-0.4665,-0.5103,-0.5248,-0.5256,-0.5416,-0.5317,-0.5501,-0.5816,-0.5503,-0.5234,-0.5167,-0.5405,-0.5517,-0.5222,-0.6024,-0.5976,-0.5101,-0.5248,-0.5538,-0.5827,-0.5538,-0.5538,-0.5972,-0.5394,-0.5103,-0.4955,-0.4809,-0.4692,-0.4734,-0.4734,-0.4807,-0.4906,-0.4816,-0.48,-0.4807,-0.467,-0.4583,-0.4526,-0.4478,-0.4425,-0.4377,-0.4783,-0.5154,-0.5515,-0.578,-0.6183,-0.6453,-0.6453,-0.6989,-0.7526,-0.7526,-0.7911,-0.8269,-0.8242,-0.8068,-0.815,-0.8497,-0.8732,-0.9098,-0.9335,-0.9579,-0.9819,-0.9943,-1.0065,-1.0281,-1.0814,-1.111,-1.1483,-1.2207,-1.2246,-1.2378,-1.264,-1.2421,-1.2275,-1.2239,-1.1862,-1.1471,-1.1372,-1.118,-1.0805,-1.0517,-1.0717,-1.1073,-1.1581,-1.1952,-1.2265,-1.2399,-1.2606,-1.2836,-1.2836,-1.2836,-1.2929,-1.3092,-1.3051,-1.3137,-1.3291,-1.3108,-1.3202,-1.3433,-1.3599,-1.3785,-1.3876,-1.4284,-1.4444,-1.4584,-0.1898,-0.1606,-0.1459,-0.2187,-0.2333,-0.2333,-0.2333,-0.2333,-0.2625,-0.35,-0.3936,-0.4373,-0.5103,-0.5248,-0.5421,-0.5927,-0.5197,-0.5076,-0.5435,-0.5083,-0.5258,-0.6,-0.6387,-0.6493,-0.6493,-0.6492,-0.6412,-0.6268,-0.5974,-0.5827,-0.5827,-0.5827,-0.5974,-0.6266,-0.5539,-0.5394,-0.5682,-0.4955,-0.4668,-0.4672,-0.4672,-0.4744,-0.4833,-0.466,-0.4664,-0.4739,-0.456,-0.4459,-0.441,-0.4406,-0.4364,-0.4313,-0.4714,-0.5114,-0.5515,-0.578,-0.6183,-0.6453,-0.6453,-0.6989,-0.7526,-0.7526,-0.7972,-0.8375,-0.8261,-0.8383,-0.8502,-0.8757,-0.9095,-0.9335,-0.97,-0.9819,-0.9943,-1.0183,-1.0065,-1.0124,-1.0911,-1.1061,-1.1306,-1.1892,-1.2322,-1.2455,-1.2197,-1.2465,-1.262,-1.2208,-1.1797,-1.1601,-1.1769,-1.0848,-1.0687,-1.1208,-1.0853,-1.1152,-1.2173,-1.2146,-1.2402,-1.2815,-1.274,-1.2836,-1.2836,-1.2836,-1.2929,-1.3084,-1.2925,-1.2954,-1.31,-1.2925,-1.2873,-1.2909,-1.3449,-1.3415,-1.3087,-1.4281,-1.4363,-1.3992,-0.073,-0.146,-0.2043,-0.2189,-0.2334,-0.2333,-0.2333,-0.2333,-0.2625,-0.3355,-0.3646,-0.4083,-0.481,-0.4956,-0.4966,-0.5136,-0.4846,-0.4855,-0.5025,-0.5005,-0.518,-0.5271,-0.6192,-0.6328,-0.5831,-0.6175,-0.6121,-0.5685,-0.5683,-0.5682,-0.5392,-0.5682,-0.5683,-0.5685,-0.5538,-0.5392,-0.51,-0.5101,-0.4956,-0.4665,-0.4665,-0.4692,-0.4721,-0.4615,-0.4602,-0.4624,-0.4481,-0.4417,-0.4392,-0.4625,-0.4461,-0.4441,-0.4977,-0.5245,-0.5515,-0.6049,-0.6585,-0.6853,-0.6853,-0.6987,-0.7254,-0.7791,-0.7972,-0.8138,-0.8615,-0.8447,-0.8412,-0.9236,-0.9158,-0.9217,-0.9943,-1.0061,-1.0183,-1.0547,-1.0756,-1.1005,-1.1423,-1.1787,-1.2199,-1.2441,-1.26,-1.2735,-1.26,-1.2533,-1.2281,-1.1953,-1.1814,-1.1582,-1.1115,-1.0914,-1.1069,-1.1658,-1.14,-1.1424,-1.1892,-1.2051,-1.2216,-1.2252,-1.2688,-1.2836,-1.2836,-1.2836,-1.2873,-1.2929,-1.3133,-1.3009,-1.2929,-1.3128,-1.3033,-1.299,-1.3083,-1.3095,-1.3035,-1.3904,-1.4182,-1.4209,0.0,-0.0876,-0.1752,-0.2043,-0.2188,-0.2333,-0.2333,-0.2333,-0.2479,-0.3209,-0.3355,-0.3791,-0.4373,-0.4664,-0.4665,-0.4665,-0.4665,-0.4665,-0.4665,-0.5121,-0.5299,-0.5198,-0.6011,-0.6314,-0.5641,-0.6037,-0.6146,-0.583,-0.5803,-0.5648,-0.5359,-0.5625,-0.5615,-0.5329,-0.5615,-0.547,-0.5183,-0.5184,-0.504,-0.4751,-0.4751,-0.4619,-0.4627,-0.4548,-0.4529,-0.4529,-0.4412,-0.4369,-0.4362,-0.4722,-0.4707,-0.4575,-0.5247,-0.5515,-0.5647,-0.6319,-0.6719,-0.6985,-0.6985,-0.7118,-0.7254,-0.7925,-0.813,-0.8194,-0.8685,-0.8511,-0.8477,-0.9315,-0.9196,-0.9095,-0.994,-1.0183,-1.0304,-1.0789,-1.1176,-1.1456,-1.1827,-1.2115,-1.2419,-1.2731,-1.262,-1.2509,-1.2696,-1.2441,-1.2177,-1.1912,-1.1912,-1.1604,-1.0978,-1.0914,-1.1374,-1.1999,-1.1752,-1.1747,-1.1989,-1.2127,-1.2183,-1.2161,-1.2656,-1.2836,-1.2836,-1.2836,-1.2836,-1.2836,-1.3235,-1.3104,-1.2836,-1.3363,-1.3434,-1.3136,-1.3017,-1.3046,-1.3307,-1.3764,-1.4061,-1.417,0.0,0.0,-0.0292,-0.1458,-0.2041,-0.2333,-0.2333,-0.2333,-0.2478,-0.277,-0.3209,-0.3646,-0.4079,-0.4518,-0.4665,-0.4664,-0.4665,-0.4665,-0.4665,-0.516,-0.5493,-0.5939,-0.631,-0.6614,-0.6529,-0.6086,-0.6198,-0.6988,-0.618,-0.5713,-0.5711,-0.564,-0.5607,-0.5607,-0.5607,-0.5745,-0.6023,-0.5324,-0.5045,-0.4905,-0.4622,-0.4518,-0.4559,-0.4443,-0.4433,-0.4466,-0.4349,-0.4308,-0.4307,-0.4707,-0.4839,-0.4841,-0.5245,-0.5646,-0.6048,-0.6319,-0.6719,-0.6985,-0.6985,-0.7254,-0.766,-0.8058,-0.8323,-0.8557,-0.8446,-0.8582,-0.8707,-0.8961,-0.8952,-0.9098,-0.97,-0.9822,-1.0061,-1.0668,-1.093,-1.129,-1.1909,-1.194,-1.1992,-1.2544,-1.2177,-1.2114,-1.2293,-1.2309,-1.2309,-1.2309,-1.2305,-1.2026,-1.1311,-1.1056,-1.1397,-1.2044,-1.1873,-1.1989,-1.2815,-1.2402,-1.2319,-1.2554,-1.2789,-1.284,-1.2836,-1.2836,-1.2836,-1.2836,-1.3235,-1.3104,-1.2836,-1.3617,-1.3752,-1.3371,-1.3371,-1.3371,-1.3524,-1.3974,-1.4031,-1.4053,0.0146,0.0,-0.0146,-0.0438,-0.1459,-0.2335,-0.2333,-0.2333,-0.2333,-0.2478,-0.3063,-0.3489,-0.36,-0.4205,-0.4647,-0.4604,-0.464,-0.481,-0.5103,-0.5121,-0.5424,-0.5861,-0.6133,-0.5994,-0.5572,-0.6058,-0.6314,-0.6033,-0.6438,-0.6396,-0.5915,-0.5894,-0.5883,-0.5883,-0.5883,-0.5885,-0.5745,-0.5467,-0.5326,-0.4905,-0.4622,-0.447,-0.4447,-0.4412,-0.4383,-0.4354,-0.4587,-0.4707,-0.4707,-0.5376,-0.5377,-0.5245,-0.5646,-0.6049,-0.6317,-0.6453,-0.6855,-0.739,-0.739,-0.7789,-0.8189,-0.8189,-0.8189,-0.8312,-0.8809,-0.8836,-0.8972,-0.9345,-0.9462,-0.9581,-1.0086,-1.0304,-1.0547,-1.0789,-1.1298,-1.1705,-1.1831,-1.1865,-1.2036,-1.2338,-1.21,-1.1856,-1.1905,-1.1644,-1.1648,-1.1912,-1.1799,-1.1588,-1.1506,-1.1374,-1.1527,-1.2044,-1.1766,-1.1825,-1.2225,-1.2324,-1.2436,-1.2554,-1.2909,-1.2954,-1.2836,-1.2836,-1.2836,-1.2836,-1.3235,-1.3367,-1.3235,-1.3748,-1.3879,-1.3752,-1.3498,-1.3371,-1.3392,-1.3703,-1.3944,-1.4127,0.0146,0.0,0.0,0.0,-0.1017,-0.1883,-0.2316,-0.2306,-0.2303,-0.2315,-0.3026,-0.3443,-0.3434,-0.4155,-0.4578,-0.4541,-0.4593,-0.4784,-0.4956,-0.4957,-0.5101,-0.5391,-0.5499,-0.5507,-0.5396,-0.6017,-0.6125,-0.5999,-0.6502,-0.6599,-0.6161,-0.5957,-0.5944,-0.6112,-0.5941,-0.593,-0.593,-0.5792,-0.5515,-0.5103,-0.4824,-0.4529,-0.4362,-0.4362,-0.4339,-0.4307,-0.4707,-0.4839,-0.4973,-0.5644,-0.5915,-0.5917,-0.6049,-0.6317,-0.6453,-0.6453,-0.6989,-0.7526,-0.739,-0.7922,-0.8456,-0.8189,-0.8189,-0.8456,-0.8984,-0.9024,-0.9042,-0.9732,-0.9434,-0.9401,-0.9927,-1.0229,-1.0425,-1.0547,-1.1421,-1.1969,-1.2028,-1.1943,-1.2106,-1.2289,-1.1912,-1.1516,-1.1516,-1.1516,-1.1644,-1.1912,-1.1824,-1.1603,-1.1651,-1.1453,-1.169,-1.2075,-1.1821,-1.1924,-1.2519,-1.2662,-1.2627,-1.2554,-1.2889,-1.2974,-1.2934,-1.2869,-1.2836,-1.2836,-1.3363,-1.3498,-1.3503,-1.4015,-1.4272,-1.4141,-1.3884,-1.3757,-1.3638,-1.3883,-1.4022,-1.4135,0.0146,0.0,0.0,0.0,-0.0577,-0.1288,-0.2144,-0.2266,-0.226,-0.2288,-0.2976,-0.339,-0.3422,-0.4099,-0.4486,-0.4476,-0.4536,-0.46,-0.466,-0.4665,-0.4665,-0.4665,-0.4713,-0.5007,-0.5673,-0.5823,-0.5928,-0.6266,-0.6531,-0.6493,-0.6287,-0.5719,-0.569,-0.6172,-0.5683,-0.5783,-0.6453,-0.6048,-0.578,-0.5379,-0.4975,-0.4708,-0.4441,-0.4441,-0.4441,-0.4441,-0.4841,-0.4839,-0.4973,-0.5778,-0.6183,-0.6453,-0.6453,-0.6453,-0.6453,-0.6453,-0.6989,-0.7393,-0.7121,-0.7786,-0.8587,-0.8192,-0.8323,-0.872,-0.8984,-0.903,-0.9211,-0.9847,-0.9258,-0.8833,-0.9449,-0.9701,-0.9961,-1.0204,-1.1172,-1.1949,-1.228,-1.2055,-1.1961,-1.2285,-1.1648,-1.1111,-1.1097,-1.1494,-1.189,-1.2153,-1.1997,-1.1806,-1.1779,-1.1553,-1.1557,-1.2158,-1.2014,-1.2349,-1.3323,-1.3086,-1.2881,-1.2712,-1.2825,-1.295,-1.3068,-1.2909,-1.2836,-1.2836,-1.3617,-1.3752,-1.3498,-1.4412,-1.467,-1.4403,-1.4272,-1.4141,-1.3879,-1.4141,-1.4121,-1.3985,0.0144,0.0,0.0,0.0,-0.0143,-0.0713,-0.1977,-0.227,-0.2283,-0.229,-0.2736,-0.3016,-0.3245,-0.3828,-0.4237,-0.4425,-0.4512,-0.46,-0.466,-0.4665,-0.4665,-0.4665,-0.4631,-0.475,-0.4879,-0.5507,-0.5733,-0.5681,-0.6334,-0.6735,-0.6887,-0.6095,-0.6227,-0.6855,-0.6086,-0.6048,-0.6453,-0.6048,-0.5912,-0.578,-0.5379,-0.5247,-0.5112,-0.5112,-0.5112,-0.5247,-0.5512,-0.5644,-0.5778,-0.6183,-0.6453,-0.6453,-0.6453,-0.6453,-0.6453,-0.6453,-0.6989,-0.7526,-0.739,-0.7922,-0.8587,-0.8456,-0.8587,-0.872,-0.8984,-0.9368,-0.9588,-0.9478,-0.9407,-0.9334,-0.9605,-0.985,-1.0122,-1.0369,-1.1027,-1.1563,-1.1882,-1.1576,-1.1452,-1.1878,-1.1251,-1.0805,-1.0685,-1.0932,-1.1323,-1.1713,-1.1903,-1.1745,-1.1238,-1.1591,-1.1614,-1.1351,-1.1705,-1.2117,-1.2551,-1.2585,-1.2838,-1.3175,-1.3275,-1.3128,-1.2889,-1.312,-1.3235,-1.3235,-1.3748,-1.401,-1.4146,-1.4141,-1.4272,-1.4408,-1.3757,-1.363,-1.3498,-1.363,-1.3776,-1.4226,0.0287,0.0,0.0,0.0,0.0,-0.0283,-0.0983,-0.1825,-0.2258,-0.2287,-0.2563,-0.2829,-0.3087,-0.3626,-0.4028,-0.4439,-0.4495,-0.4568,-0.4658,-0.4636,-0.4621,-0.4621,-0.4563,-0.4657,-0.4768,-0.5365,-0.5611,-0.5495,-0.6275,-0.6706,-0.6927,-0.6149,-0.6018,-0.6645,-0.6011,-0.5953,-0.6183,-0.6183,-0.6049,-0.5647,-0.5646,-0.5379,-0.5111,-0.5381,-0.5381,-0.5381,-0.578,-0.6048,-0.6183,-0.6453,-0.6453,-0.6453,-0.6453,-0.6587,-0.6719,-0.6719,-0.7254,-0.7791,-0.7791,-0.8189,-0.8587,-0.8587,-0.872,-0.8987,-0.9256,-0.9389,-0.9504,-0.9698,-0.9633,-0.9562,-0.9745,-0.9999,-1.0252,-1.0557,-1.0845,-1.1368,-1.1763,-1.1292,-1.1287,-1.2006,-1.1251,-1.0822,-1.1133,-1.1185,-1.1431,-1.1904,-1.1961,-1.1838,-1.1534,-1.1818,-1.1962,-1.1783,-1.1992,-1.2211,-1.2692,-1.2779,-1.305,-1.3368,-1.3283,-1.3189,-1.3084,-1.305,-1.3235,-1.3367,-1.3752,-1.401,-1.4141,-1.4141,-1.4141,-1.4141,-1.3752,-1.3621,-1.3625,-1.3757,-1.4213,-1.4577,0.0574,0.0144,0.0,0.0,0.0,-0.0,-0.014,-0.1253,-0.2094,-0.2141,-0.2528,-0.2778,-0.294,-0.342,-0.3942,-0.4458,-0.4467,-0.4515,-0.4625,-0.4586,-0.4557,-0.4557,-0.45,-0.4583,-0.4944,-0.5343,-0.5474,-0.5611,-0.6221,-0.6539,-0.67,-0.5922,-0.5926,-0.6277,-0.592,-0.5845,-0.6046,-0.6319,-0.6185,-0.5649,-0.5914,-0.5644,-0.5109,-0.5513,-0.5649,-0.5649,-0.5914,-0.6183,-0.6453,-0.6453,-0.6453,-0.6453,-0.6453,-0.6719,-0.6985,-0.6985,-0.7522,-0.8058,-0.8058,-0.8323,-0.8587,-0.8587,-0.8853,-0.9117,-0.9525,-0.9389,-0.925,-0.9921,-0.9701,-0.9621,-1.0012,-1.0151,-1.0383,-1.0739,-1.0813,-1.1091,-1.1606,-1.1277,-1.1148,-1.1964,-1.1318,-1.0927,-1.1641,-1.1601,-1.1698,-1.2293,-1.2172,-1.2075,-1.2044,-1.2044,-1.2161,-1.2519,-1.2405,-1.2592,-1.3092,-1.3092,-1.3218,-1.3461,-1.3242,-1.3206,-1.3315,-1.2986,-1.3104,-1.3367,-1.3884,-1.4006,-1.3879,-1.4141,-1.4141,-1.3748,-1.3748,-1.3748,-1.3879,-1.4272,-1.4534,-1.4824,0.2005,0.0852,0.0,0.0,0.0,-0.0281,-0.0982,-0.1273,-0.1568,-0.2147,-0.2283,-0.2411,-0.2806,-0.342,-0.3927,-0.4403,-0.441,-0.4437,-0.4503,-0.4499,-0.4495,-0.4495,-0.444,-0.4542,-0.4942,-0.5293,-0.5529,-0.5796,-0.6323,-0.6506,-0.6607,-0.6379,-0.6519,-0.7011,-0.6513,-0.6598,-0.6851,-0.6587,-0.6453,-0.6319,-0.6453,-0.6319,-0.6319,-0.6319,-0.6319,-0.6319,-0.6453,-0.6453,-0.6453,-0.6453,-0.6453,-0.6453,-0.6453,-0.6719,-0.6985,-0.6985,-0.7254,-0.7658,-0.8058,-0.8189,-0.8189,-0.8587,-0.8587,-0.872,-0.9117,-0.9117,-0.9117,-0.925,-0.9501,-0.9754,-1.0161,-1.0303,-1.067,-1.1158,-1.0885,-1.0674,-1.12,-1.1203,-1.1232,-1.1149,-1.0927,-1.0955,-1.1222,-1.1246,-1.1581,-1.2285,-1.2285,-1.2207,-1.2056,-1.2306,-1.2367,-1.1964,-1.2111,-1.2609,-1.3088,-1.3092,-1.3344,-1.3827,-1.349,-1.3262,-1.3124,-1.3195,-1.3371,-1.3371,-1.4015,-1.4141,-1.3875,-1.4006,-1.3752,-1.3367,-1.3099,-1.3099,-1.3498,-1.4146,-1.4403,-1.4539,0.2272,0.1701,0.0993,0.0142,0.0,-0.0422,-0.1559,-0.1854,-0.1861,-0.2148,-0.2276,-0.2394,-0.2778,-0.3405,-0.3924,-0.4117,-0.4261,-0.4422,-0.4478,-0.4452,-0.4436,-0.4436,-0.4514,-0.4751,-0.5158,-0.5531,-0.5915,-0.6183,-0.6183,-0.6228,-0.6313,-0.6003,-0.6005,-0.6174,-0.6273,-0.6228,-0.6183,-0.6453,-0.6319,-0.6183,-0.6453,-0.6319,-0.6183,-0.6453,-0.6453,-0.6453,-0.6453,-0.6453,-0.6453,-0.6453,-0.6453,-0.6453,-0.6453,-0.6855,-0.7257,-0.7257,-0.7658,-0.8189,-0.8323,-0.8323,-0.8456,-0.8853,-0.872,-0.872,-0.8984,-0.8984,-0.8853,-0.9117,-0.9326,-0.9695,-1.0177,-1.0333,-1.0599,-1.1048,-1.0654,-1.0556,-1.0933,-1.0868,-1.0749,-1.0854,-1.1264,-1.1519,-1.149,-1.1694,-1.1911,-1.2553,-1.2441,-1.2409,-1.2457,-1.2584,-1.2552,-1.2346,-1.2471,-1.2714,-1.295,-1.3047,-1.3267,-1.3604,-1.3445,-1.3327,-1.3238,-1.3099,-1.3235,-1.3371,-1.3761,-1.3757,-1.3625,-1.3625,-1.3363,-1.3104,-1.2836,-1.3099,-1.3752,-1.4408,-1.467,-1.467]}]]